[[{"header":{"parameterUnit":"m.s-1","parameterCategory":1,"la1":30.6,"la2":28.766,"lo1":-90.7593,"lo2":-88.6598,"dy":0.0162,"dx":0.0183,"nx":116,"ny":114,"refTime":"2023-08-26T00:00:00:Z","depth":0,"parameterNumber":2,"parameterNumberName":"U-component_of_WINDS"},"data":[0.0,0.0,0.0,0.0,0.0,0.0,0.0,0.0,0.0,0.0,0.0,0.0,0.0,0.0,0.0,0.0,0.0,0.0,0.0,0.0,0.0,0.0,0.0,0.0,0.0,0.0,0.0,0.0,0.0,0.0,0.0,0.0,0.0,0.0,0.0,0.0,0.0,0.0,0.0,0.0,0.0,0.0,0.0,0.0,0.0,0.0,0.0,0.0,0.0,0.0,0.0,0.0,0.0,0.0,0.0,0.0,0.0,0.0,0.0,0.0,0.0,0.0,0.0,0.0,0.0,0.0,0.0,0.0,0.0,0.0,0.0,0.0,0.0,0.0,0.0,0.0,0.0,0.0,0.0,0.0,0.0,0.0,0.0,0.0,0.0,0.0,0.0,0.0,0.0,0.0,0.0,0.0,0.0,0.0,0.0,0.0,0.0,0.0,0.0,0.0,0.0,0.0,0.0,0.0,0.0,0.0,0.0,0.0,0.0,0.0,0.0,0.0,0.0,0.0,0.0,0.0,0.0,0.0,0.0,0.0,0.0,0.0,0.0,0.0,0.0,0.0,0.0,0.0,0.0,0.0,0.0,0.0,0.0,0.0,0.0,0.0,0.0,0.0,0.0,0.0,0.0,0.0,0.0,0.0,0.0,0.0,0.0,0.0,0.0,0.0,0.0,0.0,0.0,0.0,0.0,0.0,0.0,0.0,0.0,0.0,0.0,0.0,0.0,0.0,0.0,0.0,0.0,0.0,0.0,0.0,0.0,0.0,0.0,0.0,0.0,0.0,0.0,0.0,0.0,0.0,0.0,0.0,0.0,0.0,0.0,0.0,0.0,0.0,0.0,0.0,0.0,0.0,0.0,0.0,0.0,0.0,0.0,0.0,0.0,0.0,0.0,0.0,0.0,0.0,0.0,0.0,0.0,0.0,0.0,0.0,0.0,0.0,0.0,0.0,0.0,0.0,0.0,0.0,0.0,0.0,0.0,0.0,0.0,0.0,0.0,0.0,0.0,0.0,0.0,0.0,0.0,0.0,0.0,0.0,0.0,0.0,0.0,0.0,0.0,0.0,0.0,0.0,0.0,0.0,0.0,0.0,0.0,0.0,0.0,0.0,0.0,0.0,0.0,0.0,0.0,0.0,0.0,0.0,0.0,0.0,0.0,0.0,0.0,0.0,0.0,0.0,0.0,0.0,0.0,0.0,0.0,0.0,0.0,0.0,0.0,0.0,0.0,0.0,0.0,0.0,0.0,0.0,0.0,0.0,0.0,0.0,0.0,0.0,0.0,0.0,0.0,0.0,0.0,0.0,0.0,0.0,0.0,0.0,0.0,0.0,0.0,0.0,0.0,0.0,0.0,0.0,0.0,0.0,0.0,0.0,0.0,0.0,0.0,0.0,0.0,0.0,0.0,0.0,0.0,0.0,0.0,0.0,0.0,0.0,0.0,0.0,0.0,0.0,0.0,0.0,0.0,0.0,0.0,0.0,0.0,0.0,0.0,0.0,0.0,0.0,0.0,0.0,0.0,0.0,0.0,0.0,0.0,0.0,0.0,0.0,0.0,0.0,0.0,0.0,0.0,0.0,0.0,0.0,0.0,0.0,0.0,0.0,0.0,0.0,0.0,0.0,0.0,0.0,0.0,0.0,0.0,0.0,0.0,0.0,0.0,0.0,0.0,0.0,0.0,0.0,0.0,0.0,0.0,0.0,0.0,0.0,0.0,0.0,0.0,0.0,0.0,0.0,0.0,0.0,0.0,0.0,0.0,0.0,0.0,0.0,0.0,0.0,0.0,0.0,0.0,0.0,0.0,0.0,0.0,0.0,0.0,0.0,0.0,0.0,0.0,0.0,0.0,0.0,0.0,0.0,0.0,0.0,0.0,0.0,0.0,0.0,0.0,0.0,0.0,0.0,0.0,0.0,0.0,0.0,0.0,0.0,0.0,0.0,0.0,0.0,0.0,0.0,0.0,0.0,0.0,0.0,0.0,0.0,0.0,0.0,0.0,0.0,0.0,0.0,0.0,0.0,0.0,0.0,0.0,0.0,0.0,0.0,0.0,0.0,0.0,0.0,0.0,0.0,0.0,0.0,0.0,0.0,0.0,0.0,0.0,0.0,0.0,0.0,0.0,0.0,0.0,0.0,0.0,0.0,0.0,0.0,0.0,0.0,0.0,0.0,0.0,0.0,0.0,0.0,0.0,0.0,0.0,0.0,0.0,0.0,0.0,0.0,0.0,0.0,0.0,0.0,0.0,0.0,0.0,0.0,0.0,0.0,0.0,0.0,0.0,0.0,0.0,0.0,0.0,0.0,0.0,0.0,0.0,0.0,0.0,0.0,0.0,0.0,0.0,0.0,0.0,0.0,0.0,0.0,0.0,0.0,0.0,0.0,0.0,0.0,0.0,0.0,0.0,0.0,0.0,0.0,0.0,0.0,0.0,0.0,0.0,0.0,0.0,0.0,0.0,0.0,0.0,0.0,0.0,0.0,0.0,0.0,0.0,0.0,0.0,0.0,0.0,0.0,0.0,0.0,0.0,0.0,0.0,0.0,0.0,0.0,0.0,0.0,0.0,0.0,0.0,0.0,0.0,0.0,0.0,0.0,0.0,0.0,0.0,0.0,0.0,0.0,0.0,0.0,0.0,0.0,0.0,0.0,0.0,0.0,0.0,0.0,0.0,0.0,0.0,0.0,0.0,0.0,0.0,0.0,0.0,0.0,0.0,0.0,0.0,0.0,0.0,0.0,0.0,0.0,0.0,0.0,0.0,0.0,0.0,0.0,0.0,0.0,0.0,0.0,0.0,0.0,0.0,0.0,0.0,0.0,0.0,0.0,0.0,0.0,0.0,0.0,0.0,0.0,0.0,0.0,0.0,0.0,0.0,0.0,0.0,0.0,0.0,0.0,0.0,0.0,0.0,0.0,0.0,0.0,0.0,0.0,0.0,0.0,0.0,0.0,0.0,0.0,0.0,0.0,0.0,0.0,0.0,0.0,0.0,0.0,0.0,0.0,0.0,0.0,0.0,0.0,0.0,0.0,0.0,0.0,0.0,0.0,0.0,0.0,0.0,0.0,0.0,0.0,0.0,0.0,0.0,0.0,0.0,0.0,0.0,0.0,0.0,0.0,0.0,0.0,0.0,0.0,0.0,0.0,0.0,0.0,0.0,0.0,0.0,0.0,0.0,0.0,0.0,0.0,0.0,0.0,0.0,0.0,0.0,0.0,0.0,0.0,0.0,0.0,0.0,0.0,0.0,0.0,0.0,0.0,0.0,0.0,0.0,0.0,0.0,0.0,0.0,0.0,0.0,0.0,0.0,0.0,0.0,0.0,0.0,0.0,0.0,0.0,0.0,0.0,0.0,0.0,0.0,0.0,0.0,0.0,0.0,0.0,0.0,0.0,0.0,0.0,0.0,0.0,0.0,0.0,0.0,0.0,0.0,0.0,0.0,0.0,0.0,0.0,0.0,0.0,0.0,0.0,0.0,0.0,0.0,0.0,0.0,0.0,0.0,0.0,0.0,0.0,0.0,0.0,0.0,0.0,0.0,0.0,0.0,0.0,0.0,0.0,0.0,0.0,0.0,0.0,0.0,0.0,0.0,0.0,0.0,0.0,0.0,0.0,0.0,0.0,0.0,0.0,0.0,0.0,0.0,0.0,0.0,0.0,0.0,0.0,0.0,0.0,0.0,0.0,0.0,0.0,0.0,0.0,0.0,0.0,0.0,0.0,0.0,0.0,0.0,0.0,0.0,0.0,0.0,0.0,0.0,0.0,0.0,0.0,0.0,0.0,0.0,0.0,0.0,0.0,0.0,0.0,0.0,0.0,0.0,0.0,0.0,0.0,0.0,0.0,0.0,0.0,0.0,0.0,0.0,0.0,0.0,0.0,0.0,0.0,0.0,0.0,0.0,0.0,0.0,0.0,0.0,0.0,0.0,0.0,0.0,0.0,0.0,0.0,0.0,0.0,0.0,0.0,0.0,0.0,0.0,0.0,0.0,0.0,0.0,0.0,0.0,0.0,0.0,0.0,0.0,0.0,0.0,0.0,0.0,0.0,0.0,0.0,0.0,0.0,0.0,0.0,0.0,0.0,0.0,0.0,0.0,0.0,0.0,0.0,0.0,0.0,0.0,0.0,0.0,0.0,0.0,0.0,0.0,0.0,0.0,0.0,0.0,0.0,0.0,0.0,0.0,0.0,0.0,0.0,0.0,0.0,0.0,0.0,0.0,0.0,0.0,0.0,0.0,0.0,0.0,0.0,0.0,0.0,0.0,0.0,0.0,0.0,0.0,0.0,0.0,0.0,0.0,0.0,0.0,0.0,0.0,0.0,0.0,0.0,0.0,0.0,0.0,0.0,0.0,0.0,0.0,0.0,0.0,0.0,0.0,0.0,0.0,0.0,0.0,0.0,0.0,0.0,0.0,0.0,0.0,0.0,0.0,0.0,0.0,0.0,0.0,0.0,0.0,0.0,0.0,0.0,0.0,0.0,0.0,0.0,0.0,0.0,0.0,0.0,0.0,0.0,0.0,0.0,0.0,0.0,0.0,0.0,0.0,0.0,0.0,0.0,0.0,0.0,0.0,0.0,0.0,0.0,0.0,0.0,0.0,0.0,0.0,0.0,0.0,0.0,0.0,0.0,0.0,0.0,0.0,0.0,0.0,0.0,0.0,0.0,0.0,0.0,0.0,0.0,0.0,0.0,0.0,0.0,0.0,0.0,0.0,0.0,0.0,0.0,0.0,0.0,0.0,0.0,0.0,0.0,0.0,0.0,0.0,0.0,0.0,0.0,0.0,0.0,0.0,0.0,0.0,0.0,0.0,0.0,0.0,0.0,0.0,0.0,0.0,0.0,0.0,0.0,0.0,0.0,0.0,0.0,0.0,0.0,0.0,0.0,0.0,0.0,0.0,0.0,0.0,0.0,0.0,0.0,0.0,0.0,0.0,0.0,0.0,0.0,0.0,0.0,0.0,0.0,0.0,0.0,0.0,0.0,0.0,0.0,0.0,0.0,0.0,0.0,0.0,0.0,0.0,0.0,0.0,0.0,0.0,0.0,0.0,0.0,0.0,0.0,0.0,0.0,0.0,0.0,0.0,0.0,0.0,0.0,0.0,0.0,0.0,0.0,0.0,0.0,0.0,0.0,0.0,0.0,0.0,0.0,0.0,0.0,0.0,0.0,0.0,0.0,0.0,0.0,0.0,0.0,0.0,0.0,0.0,0.0,0.0,0.0,0.0,0.0,0.0,0.0,0.0,0.0,0.0,0.0,0.0,0.0,0.0,0.0,0.0,0.0,0.0,0.0,0.0,0.0,0.0,0.0,0.0,0.0,0.0,0.0,0.0,0.0,0.0,0.0,0.0,0.0,0.0,0.0,0.0,0.0,0.0,0.0,0.0,0.0,0.0,0.0,0.0,0.0,0.0,0.0,0.0,0.0,0.0,0.0,0.0,0.0,0.0,0.0,0.0,0.0,0.0,0.0,0.0,0.0,0.0,0.0,0.0,0.0,0.0,0.0,0.0,0.0,0.0,0.0,0.0,0.0,0.0,0.0,0.0,0.0,0.0,0.0,0.0,0.0,0.0,0.0,0.0,0.0,0.0,0.0,0.0,0.0,0.0,0.0,0.0,0.0,0.0,0.0,0.0,0.0,0.0,0.0,0.0,0.0,0.0,0.0,0.0,0.0,0.0,0.0,0.0,0.0,0.0,0.0,0.0,0.0,0.0,0.0,0.0,0.0,0.0,0.0,0.0,0.0,0.0,0.0,0.0,0.0,0.0,0.0,0.0,0.0,0.0,0.0,0.0,0.0,0.0,0.0,0.0,0.0,0.0,0.0,0.0,0.0,0.0,0.0,0.0,0.0,0.0,0.0,0.0,0.0,0.0,0.0,0.0,0.0,0.0,0.0,0.0,0.0,0.0,0.0,0.0,0.0,0.0,0.0,0.0,0.0,0.0,0.0,0.0,0.0,0.0,0.0,0.0,0.0,0.0,0.0,0.0,0.0,0.0,0.0,0.0,0.0,0.0,0.0,0.0,0.0,0.0,0.0,0.0,0.0,0.0,0.0,0.0,0.0,0.0,0.0,0.0,0.0,0.0,0.0,0.0,0.0,0.0,0.0,3.1514,3.1214,0.0,0.0,0.0,0.0,0.0,0.0,0.0,0.0,0.0,0.0,0.0,0.0,0.0,0.0,0.0,0.0,0.0,0.0,0.0,0.0,0.0,0.0,0.0,0.0,0.0,0.0,0.0,0.0,0.0,0.0,0.0,0.0,0.0,0.0,0.0,0.0,0.0,4.0489,4.0436,4.0314,4.0172,4.0839,4.1128,4.1044,0.0,0.0,0.0,0.0,0.0,0.0,0.0,0.0,0.0,0.0,0.0,0.0,0.0,0.0,0.0,0.0,0.0,0.0,0.0,0.0,0.0,0.0,0.0,0.0,0.0,0.0,0.0,0.0,0.0,0.0,0.0,0.0,0.0,0.0,0.0,0.0,0.0,0.0,0.0,0.0,0.0,0.0,0.0,0.0,0.0,0.0,0.0,0.0,0.0,0.0,0.0,0.0,0.0,0.0,0.0,0.0,0.0,0.0,0.0,0.0,0.0,0.0,0.0,0.0,0.0,0.0,0.0,0.0,0.0,0.0,3.1494,3.1548,0.0,0.0,0.0,0.0,0.0,0.0,0.0,0.0,0.0,0.0,0.0,0.0,0.0,0.0,0.0,0.0,0.0,0.0,0.0,0.0,0.0,0.0,0.0,0.0,4.0437,4.0301,4.0283,4.0283,0.0,0.0,0.0,0.0,0.0,0.0,0.0,4.0472,4.047,4.047,4.0279,4.0119,3.9943,3.9732,3.9661,3.9661,3.9661,0.0,0.0,0.0,0.0,0.0,0.0,0.0,0.0,0.0,0.0,0.0,0.0,0.0,0.0,0.0,0.0,0.0,0.0,0.0,0.0,0.0,0.0,0.0,0.0,0.0,0.0,0.0,0.0,0.0,0.0,0.0,0.0,0.0,0.0,0.0,0.0,0.0,0.0,0.0,0.0,0.0,0.0,0.0,0.0,0.0,0.0,0.0,0.0,0.0,0.0,0.0,0.0,0.0,0.0,0.0,0.0,0.0,0.0,0.0,0.0,0.0,0.0,0.0,3.1516,3.145,3.1427,3.1272,3.0722,2.9977,3.0824,3.1149,3.1104,3.1104,0.0,0.0,0.0,0.0,0.0,0.0,0.0,0.0,0.0,0.0,0.0,0.0,0.0,0.0,0.0,0.0,0.0,0.0,0.0,0.0,0.0,4.0489,4.0231,3.9517,3.9463,3.9463,0.0,0.0,0.0,0.0,0.0,0.0,4.0489,4.0383,4.0329,4.0329,3.9963,3.9768,3.9732,3.9535,3.9442,3.9442,3.9442,3.9409,3.9406,0.0,0.0,0.0,0.0,0.0,0.0,0.0,0.0,0.0,0.0,0.0,0.0,0.0,0.0,0.0,0.0,0.0,0.0,0.0,0.0,0.0,0.0,0.0,0.0,0.0,0.0,0.0,0.0,0.0,0.0,0.0,0.0,0.0,0.0,0.0,0.0,0.0,0.0,0.0,0.0,0.0,3.3004,3.2788,0.0,0.0,0.0,0.0,0.0,0.0,0.0,0.0,0.0,0.0,0.0,0.0,0.0,3.1705,3.1705,3.1705,3.1705,3.1683,3.0824,3.0407,3.0373,2.9487,2.9027,2.8912,2.905,0.0,2.8738,2.8738,0.0,0.0,0.0,0.0,0.0,0.0,0.0,0.0,0.0,0.0,0.0,0.0,0.0,0.0,0.0,0.0,0.0,0.0,0.0,0.0,0.0,3.9831,3.9499,3.8708,3.8635,3.8635,3.8635,3.9052,0.0,0.0,0.0,4.0489,4.0489,3.99,3.9229,3.8557,3.8372,3.8242,3.813,3.805,3.7994,3.7994,3.7994,3.8527,3.9406,3.9406,0.0,0.0,0.0,0.0,0.0,0.0,0.0,0.0,0.0,0.0,0.0,0.0,0.0,0.0,0.0,0.0,0.0,0.0,0.0,0.0,0.0,0.0,0.0,0.0,0.0,0.0,0.0,0.0,0.0,0.0,0.0,0.0,0.0,0.0,0.0,0.0,0.0,0.0,0.0,3.2779,3.2714,3.2689,3.2463,3.2266,0.0,0.0,0.0,0.0,0.0,0.0,0.0,0.0,0.0,3.1705,3.1705,3.1427,3.0869,3.0869,3.0565,3.0011,2.9567,2.9349,2.9326,2.875,2.8168,2.7615,2.7463,2.6941,2.6292,2.7699,2.7874,2.7226,0.0,0.0,0.0,0.0,2.6109,2.5718,0.0,0.0,0.0,0.0,0.0,0.0,0.0,0.0,0.0,0.0,0.0,0.0,3.9373,3.9124,3.8672,3.7856,3.7781,3.7742,3.7555,3.8311,0.0,3.8811,3.9573,3.9898,3.9711,3.8689,3.7768,3.692,3.692,3.6913,3.69,3.69,3.69,3.69,3.7127,3.7933,3.9086,3.9086,3.921,3.9406,0.0,0.0,0.0,0.0,0.0,0.0,0.0,0.0,0.0,0.0,0.0,0.0,0.0,0.0,0.0,0.0,0.0,0.0,0.0,0.0,0.0,0.0,0.0,0.0,0.0,0.0,0.0,0.0,0.0,0.0,0.0,0.0,0.0,0.0,0.0,0.0,0.0,3.2571,3.2497,3.2528,3.2201,3.1981,0.0,0.0,0.0,0.0,0.0,0.0,3.1705,3.1705,3.1705,3.1705,3.1705,3.1339,3.0588,3.0588,3.0079,2.9073,2.8819,2.8564,2.8308,2.7827,2.7234,2.6514,2.6312,2.5611,2.475,2.657,2.6761,2.5906,2.5906,2.5489,2.4883,2.4809,2.4809,2.4784,0.0,0.0,0.0,0.0,0.0,0.0,0.0,0.0,0.0,0.0,0.0,3.9341,3.9287,3.8616,3.7852,3.7019,3.6961,3.6727,3.6146,3.68,3.73,3.7479,3.822,3.827,3.7567,3.6508,3.6021,3.616,3.616,3.6404,3.69,3.69,3.69,3.6952,3.7777,3.8183,3.8258,3.8258,3.8701,3.9406,3.9406,0.0,0.0,0.0,0.0,0.0,0.0,0.0,0.0,0.0,0.0,0.0,0.0,0.0,0.0,0.0,0.0,0.0,0.0,0.0,0.0,0.0,0.0,0.0,0.0,0.0,0.0,0.0,0.0,0.0,0.0,0.0,0.0,0.0,0.0,0.0,0.0,0.0,0.0,3.2081,3.2016,0.0,0.0,0.0,0.0,3.1705,3.1705,3.1705,3.1705,3.1705,3.1705,3.1705,3.1705,3.1683,3.1639,3.1617,3.1126,3.0125,2.9166,2.8215,2.7237,2.6259,2.5805,2.5757,2.5732,2.5406,2.4883,2.475,2.4652,2.4603,2.4603,2.4726,2.4858,2.4603,2.4504,2.4489,0.0,0.0,0.0,0.0,0.0,0.0,0.0,0.0,4.0401,4.0489,3.9814,3.9106,3.8565,3.7814,3.6864,3.5647,3.5541,3.5299,3.4681,3.5372,3.5835,3.5928,3.6582,3.6459,3.536,3.4966,3.4487,3.3907,3.3907,3.4014,3.4203,3.4203,3.4398,3.4794,3.5106,3.5733,3.6702,3.83,3.9137,3.9406,3.9406,3.9406,0.0,0.0,0.0,0.0,0.0,0.0,0.0,0.0,0.0,0.0,0.0,0.0,0.0,0.0,0.0,0.0,0.0,0.0,0.0,0.0,0.0,0.0,0.0,0.0,0.0,0.0,0.0,0.0,0.0,0.0,0.0,0.0,0.0,0.0,0.0,0.0,0.0,3.2003,3.1893,0.0,3.1717,3.1705,3.1705,3.1705,3.1705,3.1705,3.1705,3.1705,3.1705,3.1705,3.1705,3.1383,3.0745,3.0722,3.0238,2.9235,2.8866,2.8168,2.7189,2.6648,2.6042,2.543,2.526,2.5088,2.4883,2.4603,2.4415,2.4325,2.4325,2.4375,2.4449,2.4341,2.4325,2.4301,0.0,0.0,0.0,0.0,0.0,0.0,0.0,0.0,4.0296,4.0071,3.937,3.8598,3.7781,3.6798,3.5827,3.4875,3.4612,3.4246,3.3669,3.433,3.4628,3.4363,3.4739,3.454,3.3614,3.3361,3.2953,3.2411,3.2411,3.2502,3.2685,3.2685,3.2908,3.3307,3.3582,3.4226,3.5236,3.7379,3.8374,3.8583,3.8885,3.901,3.9013,0.0,0.0,0.0,0.0,0.0,0.0,0.0,0.0,0.0,0.0,0.0,0.0,0.0,0.0,0.0,0.0,0.0,0.0,0.0,0.0,0.0,0.0,0.0,0.0,0.0,0.0,0.0,0.0,0.0,0.0,0.0,0.0,0.0,0.0,3.1893,3.1827,3.1893,3.1783,3.1705,3.1705,3.1705,3.1705,3.1705,3.1705,3.1705,3.1705,3.1705,3.1705,3.1705,3.1705,3.1383,3.07,3.07,3.0192,2.9189,2.8866,2.8168,2.7189,2.6672,2.6066,2.5416,2.5162,2.4981,2.4883,2.4603,2.439,2.4202,2.4202,2.4202,2.4202,2.4202,2.4202,2.4202,0.0,0.0,0.0,0.0,0.0,0.0,0.0,4.0418,4.0176,3.9253,3.8554,3.7819,3.6991,3.5691,3.4834,3.4754,3.4225,3.3661,3.3115,3.3688,3.3685,3.2889,3.2743,3.2565,3.2362,3.1671,3.1455,3.1784,3.1784,3.2078,3.2653,3.2653,3.2666,3.2712,3.3486,3.3843,3.3968,3.5393,3.6299,3.6857,3.7782,3.8165,3.8258,0.0,0.0,0.0,0.0,0.0,0.0,0.0,0.0,0.0,0.0,0.0,0.0,0.0,0.0,0.0,0.0,0.0,0.0,0.0,0.0,0.0,0.0,0.0,0.0,0.0,0.0,0.0,0.0,0.0,0.0,0.0,0.0,0.0,3.1994,3.1994,3.1915,3.1727,3.1705,3.1705,3.1705,3.1705,3.1705,3.1705,3.1705,3.1705,3.1705,3.1705,3.1705,3.1705,3.1705,3.1705,3.1705,3.1705,3.1215,3.0238,2.9258,2.8262,2.7213,2.6235,2.5757,2.5693,2.544,2.5162,2.4907,2.4637,2.4415,2.4226,2.4202,2.4202,2.4202,2.4202,2.4202,2.4202,0.0,0.0,0.0,0.0,0.0,0.0,0.0,4.0331,4.0296,4.0141,3.946,3.8495,3.7255,3.6723,3.5686,3.3753,3.3854,3.3587,3.2508,3.2618,3.2482,3.1986,3.1776,3.1593,3.1389,3.1198,3.114,3.1222,3.1222,3.13,3.1476,3.1476,3.1679,3.2052,3.229,3.2631,3.3066,3.346,3.3719,3.4037,3.6331,3.7256,3.7352,0.0,0.0,0.0,0.0,0.0,0.0,0.0,0.0,0.0,0.0,0.0,0.0,0.0,0.0,0.0,0.0,0.0,0.0,0.0,0.0,0.0,0.0,0.0,0.0,0.0,0.0,0.0,0.0,0.0,0.0,0.0,3.2125,3.1937,3.1805,3.1783,3.1761,3.1717,3.1705,3.1705,3.1705,3.1705,3.1705,3.1705,3.1705,3.1705,3.1705,3.1705,3.1705,3.1705,3.1705,3.1705,3.1705,3.1705,3.156,3.1282,3.1003,2.9966,2.8285,2.8004,2.7067,2.5693,2.5611,2.5538,2.5465,2.5186,2.5064,2.4941,2.4399,2.4202,2.4202,2.4202,2.4202,2.4202,0.0,0.0,0.0,0.0,0.0,0.0,0.0,4.0364,4.0279,3.995,3.9309,3.8433,3.7277,3.637,3.5224,3.3638,3.3312,3.2859,3.2123,3.1913,3.1711,3.1471,3.1286,3.1104,3.1005,3.1005,3.1005,3.1005,3.1005,3.1005,3.1005,3.1005,3.1169,3.1464,3.1464,3.1666,3.2012,3.2228,3.2313,3.2489,3.4373,3.5484,3.6136,3.7248,3.7891,3.8221,3.8323,3.8598,3.8811,3.8229,0.0,0.0,0.0,0.0,0.0,0.0,0.0,0.0,0.0,0.0,0.0,0.0,0.0,0.0,0.0,0.0,0.0,0.0,0.0,0.0,0.0,0.0,0.0,0.0,3.1981,3.1827,3.1705,3.1705,3.1705,3.1705,3.1705,3.1705,3.1705,3.1705,3.1705,3.1705,3.1705,3.1705,3.1705,3.1705,3.1705,3.1705,3.1705,3.1705,3.1705,3.1705,3.1494,3.1082,3.0633,2.9601,2.8051,2.7649,2.6826,2.5684,2.5586,2.5538,2.5513,2.5235,2.5137,0.0,0.0,0.0,0.0,0.0,2.4325,2.4316,0.0,0.0,0.0,0.0,0.0,0.0,0.0,4.0411,4.0089,3.9239,3.8661,3.799,3.712,3.5497,3.4384,3.4135,3.2935,3.215,3.2059,3.1661,3.144,3.1463,3.1161,3.1005,3.1005,3.1005,3.1005,3.1005,3.1005,3.1005,3.1005,3.1005,3.1005,3.1005,3.1005,3.1005,3.1031,3.1503,3.1706,3.1758,3.2359,3.3436,3.4802,3.6159,3.718,3.7815,3.7127,3.7405,3.7905,3.6936,0.0,0.0,0.0,0.0,0.0,0.0,0.0,0.0,0.0,0.0,0.0,0.0,0.0,0.0,0.0,0.0,0.0,0.0,0.0,0.0,0.0,0.0,0.0,0.0,3.1705,3.1705,3.1705,3.1705,3.1705,3.1705,3.1705,3.1705,3.1705,3.1705,3.1705,3.1705,3.1705,3.1705,3.1705,3.1705,0.0,0.0,0.0,3.1705,3.1705,3.1705,3.1238,3.0351,2.9464,2.8518,2.7487,2.649,2.5989,2.5844,2.5504,2.5342,2.5342,2.5088,2.4981,2.4981,2.4907,2.4883,2.4833,2.4587,2.4489,2.444,0.0,0.0,0.0,0.0,0.0,0.0,0.0,4.037,3.9624,3.9453,3.8857,3.7966,3.6671,3.672,3.6146,3.4411,3.3994,3.3578,3.2995,3.2475,3.2255,3.2417,3.15,3.1005,3.1005,3.1005,3.1005,3.1005,3.1005,3.1005,3.1005,3.1005,3.1005,3.1005,3.1005,3.1005,3.1018,3.1104,3.1143,3.1196,3.1751,3.2712,3.3918,3.485,3.5611,3.6255,3.6738,3.7011,3.7088,3.6727,3.657,3.6334,3.5094,3.4675,0.0,0.0,0.0,0.0,0.0,0.0,0.0,0.0,0.0,0.0,0.0,0.0,0.0,0.0,0.0,0.0,0.0,0.0,0.0,3.1972,3.1805,3.1705,3.1705,3.1705,3.1705,3.1705,3.1705,3.1705,3.1705,3.1705,3.1705,3.1705,3.1705,3.1705,3.1705,3.1705,3.1705,3.1705,3.1705,3.1705,3.1705,3.1705,3.1594,3.1405,0.0,0.0,2.959,2.8588,2.7686,2.6867,2.6004,2.5611,2.5611,2.5562,2.5538,2.5513,2.5064,2.476,2.4578,2.4504,2.439,2.4276,0.0,0.0,0.0,0.0,0.0,0.0,0.0,4.0363,3.9507,3.9507,3.8614,3.7732,3.7024,3.6657,3.6018,3.4942,3.4363,3.3699,3.2861,3.2448,3.2132,3.1868,3.131,3.1005,3.1005,3.1005,3.1005,3.1005,3.1005,3.1005,3.1005,3.1005,3.1005,3.1005,3.1005,3.1005,3.1005,3.1005,3.1005,3.1031,3.13,3.1921,3.2817,3.3807,3.4633,3.5282,3.5553,3.5943,3.6221,3.5676,3.5426,3.5203,3.4434,3.4134,3.3915,0.0,0.0,0.0,0.0,0.0,0.0,0.0,0.0,0.0,0.0,0.0,0.0,0.0,0.0,3.2475,3.2235,0.0,3.1972,3.1871,3.1761,3.1705,3.1705,3.1705,3.1705,3.1705,3.1705,3.1705,3.1705,3.1705,3.1705,3.1705,3.1705,3.1705,3.1705,3.1705,3.1705,3.1705,3.1705,3.1705,3.1705,3.1418,3.1033,3.0548,3.0289,2.9622,2.8623,2.8129,2.762,2.7105,2.6166,2.5742,2.5718,2.5234,2.5054,2.5031,2.476,2.4828,2.5088,2.4966,2.4843,2.472,0.0,0.0,0.0,0.0,0.0,0.0,0.0,4.036,3.9412,3.9139,3.8061,3.7307,3.7307,3.6278,3.556,3.5416,3.4712,3.3905,3.3041,3.2723,3.234,3.1786,3.1408,3.1203,3.1203,3.1067,3.1005,3.1005,3.1005,3.1005,3.1005,3.1005,3.1005,3.1005,3.1005,3.1005,3.1005,3.1005,3.1005,3.1005,3.1005,3.1261,3.1764,3.2842,3.3807,3.4552,3.4304,3.4768,3.5345,3.4634,3.4293,3.4084,3.381,3.3598,3.342,3.3176,3.3102,0.0,0.0,0.0,0.0,0.0,0.0,0.0,0.0,3.3025,3.2939,3.2702,3.2593,3.2441,3.2081,3.1972,3.1893,3.1727,3.1705,3.1705,3.1705,3.1705,3.1705,3.1705,3.1705,3.1705,3.1705,3.1705,3.1705,3.1705,3.1705,3.1705,3.1705,3.1705,3.1657,3.156,3.1539,3.1478,3.1382,3.0961,3.0333,2.9537,2.9099,2.8472,2.7678,2.747,2.7294,2.7073,2.6002,2.5538,2.5469,2.4703,2.4391,2.4391,2.4391,2.483,2.5406,2.5155,2.501,2.4957,0.0,0.0,0.0,0.0,0.0,0.0,0.0,0.0,3.9078,3.788,3.7076,3.6599,3.6599,3.6475,3.6116,3.5448,3.5737,3.5673,3.5108,3.4597,3.4363,3.4461,3.2865,3.1978,3.1978,3.1352,3.1005,3.1005,3.1005,3.1005,3.1005,3.1005,3.1005,3.1005,3.1005,3.1005,3.1005,3.1005,3.1005,3.1005,3.1005,3.1044,3.1156,3.1777,3.2712,3.3729,3.3693,3.4075,3.4543,3.4439,3.4397,3.4293,3.3839,3.367,3.3598,3.3219,3.3102,3.3102,3.3102,3.3102,3.3102,3.3102,3.3102,3.3038,0.0,3.2745,3.2702,3.2475,3.2235,3.206,3.2016,3.1849,3.1727,3.1705,3.1705,3.1705,3.1705,3.1705,3.1705,3.1705,3.1705,3.1705,3.1705,3.1705,3.1705,3.1705,3.1705,3.1705,3.1705,3.1705,3.1466,3.0997,3.0985,3.0756,3.0287,3.0227,3.0128,3.0022,2.9962,2.9863,2.9725,2.8838,2.8005,2.7172,2.5356,2.4552,2.4552,2.4437,2.4391,2.4391,2.4391,2.4459,2.4514,2.4225,2.4034,2.3956,0.0,0.0,0.0,0.0,0.0,0.0,0.0,0.0,0.0,3.82,3.7435,3.6892,3.6538,3.6507,3.6382,3.6069,3.6148,3.5912,3.5271,3.4944,3.4595,3.4213,3.3087,3.2443,3.2443,3.1735,3.1286,3.1161,3.1161,3.1118,3.1005,3.1005,3.1005,3.1005,3.1005,3.1005,3.1005,3.1005,3.1005,3.1005,3.1005,3.1005,3.1031,3.1248,3.2058,3.3124,3.3569,3.4012,0.0,3.4545,3.4501,3.4314,3.3839,3.3691,3.362,3.3219,3.3102,3.3102,3.3102,3.3102,3.3102,3.3102,3.3102,3.3068,3.2961,3.2918,3.2853,3.2615,3.2388,3.2191,3.2038,3.1849,3.1705,3.1705,3.1705,3.1705,3.1705,3.1705,3.1705,3.1705,3.1705,3.1705,3.1705,3.1705,3.1705,3.1705,3.1705,3.1705,3.1705,3.1394,3.1129,3.0901,3.06,3.0335,3.0107,2.9785,2.9629,2.9629,2.9316,2.9172,2.9151,2.8739,2.7773,2.6345,2.5035,2.4152,2.3649,2.3649,2.3649,2.3649,2.3649,2.3649,2.3686,2.4091,2.4193,2.4139,0.0,0.0,0.0,0.0,0.0,0.0,0.0,0.0,0.0,0.0,3.7687,3.7163,3.6569,3.6507,3.6507,3.6507,3.6367,3.6054,3.5529,3.5335,3.4993,3.4401,3.3682,3.3206,3.3009,3.2268,3.173,3.1365,3.1365,3.1304,3.1155,3.1155,3.1155,3.1155,3.1155,3.1155,3.1155,3.1118,3.1198,3.1365,3.1099,3.1235,3.1579,3.1389,3.205,3.3105,3.3202,3.3662,3.4192,3.4353,3.4298,3.4139,3.3885,3.3768,3.3641,3.3283,3.3133,3.3102,3.3102,3.3102,3.3102,3.3102,3.3102,3.3102,3.3102,3.3102,3.3047,3.2853,3.2605,3.2344,3.2147,3.1893,3.1705,3.1705,3.1705,3.1705,3.1705,3.1705,3.1705,3.1705,3.1705,3.1705,3.1705,3.1705,3.1705,3.1705,3.1705,3.1645,3.15,3.1105,3.0756,3.0468,3.0074,2.9797,2.9653,2.9268,2.9076,2.9076,2.8691,2.849,2.849,2.8259,2.7275,2.5756,2.4872,2.3962,2.3091,2.3091,2.3091,2.3091,2.3091,2.3091,2.3169,2.3815,2.404,2.4036,0.0,0.0,0.0,0.0,0.0,0.0,0.0,0.0,0.0,0.0,0.0,0.0,0.0,3.6507,3.6507,3.6507,3.6492,3.6476,3.646,3.6274,3.6148,3.6133,3.5286,3.4509,3.3779,3.303,3.2304,3.159,3.159,3.159,3.159,3.159,3.159,3.159,3.159,3.159,3.1572,3.1365,3.1703,3.2273,3.1365,3.1859,3.3069,3.2344,3.2891,3.3861,3.2391,3.262,3.3634,3.3641,3.3621,3.3677,3.3991,3.3915,3.3649,3.3462,3.3261,3.3102,3.3102,3.3102,3.3102,3.3102,3.3102,3.3102,3.3102,3.3102,3.3102,3.3102,3.2714,3.24,3.24,3.2003,3.1705,3.1705,3.1705,3.1705,3.1705,3.1705,3.1705,3.1705,3.1705,3.1705,3.1705,3.1705,3.1705,3.1705,3.1705,3.1466,3.0949,3.0901,3.0419,2.9376,2.9328,2.9076,2.8539,2.8526,2.8514,2.8514,2.8522,2.849,2.8471,2.7623,2.6712,2.5756,2.4872,2.3962,2.3091,2.3091,2.3091,2.3091,2.3091,2.3091,2.3101,2.312,2.314,2.3198,0.0,0.0,0.0,0.0,0.0,0.0,0.0,0.0,0.0,0.0,0.0,0.0,0.0,0.0,0.0,0.0,3.6507,3.6507,3.6507,3.643,3.6398,3.6398,3.564,3.5123,3.4861,3.4143,3.3578,3.3178,3.3178,3.2907,3.2322,3.2322,3.2322,3.2322,3.2322,3.2583,3.2985,3.2918,3.2985,3.3087,3.2801,3.2875,3.3161,3.2914,3.3362,3.4032,0.0,3.414,3.5057,3.4621,3.47,3.4894,3.4283,3.4034,3.3886,3.3505,3.3261,3.3102,3.3102,3.3102,3.3102,3.3102,3.3102,3.3102,3.3102,3.3102,3.3102,3.3102,3.2831,3.255,3.241,3.2125,3.1849,3.1705,3.1705,3.1705,3.1705,3.2008,3.2214,3.2214,3.2549,3.2766,3.2766,3.2453,3.2214,3.2214,3.2561,3.2537,3.1985,3.1298,3.0576,2.9845,2.9136,2.8671,2.849,2.849,2.849,2.849,2.849,2.849,2.8471,2.7592,2.7031,2.667,2.5767,2.4872,2.4026,2.4026,2.3669,2.3091,2.3091,2.3091,2.3091,2.3091,2.3091,2.312,0.0,0.0,0.0,0.0,0.0,0.0,0.0,0.0,0.0,0.0,0.0,0.0,0.0,0.0,0.0,0.0,0.0,3.6507,3.6507,3.6507,3.6507,3.6507,3.6053,3.5672,3.5416,3.4944,3.4497,3.4112,3.4112,3.3819,3.3276,3.3276,3.3276,3.3276,3.3276,3.3509,3.391,3.3842,3.4017,3.4301,3.373,3.3856,3.435,3.4059,3.4371,0.0,3.5251,3.5982,3.664,3.5648,3.5558,3.5702,3.4925,3.4343,3.3873,3.3505,3.3261,3.3102,3.3102,3.3102,3.3102,3.3102,3.3102,3.3102,3.3102,3.3102,3.3102,3.3102,3.2896,3.2658,3.254,3.2235,3.1981,3.1959,3.1805,3.1799,3.2059,3.2342,3.2575,3.2755,3.308,3.3284,3.3284,3.3152,3.2984,3.2803,3.3104,3.3056,3.2527,3.1671,3.0853,3.0131,2.9244,2.8703,2.849,2.849,2.849,2.849,2.849,2.849,2.849,2.7926,2.749,2.7153,2.6205,2.5305,2.4477,2.4134,2.3647,2.3091,2.3091,2.3091,2.3091,2.3091,2.3091,2.3091,0.0,0.0,0.0,0.0,0.0,0.0,0.0,0.0,0.0,0.0,0.0,0.0,0.0,0.0,0.0,0.0,0.0,0.0,3.6507,3.6507,3.6507,3.6507,3.6507,3.6164,3.5464,3.5448,3.5108,3.4413,3.4413,3.4396,3.4363,3.4363,3.4363,3.4363,3.4363,3.438,3.4396,3.4213,3.4811,3.5773,3.4232,3.4782,3.641,3.5661,3.5844,3.6628,3.724,3.7853,3.8165,3.6666,3.6151,3.6087,3.5798,3.4814,3.3713,3.3471,3.3283,3.3102,3.3102,3.3102,3.3102,3.3102,3.3102,3.3102,3.3102,3.3102,3.3102,3.3102,3.2896,3.2723,3.2689,3.2332,3.2103,3.2344,3.2003,3.1942,3.2687,3.2651,3.2743,3.326,3.3356,3.3392,3.3392,3.3778,3.3862,3.3404,3.3392,3.3128,3.2575,3.2032,3.1226,3.0143,2.9581,2.9039,2.8522,2.849,2.849,2.849,2.849,2.849,2.849,2.849,2.8059,2.7205,2.6287,2.5368,2.4498,2.356,2.3135,2.3091,2.3091,2.3091,2.3091,2.3091,2.3091,2.3091,0.0,0.0,0.0,0.0,0.0,0.0,0.0,0.0,0.0,0.0,0.0,0.0,0.0,0.0,0.0,0.0,0.0,0.0,3.6507,3.6507,3.6507,3.6507,3.6507,3.6414,3.6211,3.6226,3.6132,3.5943,3.5943,3.5656,3.5124,3.5124,3.5124,3.5124,3.5124,3.5432,3.5927,3.5879,3.5905,3.5944,3.5537,3.5816,3.6492,3.6278,3.6594,3.727,3.7898,3.8242,3.8254,3.7255,3.6821,3.6581,3.5915,3.523,3.4532,3.3839,3.3377,3.3102,3.3102,3.3102,3.3102,3.3102,3.3102,3.3102,3.3102,3.3102,3.3102,3.3102,3.3059,3.2939,3.2745,3.2475,3.2257,3.2125,3.1871,3.191,3.2486,3.2885,3.3272,3.3766,3.4174,3.4414,3.4414,3.4523,3.4547,3.4426,3.4414,3.4042,3.314,3.2575,3.1613,3.0155,2.9581,2.9039,2.8522,2.849,2.849,2.849,2.849,2.849,2.849,2.849,2.8379,2.8119,2.7235,2.6308,2.5411,2.4509,2.3734,2.3091,2.3091,2.3091,2.3091,2.3091,2.3091,2.3091,0.0,0.0,0.0,0.0,0.0,0.0,0.0,0.0,0.0,0.0,0.0,0.0,0.0,0.0,0.0,0.0,0.0,0.0,0.0,3.6507,3.6507,3.6507,3.6507,3.6507,3.6507,3.6507,3.6507,3.6507,3.6507,3.6289,3.5879,3.5879,3.5879,3.5879,3.5879,3.6116,3.6507,3.6507,3.6488,0.0,0.0,3.6611,3.6926,3.7227,3.7539,3.7928,3.8601,3.8841,3.877,3.8324,3.7597,3.6822,3.6379,3.548,3.4483,3.3882,3.3471,3.3219,3.3124,3.3102,3.3102,3.3102,3.3102,3.3102,3.3102,3.3102,3.3102,3.3102,3.3102,3.3047,3.2896,3.2615,3.2366,3.231,3.1981,3.2004,3.2856,3.3173,3.3561,3.427,3.4619,3.4799,3.4799,3.4799,3.4799,3.4799,3.4799,3.445,3.3657,3.3128,3.2214,3.0841,3.0058,2.928,2.8522,2.849,2.849,2.849,2.849,2.849,2.849,2.849,2.849,2.8451,0.0,2.667,2.5725,2.4872,2.395,2.3091,2.3091,2.3091,2.3091,2.3091,2.3091,2.3091,0.0,0.0,0.0,0.0,0.0,0.0,0.0,0.0,0.0,0.0,0.0,0.0,0.0,0.0,0.0,0.0,0.0,0.0,0.0,0.0,3.6507,3.6507,3.6507,3.6507,3.6507,3.6507,3.6507,3.6507,3.6507,3.6507,3.6507,3.6507,3.6507,3.6507,3.6507,3.6507,3.6507,3.6507,3.6641,3.6883,3.6959,3.7153,3.7462,0.0,3.8469,3.8601,3.9182,3.9406,3.9406,3.9406,3.8435,3.7223,3.7107,3.5943,3.4509,3.4016,3.3734,3.3492,3.3197,3.3102,3.3102,3.3102,3.3102,3.3102,3.3102,3.3102,3.3102,3.3102,3.3102,3.3102,3.3102,3.2736,3.2497,3.2636,3.2145,3.218,3.3392,3.3411,3.3669,3.4679,3.4799,3.4799,3.4799,3.4799,3.4799,3.4799,3.4739,3.4462,3.3946,3.3525,3.2778,3.1633,3.0624,2.9617,2.8619,2.8619,2.8563,2.849,2.849,2.849,2.849,2.849,2.849,2.8451,2.745,2.6547,2.5714,2.4723,2.3842,2.3091,2.3091,2.3091,2.3091,2.3091,2.3091,2.3091,0.0,0.0,0.0,0.0,0.0,0.0,0.0,0.0,0.0,0.0,3.9418,3.8808,0.0,0.0,0.0,0.0,0.0,0.0,0.0,0.0,0.0,3.6507,3.6507,3.6507,3.6507,3.6507,3.6507,3.6507,3.6507,3.6507,3.6507,3.6507,3.6507,3.6507,3.6507,3.6507,3.6507,3.6507,3.6365,3.6217,3.6793,3.7153,3.7462,3.8138,0.0,0.0,3.9361,3.9406,3.9406,3.9406,3.921,3.8852,3.8188,3.7596,3.6841,3.5244,3.4622,3.4275,3.3356,3.3102,3.3102,3.3102,3.3102,3.3102,3.3102,3.3102,3.3102,3.3102,3.3102,3.3102,3.3102,3.2853,3.2593,3.2475,3.2169,3.2281,3.322,3.3307,3.3669,3.4679,3.4799,3.4799,3.4799,3.4799,3.4799,3.4799,3.4402,3.3934,3.3452,3.3332,3.2609,3.1081,3.0431,2.9806,2.9172,2.916,2.8943,2.849,2.849,2.849,2.849,2.849,2.849,2.8411,2.6753,0.0,2.5673,2.4026,2.3244,2.3091,2.3091,2.3091,2.3091,2.3091,2.3091,2.3091,0.0,0.0,0.0,0.0,0.0,0.0,0.0,4.0096,4.0096,4.0096,3.9837,3.9444,3.8835,3.8224,3.7752,0.0,0.0,0.0,0.0,0.0,0.0,0.0,3.6507,3.6507,3.6507,3.6507,3.6507,3.6507,0.0,3.6507,3.6507,3.6507,3.6507,3.6507,3.6507,3.6507,3.6507,3.6507,3.6503,3.658,3.72,3.765,3.7988,0.0,0.0,0.0,3.9406,3.9406,3.9406,3.9406,3.9406,3.9265,3.8445,3.7801,3.7035,3.5574,3.5081,3.4767,3.3577,3.3261,3.324,3.3133,3.3102,3.3102,3.3102,3.3102,3.3102,3.3102,3.3102,3.3102,3.3102,3.2874,3.268,3.2571,3.2245,3.2348,3.3336,3.3377,3.3669,3.4679,3.4799,3.4799,3.4799,3.4799,3.4799,3.4799,3.4294,3.3802,3.332,3.2778,3.1984,3.0925,3.0648,3.0263,2.9713,2.9713,2.9581,2.9328,2.9328,2.9184,2.8919,2.8919,2.8775,2.8451,2.758,2.6958,2.6412,2.5052,2.4499,2.4424,2.3474,2.3691,2.4402,2.3452,2.3418,2.3756,0.0,0.0,0.0,0.0,0.0,0.0,0.0,4.0087,4.0096,4.0096,4.0096,3.9931,3.9444,3.8849,3.8449,0.0,0.0,0.0,0.0,0.0,0.0,0.0,0.0,0.0,3.6507,0.0,0.0,3.6507,3.6507,0.0,0.0,0.0,0.0,0.0,3.6507,3.6507,3.6507,3.6507,3.661,0.0,0.0,3.801,3.8272,0.0,0.0,0.0,0.0,3.9406,3.9406,3.9406,3.9406,3.9283,3.8664,3.8004,3.7223,3.6154,3.5715,3.5305,3.4066,3.362,3.342,3.3219,3.3154,3.3154,3.3124,3.3102,3.3102,3.3102,3.3102,3.3102,3.3102,3.2918,3.2766,3.2711,3.2397,3.2491,3.3449,3.3458,3.3716,3.4679,3.4799,3.4799,3.4799,3.4799,3.4751,3.4643,3.4042,3.3513,3.314,3.2212,3.1524,3.1081,3.1069,3.0804,3.0287,3.0275,3.0215,3.0107,3.0107,2.989,2.946,2.946,2.9184,2.8659,2.8466,2.7951,2.7124,2.6184,2.5798,2.5652,2.4231,2.4435,2.5347,2.3918,2.3734,2.4091,0.0,0.0,0.0,0.0,0.0,0.0,0.0,4.0024,4.0096,4.0096,4.0096,4.007,4.002,3.9484,3.8906,0.0,0.0,0.0,0.0,0.0,0.0,0.0,0.0,0.0,0.0,0.0,0.0,3.6507,3.6507,0.0,0.0,0.0,0.0,0.0,0.0,3.6507,3.6507,3.6507,0.0,0.0,0.0,0.0,0.0,0.0,0.0,0.0,0.0,3.9406,3.9406,3.9406,3.9406,3.9388,3.9301,3.9228,3.8962,3.7866,3.7035,3.6233,3.5142,3.4275,3.362,3.342,3.3377,3.3313,3.3133,3.3102,3.3102,3.3102,3.3102,3.3102,3.3102,3.3081,3.2982,3.2745,3.2646,3.2854,3.3495,3.3584,3.3879,3.4703,3.4799,3.4799,3.4799,3.4799,3.4607,3.4102,3.3177,3.2623,3.2575,3.202,3.1681,3.1633,3.1633,3.1358,3.0829,3.0829,3.0576,3.0107,3.0107,3.0062,3.0034,3.0034,2.9725,2.9179,2.8394,2.7734,0.0,2.6184,2.5798,2.5777,2.561,2.5179,2.4595,2.4434,2.3875,2.3222,0.0,0.0,0.0,0.0,0.0,0.0,4.0058,4.0075,4.0096,4.0096,4.0096,4.0096,4.0096,3.9893,3.9657,3.9401,0.0,0.0,0.0,0.0,0.0,0.0,0.0,0.0,0.0,0.0,3.6507,3.6507,3.6507,0.0,0.0,0.0,0.0,0.0,0.0,3.6831,3.6523,3.6754,0.0,0.0,0.0,0.0,0.0,0.0,0.0,0.0,0.0,0.0,3.9406,3.9406,3.9406,3.9406,3.9406,3.9406,3.9228,3.8319,3.7801,3.7199,3.5608,3.4931,3.447,3.362,3.3398,3.3356,3.3154,3.3102,3.3102,3.3102,3.3102,3.3102,3.3102,3.3102,3.3081,3.2961,3.281,3.3008,3.3907,3.3929,3.4148,3.4957,3.5054,3.4981,3.4835,3.4799,3.4462,3.3657,3.2911,3.2358,3.2044,3.1815,3.1705,3.1705,3.1705,3.1609,3.137,3.137,3.1262,3.1057,3.1057,3.0889,3.0576,3.0576,3.0299,2.9752,2.9406,2.8952,0.0,2.7497,2.7231,2.7316,2.6225,2.6246,2.6745,2.537,2.5368,2.583,0.0,0.0,0.0,0.0,0.0,4.01,4.0049,4.0058,4.0096,4.0096,4.0096,4.0096,4.0096,4.0096,4.0096,4.0096,3.9709,0.0,0.0,0.0,0.0,0.0,0.0,0.0,0.0,0.0,3.6507,3.6507,3.6507,3.6507,0.0,0.0,3.6507,3.6538,0.0,0.0,0.0,0.0,0.0,0.0,0.0,0.0,0.0,0.0,0.0,0.0,0.0,0.0,0.0,0.0,0.0,3.9155,3.9331,3.9406,3.9283,3.8719,3.8389,3.7905,3.6523,3.5789,3.5176,3.4129,3.367,3.342,3.3154,3.3102,3.3102,3.3102,3.3102,3.3102,3.3102,3.3102,3.3102,3.3102,3.2939,3.3162,3.4166,3.4168,3.4391,3.5222,3.532,3.5199,3.4945,3.4583,3.4054,3.3344,3.2647,3.2104,3.1729,3.1705,3.1705,3.1705,3.1705,3.1705,3.1705,3.1705,3.1705,3.1705,3.1705,3.1512,3.1129,3.1129,3.0841,3.0347,3.0347,3.0025,0.0,2.8866,2.8757,2.8846,2.7568,2.7672,2.836,2.6767,2.6682,2.7137,0.0,0.0,0.0,0.0,0.0,0.0,3.9926,4.0011,4.0096,4.0096,4.0096,4.0096,4.0096,4.0096,4.0096,4.0096,4.0083,0.0,0.0,0.0,0.0,0.0,0.0,0.0,0.0,0.0,3.6507,3.6507,3.6507,3.6507,3.6507,3.6507,3.6507,3.6538,0.0,0.0,0.0,0.0,0.0,0.0,0.0,0.0,0.0,0.0,0.0,0.0,0.0,0.0,0.0,0.0,0.0,0.0,0.0,3.9406,3.9406,3.9388,3.883,3.8202,3.8183,3.6956,3.5575,3.5102,3.4324,3.3598,3.3197,3.3102,3.3102,3.3102,3.3102,3.3102,3.3102,3.3102,3.3102,3.3102,3.3102,3.337,3.4189,3.4305,3.4622,3.5485,3.5596,3.5488,3.5223,3.4051,3.3308,3.3284,3.2309,3.1717,3.1705,3.1705,3.1705,3.1705,3.1705,3.1705,3.1705,3.1705,3.1705,3.1705,3.1705,3.1705,3.1705,3.1705,3.1404,3.0889,3.0889,3.0588,0.0,3.0086,3.0074,3.0074,3.0062,2.951,2.8696,2.8664,2.7502,2.5913,0.0,0.0,0.0,0.0,0.0,0.0,0.0,4.0058,4.0096,4.0096,4.0096,4.0096,4.0096,4.0096,4.0096,4.0096,4.0096,0.0,0.0,0.0,0.0,0.0,0.0,0.0,0.0,0.0,3.7533,3.7119,3.7533,3.7518,3.7118,3.7533,3.7722,3.7751,3.8268,3.824,0.0,0.0,0.0,0.0,0.0,0.0,3.6163,0.0,0.0,0.0,0.0,0.0,0.0,0.0,0.0,0.0,0.0,0.0,0.0,3.9406,3.921,3.876,3.7615,3.6914,3.6128,3.4511,3.389,3.3598,3.3197,3.3102,3.3102,3.3102,3.3102,3.3102,3.3102,3.3102,3.3102,3.3102,3.3102,3.3436,3.4427,3.4577,3.4911,3.5784,3.5716,3.5425,3.4986,3.4242,3.3634,3.3268,3.2572,3.2103,3.1915,3.1915,3.1849,3.1705,3.1705,3.1705,3.1705,3.1705,3.1705,3.1705,3.1705,3.1705,3.1705,3.1705,3.1621,3.1452,3.1452,3.1129,3.0648,3.0648,3.0431,3.0107,3.0107,2.9513,2.8593,2.8265,2.7775,2.7107,0.0,0.0,0.0,0.0,0.0,0.0,0.0,4.0096,4.0096,4.0096,4.0096,4.0096,4.0096,4.0096,4.0096,4.0096,4.0096,0.0,0.0,0.0,0.0,0.0,0.0,0.0,3.8643,3.8421,3.8124,3.7738,3.8124,3.811,3.7752,3.8124,3.8292,3.832,3.8797,3.8772,0.0,0.0,0.0,0.0,0.0,0.0,3.5549,0.0,0.0,0.0,0.0,0.0,0.0,0.0,0.0,0.0,0.0,0.0,0.0,0.0,3.9406,3.9104,3.7767,3.7088,3.6371,3.4622,3.389,3.3492,3.3176,3.3102,3.3102,3.3102,3.3102,3.3102,3.3102,3.3102,3.3102,3.3102,3.3102,3.3458,3.454,3.4703,3.5059,3.6045,3.5908,3.5554,3.5011,3.4376,3.3777,3.3236,3.2695,3.2322,3.2169,3.2147,3.2081,3.1959,3.1793,3.1739,3.1805,3.1805,3.1871,3.1959,3.1871,3.1805,3.1805,3.1727,3.1705,3.1705,3.1705,3.1524,0.0,3.119,3.0997,3.0696,3.0696,3.0319,2.9724,2.944,2.9105,2.8652,0.0,0.0,0.0,0.0,0.0,0.0,0.0,4.0096,4.0096,4.0096,4.0058,4.0045,4.01,4.0058,4.0045,4.01,0.0,0.0,0.0,0.0,0.0,0.0,0.0,0.0,3.9259,3.8712,3.8404,3.8348,3.8404,3.8404,3.8348,3.8407,3.8404,3.8418,3.8851,3.8922,0.0,0.0,0.0,0.0,0.0,0.0,0.0,0.0,0.0,0.0,0.0,0.0,0.0,0.0,0.0,0.0,0.0,0.0,0.0,0.0,0.0,0.0,0.0,3.7424,3.6332,3.5183,3.415,3.3356,3.3154,3.3102,0.0,3.3102,3.3102,3.3102,3.3102,3.3102,3.3102,3.3102,3.3128,3.353,3.4552,3.4766,3.5215,3.6256,3.6132,3.5766,3.5219,3.4453,3.3773,3.3231,3.2727,3.2431,3.241,3.241,3.241,3.24,3.1981,3.1849,3.2038,3.2038,3.2147,3.2366,3.2125,3.1981,3.1972,3.1783,3.1705,3.1705,3.1705,3.1705,3.1705,3.1705,3.1705,3.1705,3.1705,3.1661,3.1594,3.1594,3.0958,3.009,0.0,0.0,0.0,0.0,0.0,0.0,0.0,0.0,0.0,0.0,3.9696,3.9592,4.0045,3.9696,3.9605,0.0,0.0,0.0,0.0,0.0,0.0,0.0,0.0,0.0,3.9893,3.976,3.9457,3.8987,3.9457,3.9428,3.9001,3.9368,3.9513,3.953,3.9428,3.902,0.0,0.0,0.0,0.0,0.0,0.0,0.0,0.0,0.0,0.0,3.5504,3.5504,0.0,0.0,0.0,0.0,0.0,0.0,0.0,0.0,3.9406,3.9228,3.8408,0.0,3.6174,3.4449,3.3691,3.3356,0.0,3.3102,3.3102,3.3102,3.3102,3.3102,3.3102,3.3102,3.3102,3.3102,3.3454,3.3935,3.4603,3.5441,3.6092,3.638,3.5947,3.5413,3.4863,3.429,3.3695,3.3168,3.3005,3.2844,3.2636,3.2636,3.255,3.24,3.2279,3.2257,3.23,3.23,3.2235,3.2081,3.2038,3.1915,3.1771,3.1705,3.1705,3.1705,3.1705,3.1705,3.1705,3.1705,3.1705,3.1705,3.1705,3.1238,3.0565,3.0565,2.9909,2.905,0.0,0.0,0.0,0.0,0.0,0.0,0.0,0.0,0.0,0.0,0.0,0.0,0.0,0.0,0.0,0.0,0.0,0.0,0.0,0.0,0.0,0.0,0.0,4.0096,4.0096,4.0096,3.9944,3.9618,3.9944,3.9931,3.9631,3.9867,3.9948,3.9875,3.9305,3.8939,0.0,0.0,0.0,0.0,3.5877,0.0,0.0,0.0,0.0,0.0,3.5504,3.5504,0.0,3.5504,3.5953,3.6613,0.0,0.0,0.0,0.0,3.9406,3.921,3.8315,3.7256,3.6081,3.4643,3.3776,3.324,3.3124,3.3102,3.3102,3.3102,3.3102,3.3102,3.3102,3.3102,3.3178,3.3442,3.3709,3.4173,3.4966,3.583,3.6405,3.6405,3.5881,3.5282,3.4753,3.4223,3.3671,3.314,3.3102,3.3038,3.2896,3.2874,3.2831,3.2714,3.2714,3.2671,3.254,3.254,3.254,3.2484,3.2376,3.2223,3.2025,3.1893,3.1783,3.1705,3.1705,3.1705,3.1705,3.1705,3.1705,3.1705,3.1705,3.1383,3.0891,3.0891,3.0543,3.0079,0.0,0.0,0.0,0.0,0.0,0.0,0.0,0.0,0.0,0.0,0.0,0.0,0.0,0.0,0.0,0.0,0.0,0.0,0.0,0.0,0.0,0.0,4.0096,4.0096,4.0096,4.0096,4.0096,4.0096,4.0087,4.0075,4.0075,4.0037,3.9935,3.9768,3.899,3.8868,0.0,0.0,0.0,0.0,3.6021,0.0,0.0,0.0,0.0,0.0,0.0,0.0,0.0,3.5504,3.5953,3.6613,3.721,0.0,0.0,0.0,0.0,0.0,3.83,3.7146,3.5954,3.5163,3.4121,3.3261,3.3133,3.3102,3.3102,3.3102,3.3102,3.3102,3.3102,3.3102,3.3278,3.3809,3.4035,3.4477,3.5506,3.6069,3.638,3.6268,3.5732,3.518,3.4628,3.4098,3.3583,3.3128,3.3102,3.3102,3.3102,3.3014,3.2964,3.2964,3.2964,3.2857,3.263,3.2717,3.2853,3.3038,3.281,3.2571,3.2322,3.2103,3.1893,3.1705,0.0,0.0,3.1705,3.1705,3.1705,3.1705,3.1705,3.1705,3.1705,3.1705,3.1705,3.1705,0.0,0.0,0.0,0.0,0.0,0.0,0.0,0.0,0.0,0.0,0.0,0.0,0.0,0.0,0.0,0.0,0.0,0.0,0.0,0.0,0.0,4.0096,4.0096,4.0096,4.0096,4.0096,4.0096,4.0096,3.9986,3.9939,3.9926,3.9694,3.9524,3.9392,3.9242,3.9215,3.9202,0.0,0.0,0.0,3.6021,0.0,0.0,0.0,0.0,0.0,0.0,0.0,0.0,3.5504,3.5953,3.6613,3.721,0.0,0.0,0.0,0.0,0.0,3.8962,3.7453,3.5755,3.4957,3.4468,3.4,3.3261,3.3102,3.3102,3.3102,3.3102,3.3102,3.3102,3.3102,3.3278,3.3809,3.4653,3.5493,3.6168,3.6331,3.6218,3.5707,3.5167,3.4603,3.4073,3.3533,3.319,3.3102,3.3102,3.3102,3.3102,3.2616,3.234,3.234,3.234,3.2319,3.2277,3.2787,3.2939,3.2754,3.2723,3.2484,3.206,3.2016,3.1893,3.1705,0.0,3.1705,3.1705,3.1705,3.1705,3.1705,3.1705,3.1705,3.1705,3.1705,3.1705,3.1705,0.0,0.0,0.0,0.0,0.0,0.0,0.0,0.0,0.0,0.0,0.0,0.0,0.0,0.0,0.0,0.0,0.0,0.0,0.0,0.0,4.0096,4.0096,4.0096,4.0096,4.0096,4.0096,4.0058,3.9986,3.9939,3.9862,3.9781,3.959,3.9475,3.9365,3.8606,3.8664,3.9161,3.7207,3.6769,0.0,0.0,0.0,0.0,0.0,0.0,0.0,0.0,0.0,0.0,0.0,3.5953,3.6613,3.721,0.0,0.0,0.0,0.0,0.0,3.883,3.771,3.6371,3.542,3.4434,3.359,3.3188,3.3102,3.3102,3.3102,3.3341,3.352,3.352,3.3771,3.4148,3.4678,3.5466,3.6069,3.6367,3.613,3.5807,3.552,3.4778,3.4173,3.3922,3.3416,3.3102,3.3102,3.3102,3.2964,3.2629,3.2353,3.2077,3.1775,3.1763,3.1913,3.2194,3.2478,3.2724,3.2918,3.2918,3.2658,3.2213,3.2213,3.2025,3.1705,0.0,3.1705,3.1705,3.1705,3.1705,3.1705,3.1705,3.1705,3.1705,3.1705,3.1705,3.1705,0.0,0.0,0.0,0.0,0.0,0.0,0.0,0.0,0.0,0.0,0.0,0.0,0.0,0.0,0.0,0.0,0.0,0.0,0.0,0.0,4.0096,4.0096,4.0096,4.0096,4.0096,4.0096,4.0037,3.9901,3.9875,3.9772,3.9599,3.9498,3.9445,3.9392,3.8153,3.8153,3.8928,3.6662,3.6274,0.0,0.0,0.0,0.0,0.0,0.0,0.0,0.0,0.0,0.0,0.0,0.0,0.0,0.0,0.0,0.0,3.901,3.9068,3.8943,3.859,3.782,3.6933,3.6108,3.4635,3.3347,3.3145,3.3203,3.3291,3.3291,3.3709,3.4085,3.4085,3.4527,3.5029,3.5433,3.6006,3.6405,3.6405,3.5893,3.5445,3.532,3.4477,3.3847,3.3721,3.3341,3.3102,3.3102,3.3102,3.2901,3.2441,3.229,3.1951,3.1432,3.1406,3.1599,3.2014,3.2152,3.2503,3.3102,3.3102,3.2844,3.24,3.24,3.2135,3.1705,3.1705,3.1705,3.1705,3.1705,3.1705,3.1705,3.1705,3.1705,3.1705,3.1705,3.1705,3.1705,0.0,0.0,0.0,0.0,0.0,0.0,0.0,0.0,0.0,0.0,0.0,0.0,0.0,0.0,0.0,0.0,0.0,0.0,0.0,0.0,4.0096,4.0096,4.0096,4.0096,4.0096,4.0096,4.0037,3.9901,3.9785,3.9573,3.9325,3.9312,3.9312,3.9285,3.8562,3.8294,3.8278,3.6905,3.6383,3.6414,3.5765,0.0,0.0,0.0,0.0,0.0,0.0,0.0,0.0,0.0,0.0,0.0,0.0,0.0,3.9295,3.9144,3.8962,3.8764,3.8571,3.772,3.6903,3.6839,3.5548,3.4084,3.3283,3.3492,3.3847,3.3847,3.4274,3.464,3.464,3.5069,3.5458,3.5495,3.6006,3.6405,3.6405,3.5893,3.5307,3.4828,3.4261,3.3696,3.3203,3.3128,3.3102,3.3102,3.3102,3.3077,3.304,3.2503,3.1951,3.1432,3.1406,3.1432,3.1469,3.1951,3.2503,3.3102,3.3102,3.2844,3.24,3.24,3.2135,3.1705,3.1705,3.1705,3.1705,3.1705,3.1705,3.1705,3.1705,3.1705,3.1705,3.1705,3.1705,3.1705,0.0,0.0,0.0,0.0,0.0,0.0,0.0,0.0,0.0,0.0,0.0,0.0,0.0,0.0,0.0,0.0,0.0,0.0,0.0,4.0062,4.0096,4.0096,4.0096,4.0062,3.999,3.999,3.991,3.9785,3.9563,3.9405,3.9299,3.9299,3.9299,3.9258,3.8212,3.7951,3.8193,3.6538,3.6053,3.6337,3.5733,0.0,0.0,0.0,0.0,0.0,0.0,0.0,0.0,0.0,3.6686,3.7462,3.7883,3.8661,3.9337,3.8998,3.887,3.8741,3.8389,3.7232,3.6221,3.6766,3.5649,3.4405,3.4405,3.4564,3.4648,3.4435,3.4828,3.5318,3.5703,3.5906,3.6056,3.6056,3.6243,3.6268,3.5893,3.5355,3.4803,3.4274,3.3721,3.3329,3.3115,3.3102,3.3102,3.3102,3.3102,3.2939,3.2554,3.2307,3.1951,3.1432,3.1406,3.1549,3.1901,3.2102,3.2503,3.3102,3.3102,3.2844,3.24,3.24,3.2135,3.1705,3.1705,3.1705,3.1705,3.1705,3.1705,3.1705,3.1705,3.1705,3.1705,3.1705,3.1705,3.1743,0.0,0.0,0.0,0.0,0.0,0.0,0.0,0.0,0.0,0.0,0.0,0.0,0.0,0.0,0.0,0.0,0.0,0.0,3.9849,4.0011,4.0058,3.9969,4.0024,3.9973,3.9849,3.9798,3.9733,3.9642,3.9418,3.9299,3.9299,3.9299,3.9299,3.9245,3.7967,3.7618,3.7908,3.6227,3.5733,3.6085,3.5667,3.5504,0.0,0.0,0.0,0.0,0.0,0.0,0.0,0.0,3.703,3.7808,3.826,3.8856,3.9319,3.8925,3.8601,3.829,3.7891,3.6922,3.6088,3.6419,3.5836,3.5239,3.5406,3.5448,3.537,3.5009,3.5393,3.5918,3.6306,3.6405,3.6405,3.6405,3.6405,3.6193,3.5571,3.5042,3.449,3.396,3.3442,3.3102,3.3102,3.3102,3.3102,3.3102,3.3102,3.2927,3.2503,3.2491,3.2227,3.1675,3.165,3.1838,3.2194,3.2194,3.2503,3.3102,3.3102,3.2844,3.24,3.24,3.2135,3.1705,3.1705,3.1705,3.1705,3.1705,3.1705,3.1705,3.1705,3.1705,3.1705,3.1705,3.1705,3.1767,0.0,0.0,0.0,0.0,0.0,0.0,0.0,0.0,0.0,0.0,0.0,0.0,0.0,0.0,0.0,0.0,0.0,0.0,3.9703,3.9961,3.9969,3.9716,3.9836,3.9836,3.9703,3.9563,3.9501,3.9501,3.9365,3.9299,3.9299,3.9299,3.9299,3.9245,3.7967,3.7399,3.7325,3.6037,3.5504,3.5504,3.5504,3.5504,3.5504,0.0,0.0,0.0,0.0,0.0,0.0,0.0,3.7362,3.8409,3.8424,3.8871,3.9319,3.8925,3.8196,3.7429,3.7019,3.6897,3.6688,3.5829,3.6261,3.6718,3.6128,3.6013,3.5932,3.559,3.5981,3.6405,3.6405,3.6405,3.6405,3.6405,3.6405,3.618,3.5571,3.5042,3.449,3.396,3.3429,3.3102,3.3102,3.3102,3.3102,3.3102,3.3102,3.3102,3.3102,3.3102,3.2839,3.224,3.2206,3.2206,3.2206,3.2206,3.2503,3.3102,3.3102,3.2844,3.24,3.24,3.2135,3.1705,3.1705,3.1705,3.1705,3.1705,3.1705,3.1705,3.1705,3.1705,3.1705,3.1705,3.1705,3.1779,0.0,0.0,0.0,0.0,0.0,0.0,0.0,0.0,0.0,0.0,0.0,0.0,0.0,0.0,0.0,0.0,0.0,0.0,3.955,3.9716,3.9777,3.9703,3.9742,3.9707,3.955,3.9418,3.9352,3.9352,3.9312,3.9299,3.9299,3.9299,3.9299,3.9245,3.7967,3.7399,3.7325,3.6037,3.5504,3.5504,3.5504,3.5504,3.5504,0.0,0.0,0.0,0.0,0.0,0.0,0.0,0.0,0.0,3.896,3.9242,3.9337,3.9086,3.8727,3.836,3.8094,3.7039,3.6068,3.6419,3.5816,3.5284,3.5861,3.6513,3.7009,3.7101,3.6748,3.6405,3.6405,3.6405,3.6405,3.6405,3.6031,3.5569,3.5029,3.4477,3.3935,3.3404,3.3203,3.3102,3.3102,3.3102,3.3102,3.3102,3.3102,3.3102,3.3102,3.3102,3.3027,3.2851,3.2839,3.2839,3.2839,3.2839,3.2927,3.3102,3.3102,3.2844,3.24,3.24,3.2135,3.1705,3.1705,3.1705,3.1705,3.1705,3.1705,3.1705,3.1705,3.1705,3.1705,3.1705,3.1936,3.2357,0.0,0.0,0.0,0.0,0.0,0.0,0.0,0.0,0.0,0.0,3.8717,0.0,0.0,0.0,0.0,0.0,0.0,0.0,0.0,3.9603,3.9651,3.9547,3.9586,3.9563,3.9418,3.9339,3.9299,3.9299,3.9299,3.9161,3.8912,3.9175,3.9161,3.8857,3.7852,3.7399,3.7325,3.6305,3.5717,3.5521,3.5765,3.5701,3.5504,0.0,0.0,0.0,0.0,0.0,0.0,0.0,0.0,0.0,3.9272,3.9406,3.9337,3.9068,3.8653,3.8215,3.7929,3.7019,3.6148,3.634,3.5876,3.5546,3.6106,3.6625,3.7035,3.7219,3.6792,3.6405,3.6405,3.6405,3.6306,3.6069,3.5744,3.5232,3.4477,3.411,3.3696,3.3165,3.3102,3.3102,3.3102,3.3102,3.3102,3.3102,3.3102,3.3102,3.3102,3.3102,3.3102,3.3102,3.3102,3.3102,3.3102,3.3102,3.3102,3.3102,3.3102,3.2844,3.24,3.24,3.2135,3.1705,3.1705,3.1705,3.1705,3.1705,3.1705,3.1705,3.1705,3.1705,3.1741,3.1936,3.2214,3.2599,0.0,0.0,0.0,0.0,0.0,0.0,0.0,0.0,0.0,0.0,3.8717,3.8562,0.0,0.0,0.0,0.0,0.0,0.0,0.0,0.0,3.9547,3.9312,3.9422,3.9418,3.9299,3.9299,3.9272,3.9202,3.9202,3.8898,3.8306,3.8871,3.8802,3.8179,3.7575,3.731,3.728,3.6662,3.6053,3.5538,3.6148,3.6037,3.5504,3.5504,0.0,0.0,0.0,0.0,0.0,0.0,0.0,0.0,3.9406,3.9406,3.9319,3.8962,3.8271,3.7544,3.7174,3.6995,3.6708,3.5929,3.6243,3.6694,3.6497,3.6343,3.6277,3.6371,3.6301,3.6243,3.6243,3.6243,3.608,3.5531,3.5382,3.5017,3.4035,3.3859,3.3655,3.3153,3.3102,3.3102,3.3102,3.3102,3.3102,3.3102,3.3102,3.3102,3.3102,3.3102,3.3102,3.3102,3.3102,3.3102,3.3102,3.3102,3.3102,3.3102,3.3102,3.2844,3.24,3.24,3.2135,3.1705,3.1705,3.1705,3.1705,3.1705,3.1705,3.1705,3.1705,3.1741,3.1827,3.231,3.2563,3.2779,0.0,0.0,0.0,0.0,0.0,0.0,0.0,0.0,0.0,0.0,0.0,0.0,0.0,0.0,0.0,0.0,0.0,0.0,0.0,0.0,3.9365,3.9299,3.9325,3.9325,3.9299,3.9299,3.9037,3.8521,3.8521,3.8435,3.8292,3.7967,3.7736,3.756,3.6921,3.6615,3.66,3.6461,3.6053,3.5538,3.6148,3.6037,3.5504,3.5504,3.5504,0.0,0.0,0.0,0.0,0.0,0.0,0.0,3.9406,3.9406,3.9388,3.9301,3.8907,3.8509,3.8416,3.7668,3.6844,3.6669,3.6096,3.5544,3.5508,3.5284,3.5257,3.6005,3.5583,3.5077,3.5077,3.5077,3.5017,3.4891,3.4515,3.4173,3.3935,3.3533,3.3228,3.3115,3.3102,3.3102,3.3102,3.3102,3.3102,3.3102,3.3102,3.3102,3.3102,3.3102,3.3102,3.3102,3.3102,3.3102,3.3102,3.3102,3.3102,3.3102,3.3102,3.2844,3.24,3.24,3.2135,3.1705,3.1705,3.1705,3.1705,3.1705,3.1705,3.1705,3.1705,3.196,3.2334,3.2454,3.2997,3.3717,0.0,0.0,0.0,0.0,0.0,0.0,0.0,0.0,0.0,0.0,0.0,0.0,0.0,0.0,0.0,0.0,0.0,0.0,0.0,0.0,3.9299,3.9299,3.9299,3.9299,3.9299,3.8996,3.8645,3.8292,3.7691,3.7383,3.7383,3.7399,3.7236,3.6921,3.6569,3.6399,3.6399,3.6399,3.6053,3.5538,3.6148,3.6037,3.5504,3.5504,3.5699,3.6058,3.6701,0.0,0.0,0.0,0.0,0.0,0.0,0.0,3.9388,3.9283,3.905,3.8778,3.8686,3.8113,3.7529,3.7529,3.6754,3.6022,3.6022,3.556,3.5255,3.5772,3.5235,3.4703,3.4703,3.4703,3.4615,3.4374,3.4085,3.3809,3.3545,3.3278,3.3102,3.3102,3.3102,3.3102,3.3102,3.3102,3.3102,3.3102,3.3102,3.3102,3.3102,3.3102,3.3102,3.3102,3.3102,3.3102,3.3102,3.3102,3.3102,3.3102,3.3102,3.2844,3.24,3.2169,3.1937,3.1705,3.1705,3.1705,3.1705,3.1705,3.1705,3.1705,3.1705,3.2032,3.2527,3.2791,3.3368,3.403,0.0,0.0,0.0,0.0,0.0,0.0,0.0,0.0,0.0,0.0,0.0,0.0,0.0,0.0,0.0,0.0,0.0,0.0,0.0,0.0,0.0,3.9299,3.9299,3.9299,3.9299,3.8632,3.825,3.8137,3.6966,3.6337,3.6258,3.6814,3.6784,3.6243,3.6243,3.6243,3.6258,3.6352,3.6053,3.5538,3.6148,3.6037,3.5519,3.5624,3.6013,3.6598,3.7315,3.7928,3.8497,3.9167,0.0,0.0,0.0,0.0,3.9355,3.9195,3.8998,3.8815,3.8645,3.8441,3.824,3.8202,3.7548,3.6897,3.6897,3.6241,3.5595,3.5595,3.5082,3.466,3.466,3.4526,3.4286,3.3834,3.3759,3.3617,3.3165,3.3102,3.3102,3.3102,3.3102,3.3102,3.3102,3.3102,3.3102,3.3102,3.3102,3.3102,3.3102,3.3102,3.3102,3.3102,3.3102,3.3102,3.3102,3.3102,3.3102,3.3102,3.3016,3.2779,3.2366,3.1915,3.1705,3.1705,3.1705,3.1705,3.1705,3.1705,3.1705,3.1717,3.1791,3.2164,3.2695,3.3224,3.3717,3.4186,0.0,0.0,0.0,0.0,0.0,0.0,0.0,0.0,0.0,0.0,3.9215,3.9188,0.0,0.0,0.0,0.0,0.0,0.0,3.9299,0.0,0.0,3.9299,3.9299,3.9299,3.9299,3.8632,3.8037,3.7532,3.6769,3.6132,3.5619,3.5716,3.5716,3.5619,3.5619,3.5619,3.5651,3.618,3.6053,3.5538,3.6148,3.6037,3.5564,3.6148,3.6434,3.6658,3.7841,3.8317,3.8497,3.9167,3.9406,0.0,0.0,0.0,3.9388,3.9355,3.9228,3.905,3.9031,3.8756,3.8422,3.824,3.7548,3.6897,3.6897,3.6241,3.5595,3.5595,3.4995,3.4443,3.4443,3.3819,3.3291,3.3228,3.3203,3.3178,3.3102,3.3102,3.3102,3.3102,3.3102,3.3102,3.3102,3.3102,3.3102,3.3102,3.3102,3.3102,3.3102,3.3102,3.3102,3.3102,3.3102,3.3102,3.3102,3.3102,3.3102,3.3102,3.2692,3.2466,3.2366,3.1915,3.1705,3.1705,3.1705,3.1705,3.1705,3.1705,3.1705,3.1753,3.2224,3.2719,3.3248,3.373,3.4246,3.4703,0.0,0.0,0.0,0.0,0.0,0.0,0.0,0.0,0.0,0.0,0.0,3.9299,0.0,0.0,0.0,3.9299,3.9299,3.9299,3.9299,3.9299,3.9299,3.9299,3.9299,3.9121,3.8745,3.8124,3.7472,3.6829,3.6211,3.5765,3.5504,3.5504,3.5504,3.5504,3.5504,3.5504,3.5521,3.5781,3.5733,3.5521,3.5797,3.5959,3.6088,3.6389,3.6943,3.7646,3.82,3.8631,3.902,3.9302,3.9406,3.9406,3.9406,0.0,0.0,0.0,3.9265,3.905,3.883,3.8627,3.8441,3.824,3.7905,3.7625,3.7625,3.7342,3.7058,3.7058,3.6393,3.5635,3.5169,3.4759,3.4358,3.3894,3.3823,3.3654,3.3167,3.3102,3.3102,3.3102,3.3102,3.3102,3.3102,3.3102,3.3102,3.3102,3.3102,3.3102,3.3102,3.3102,3.3102,3.3102,3.3102,3.3102,3.3102,3.3102,3.3102,3.3102,3.2745,3.2571,3.255,3.2069,3.1805,3.1705,3.1705,3.1705,3.1705,3.1705,3.1875,3.2176,3.2406,3.2996,3.3717,3.391,3.4342,3.4799,0.0,0.0,0.0,0.0,0.0,0.0,0.0,0.0,0.0,0.0,0.0,0.0,0.0,0.0,0.0,0.0,3.9299,3.9299,3.9299,3.9299,3.9299,3.9299,3.9148,3.8799,3.8322,3.7531,3.689,3.6399,3.5797,3.5504,3.5504,3.5504,3.5504,3.5504,3.5504,3.5504,3.5504,3.5504,3.5504,3.5519,3.5684,3.6043,3.6538,3.6868,3.7571,3.8424,3.8586,3.899,3.9406,3.9406,3.9406,3.9406,3.9406,3.9406,0.0,0.0,0.0,3.9104,3.8756,3.8645,3.859,3.8348,3.8277,3.8258,3.8202,3.8202,3.8202,3.8202,3.7682,3.7019,3.6385,3.5895,3.5406,3.4793,3.453,3.4168,3.3505,3.324,3.3102,3.3102,3.3102,3.3102,3.3102,3.3102,3.3102,3.3102,3.3102,3.3102,3.3102,3.3102,3.3102,3.3102,3.3102,3.3102,3.3102,3.3102,3.3102,3.3102,3.2831,3.2689,3.2689,3.2201,3.1915,3.1771,3.1705,3.1705,3.1705,3.1705,3.202,3.2515,3.2647,3.3225,3.4006,3.4138,3.4462,3.4799,0.0,0.0,0.0,0.0,0.0,0.0,0.0,0.0,0.0,0.0,0.0,0.0,3.9299,3.9299,3.9299,3.9299,3.9299,3.9299,3.9299,3.9299,3.9299,3.9299,3.8703,0.0,3.8292,3.7086,3.643,3.6399,3.5797,3.5504,3.5504,3.5504,3.5504,3.5504,3.5504,3.5504,3.5504,3.5504,3.5504,3.5564,3.6194,3.6479,3.6628,3.7841,3.835,3.8484,3.9107,3.9376,3.9406,3.9406,3.9406,3.9406,3.9406,3.9406,3.9406,0.0,0.0,0.0,3.9123,3.9068,3.8977,3.859,3.8478,3.8422,3.824,3.8202,3.8202,3.8202,3.8165,3.8127,3.8075,3.6699,3.5595,3.5534,3.4896,3.4377,3.4335,3.3611,3.3102,3.3102,3.3102,3.3102,3.3102,3.3102,3.3102,3.3102,3.3102,3.3102,3.3102,3.3102,3.3102,3.3102,3.3102,3.3102,3.3102,3.3102,3.3102,3.3102,3.2831,3.2689,3.2689,3.2201,3.1981,3.1972,3.1771,3.1705,3.1705,3.1705,3.202,3.2551,3.3056,3.3549,3.4054,3.4571,3.4787,3.4799,0.0,0.0,0.0,0.0,0.0,0.0,0.0,0.0,0.0,0.0,0.0,0.0,0.0,4.0266,4.0023,4.0005,4.0023,4.0015,4.0017,4.0011,3.96,3.8706,3.8435,3.7923,3.7101,3.6631,3.6211,3.5814,3.5603,3.5504,3.5504,3.5504,3.5504,3.5504,3.5504,3.5744,3.6133,3.6133,3.6372,3.6746,3.6985,3.733,3.7781,3.823,3.8661,3.9062,3.9316,3.9406,3.9406,3.9406,3.9406,3.9406,3.9406,3.9406,3.9406,3.9406,3.9406,3.9355,3.9141,3.9104,3.9017,3.876,3.8608,3.8478,3.8404,3.8385,3.8385,3.8385,3.8501,3.8557,3.8422,3.7777,3.7097,3.6517,3.6195,3.5629,3.4551,3.4126,3.3738,3.3167,3.3102,3.3102,3.3102,3.3102,3.3102,3.3102,3.3102,3.3102,3.3102,3.3102,3.3102,3.3102,3.3102,3.3102,3.3102,3.3102,3.3102,3.3102,3.3004,3.2961,3.2939,3.2475,3.2257,3.2235,3.2003,3.1893,3.1918,3.2447,3.2977,3.3503,3.3853,3.4327,3.4763,3.4775,3.4799,3.4799,0.0,0.0,0.0,0.0,0.0,0.0,0.0,0.0,0.0,4.1394,0.0,0.0,0.0,0.0,4.0404,4.0403,4.0388,4.0393,4.0404,4.0395,3.9784,3.8353,3.8108,3.7487,3.643,3.6196,3.5894,3.5504,3.5504,3.5504,3.5504,3.5504,3.5624,3.5833,3.5833,3.6073,3.6508,3.6733,3.703,3.7417,3.7659,3.8003,3.8424,3.8646,3.902,3.9406,3.9406,3.9406,3.9406,3.9406,3.9406,3.9406,3.9406,3.9406,3.9406,3.9406,3.9406,3.9355,3.9247,3.9195,3.9141,3.8943,3.8797,3.8664,3.8534,3.8553,3.859,3.8516,3.8649,3.8745,3.8631,3.8501,3.8169,3.7438,3.7092,3.6511,3.5406,3.4758,3.4189,3.3611,3.3283,3.3102,3.3102,3.3102,3.3102,3.3102,3.3102,3.3102,3.3102,3.3102,3.3102,3.3102,3.3102,3.3102,3.3102,3.3102,3.3102,3.3102,3.3102,3.3102,3.3102,3.2692,3.2497,3.2497,3.231,3.2255,3.2317,3.2928,3.3629,3.4294,3.4357,3.4773,3.5295,3.503,3.492,3.492,0.0,0.0,0.0,0.0,0.0,0.0,0.0,0.0,4.1461,4.1461,0.0,0.0,0.0,0.0,0.0,4.0409,4.0409,4.0399,4.0398,4.0373,3.9745,3.8329,3.7693,3.7056,3.6383,3.5797,3.5504,3.5504,3.5504,3.5504,3.5504,3.5504,3.5863,3.6508,3.6523,3.6538,3.6598,3.718,3.7449,3.7524,3.8167,3.8422,3.8497,3.9152,3.9406,3.9388,3.9406,3.9406,3.9406,3.9406,3.9406,3.9406,3.9406,3.9406,3.9406,3.9406,3.9406,3.9406,0.0,0.0,0.0,3.9159,3.9104,3.8995,3.8608,3.8668,3.8745,3.8553,3.8668,3.8819,3.88,3.88,3.8671,3.8277,3.751,3.6936,3.6903,3.5487,3.4439,3.4439,3.3654,3.3124,3.3145,3.3124,3.3102,3.3102,3.3102,3.3102,3.3102,3.3102,3.3102,3.3102,3.3102,3.3102,3.3102,3.3102,3.3102,3.3102,3.3102,3.3102,3.3102,3.2831,3.2689,3.2689,3.2714,3.2771,3.2883,3.3144,3.3873,3.4786,3.4539,3.4916,3.5572,3.5295,3.5199,3.5199,0.0,0.0,0.0,0.0,0.0,4.3,4.3,4.3,4.3,0.0,0.0,0.0,4.2324,4.1198,4.048,4.048,4.048,4.0446,4.0399,3.9949,3.9069,3.7701,3.7017,3.6399,3.5765,3.5602,3.5504,3.5504,3.5504,3.5504,3.5504,3.5504,3.5863,3.6523,3.6956,3.7419,3.7901,3.8048,3.8407,3.8853,3.9047,3.9035,3.8942,3.9262,3.9301,3.9195,3.9337,3.9406,3.9406,3.9406,3.9406,3.9406,3.9406,3.9406,3.9406,3.9406,3.9406,3.9406,3.9406,0.0,0.0,0.0,0.0,0.0,3.8958,3.8977,3.8998,3.894,3.9086,3.9177,3.905,3.9017,3.8925,3.8686,3.83,3.7834,3.7218,3.6049,3.5278,3.5278,3.3974,3.3347,3.3992,3.3475,3.3102,3.3102,3.3102,3.3102,3.3102,3.3102,3.3102,3.3102,3.3102,3.3102,3.3102,3.3102,3.3102,3.3102,3.3102,3.3102,3.3102,3.2831,3.2689,3.2714,3.3111,3.3541,3.3981,3.4195,3.4686,3.5324,3.5476,3.5688,3.5872,3.5596,3.538,3.5223,0.0,0.0,0.0,0.0,0.0,4.3598,4.3598,4.3355,4.3189,0.0,0.0,0.0,4.1803,4.0991,4.0495,4.0495,4.0495,4.0476,4.0401,4.0024,3.9077,3.7477,3.7029,3.6391,3.5519,3.5504,3.5504,3.5504,3.5504,3.5504,3.5504,3.5504,3.5998,3.6881,3.724,3.7943,3.8826,3.8826,3.9032,3.9388,3.9301,3.9247,3.9228,3.9159,3.9177,3.9228,3.9265,3.9319,3.9406,3.9406,3.9406,3.9406,3.9406,3.9406,3.9406,3.9406,3.9406,3.9406,3.9406,3.9406,3.9406,3.9406,0.0,0.0,3.8998,3.9104,3.9177,3.8998,3.9195,3.9355,3.9247,3.9228,3.9177,3.9068,3.8797,3.8427,3.7838,3.683,3.6128,3.6128,3.4669,3.3844,3.4356,3.3611,3.3102,3.3102,3.3102,3.3102,3.3102,3.3102,3.3102,3.3102,3.3102,3.3102,3.3102,3.3102,3.3102,3.3102,3.3102,3.3102,3.309,3.2939,3.2874,3.2899,3.3427,3.3988,3.4547,3.4886,3.5368,3.5871,3.5974,3.6074,3.6146,3.586,3.5668,3.5572,0.0,0.0,4.3372,4.3372,4.3372,4.3372,4.3372,4.285,4.2491,0.0,4.1836,4.116,4.0564,4.0426,4.0389,4.0389,4.0389,4.0353,4.0284,4.0223,3.9385,3.7594,3.7378,3.6768,3.564,3.5549,3.5504,3.5504,3.5488,3.5488,3.5504,3.5455,3.6143,3.7387,3.7353,3.81,3.9355,3.9355,3.9337,3.9319,3.9159,3.921,3.9319,3.8962,3.9068,3.9337,3.9177,3.9247,3.9406,3.9406,3.9406,3.9406,3.9406,3.9406,3.9406,3.9406,3.9406,3.9406,3.9406,3.9406,3.9406,3.9406,3.9406,0.0,3.8943,3.9141,3.9301,3.8943,3.9141,3.9406,3.9406,3.9406,3.9406,3.9406,3.9068,3.8741,3.8571,3.7587,3.6936,3.7033,3.5487,3.4439,3.4509,3.3675,3.3102,3.3102,3.3102,3.3102,3.3102,3.3102,3.3102,3.3102,3.3102,3.3102,3.3102,3.3102,3.3102,3.3102,3.3102,3.3102,3.3102,3.3102,3.3128,3.3228,3.3759,3.4276,3.4828,3.5393,3.5931,3.6381,3.6146,3.6193,3.6358,3.6122,3.6039,3.5992,0.0,4.1917,4.1917,4.1917,4.1917,4.1917,4.1917,4.1803,4.1705,4.1705,4.1126,4.065,4.0512,3.9968,3.961,3.961,3.961,3.9618,3.9592,3.9098,3.8622,3.8211,3.7218,3.6567,3.6314,3.5774,3.5504,3.5504,3.5343,3.5343,3.5488,3.5164,3.588,3.7402,3.7124,3.7813,3.9159,3.9159,3.9068,3.8925,3.905,3.9123,3.9141,3.9068,3.9086,3.9159,3.9301,3.9355,3.9406,3.9406,3.9406,3.9406,3.9406,3.9406,3.9406,3.9406,3.9406,3.9406,3.9406,3.9406,3.9406,3.9406,3.9406,0.0,3.9301,3.9337,3.9388,3.9301,3.9337,3.9406,3.9406,3.9406,3.9406,3.9406,3.9068,3.8797,3.876,3.7668,3.715,3.7867,3.585,3.4641,3.5285,3.3995,3.3102,3.3102,3.3102,3.3102,3.3102,3.3102,3.3102,3.3102,3.3102,3.3102,3.3102,3.3102,3.3102,3.3102,3.3102,3.3102,3.3102,3.3102,3.3341,3.3771,3.4324,3.4853,3.5382,3.5981,3.6281,3.6381,3.6346,3.6346,3.6381,3.6346,3.6193,3.6039,4.099,4.1272,4.1509,4.1509,4.1509,4.1509,4.1509,4.121,4.1008,4.1008,4.0391,3.995,3.995,3.961,3.9406,3.9406,3.9406,3.9406,3.9406,3.9077,3.8751,3.8424,3.7396,3.6688,3.636,3.5687,3.5294,3.5197,3.5197,3.5197,3.5197,3.5098,3.5618,3.6669,3.6993,3.7656,3.8532,3.8934,3.905,3.8943,3.8943,3.8943,3.8943,3.8848,3.8922,3.9104,3.921,3.9301,3.9406,3.9406,3.9406,3.9406,3.9406,3.9406,3.9406,3.9406,3.9406,3.9406,3.9406,3.9406,3.9406,3.9406,3.9406,0.0,0.0,3.9319,3.9355,3.9265,3.9319,3.9406,3.9406,3.9406,3.9406,3.9406,3.9141,3.8943,3.8943,3.8136,3.7548,3.7548,3.6042,3.5006,3.5006,3.3839,3.3102,3.3102,3.3102,3.3102,3.3102,3.3102,3.3102,3.3102,3.3102,3.3102,3.3102,3.3102,3.3102,3.3102,3.3102,3.3102,3.3102,3.3102,3.3404,3.3935,3.4465,3.5017,3.5545,3.6155,3.6405,3.6405,3.6405,3.6405,3.6405,3.6405,3.6323,3.6204,3.9876,4.0455,4.0907,4.0907,4.0999,4.1093,4.1093,4.0634,4.0285,4.0285,3.977,3.9406,3.9406,3.9406,3.9406,3.9406,3.9406,3.9388,3.9337,3.9388,3.9074,3.8349,3.7722,3.6995,3.6158,3.5624,3.5184,3.4902,3.5032,3.5032,3.4902,3.5049,3.5405,3.599,3.673,3.7379,3.7969,3.8595,3.8913,3.8962,3.8852,3.8852,3.8889,3.8701,3.883,3.9159,3.9159,3.9265,3.9406,3.9406,3.9406,3.9406,3.9406,3.9406,3.9406,3.9406,3.9406,3.9406,3.9406,3.9406,3.9406,3.9406,3.9406,3.9355,0.0,0.0,0.0,3.9177,3.9283,3.9406,3.9406,3.9406,3.9361,3.9227,3.9157,3.906,3.8941,3.8576,3.8056,3.7362,3.6128,3.5176,3.4724,3.3873,3.3283,3.3124,3.3261,3.3283,3.3124,3.3102,3.3102,3.3102,3.3102,3.3102,3.3102,3.3102,3.3102,3.3102,3.3102,3.3102,3.3102,3.3203,3.3555,3.4085,3.4615,3.518,3.5707,3.6205,3.6405,3.6405,3.6405,3.6405,3.6405,3.6405,3.6405,3.6405,3.7645,3.8293,3.8745,3.8745,3.9239,3.9628,3.9628,3.9556,3.9517,3.9517,3.9445,3.9406,3.9406,3.9406,3.9406,3.9406,3.9406,3.9319,3.9141,3.9301,3.8963,3.8005,3.7976,3.7354,3.5956,3.5868,3.5526,3.4902,3.48,3.48,3.4902,3.48,3.5253,3.616,3.5915,3.6639,3.8068,3.8049,3.8238,3.859,3.8741,3.8998,3.9301,3.9104,3.9174,3.9355,3.9355,3.9388,3.9406,3.9406,3.9406,3.9406,3.9406,3.9406,3.9406,3.9406,3.9406,3.9406,3.9406,3.9406,3.9406,3.9406,3.9406,3.9388,3.9355,0.0,3.9388,3.9355,0.0,3.9406,3.9406,0.0,0.0,3.8601,3.8844,3.8896,3.8299,3.8501,3.869,3.8598,3.6181,3.4855,3.5648,3.4834,3.3915,3.3167,3.3823,3.3928,3.3133,3.3102,3.3102,3.3102,3.3102,3.3102,3.3102,3.3102,3.3102,3.3102,3.3102,3.3102,3.3115,3.3583,3.411,3.464,3.5169,3.5744,3.6293,3.638,3.6405,3.6405,3.6405,3.6405,3.6405,3.6405,3.6405,3.6405,3.6664,3.7389,3.7943,3.8317,3.8631,3.896,3.9346,3.9406,3.9406,3.9406,3.9406,3.9406,3.9406,3.9406,3.9406,3.9406,3.9406,3.9355,3.9283,3.9247,3.9055,3.861,3.7709,3.694,3.6326,3.5592,3.4997,3.4601,3.4681,3.4681,3.4601,3.4681,3.4863,3.516,3.5595,3.6065,3.6602,3.7508,3.7994,3.8186,3.8631,3.8962,3.9195,3.8998,3.9123,3.9406,3.9406,3.9406,3.9406,3.9406,3.9406,3.9406,3.9406,3.9406,3.9406,3.9406,3.9406,3.9406,3.9406,3.9406,3.9406,3.9406,3.9406,3.9406,3.9406,3.9406,3.9406,3.9406,0.0,0.0,0.0,0.0,0.0,0.0,3.9158,3.9175,3.8892,3.8495,3.8182,3.805,3.6855,3.5749,3.5087,3.4196,3.3496,3.3133,3.3432,3.3496,3.3124,3.3102,3.3102,3.3102,3.3102,3.3102,3.3102,3.3102,3.3102,3.3102,3.3102,3.3102,3.3115,3.3668,3.4176,3.4728,3.5257,3.5832,3.6405,3.6405,3.6405,3.6405,3.6405,3.6405,3.6405,3.6405,3.6405,3.6405,3.5372,3.6263,3.6912,3.7193,3.7718,3.8403,3.9284,3.9406,3.9406,3.9406,3.9406,3.9406,3.9406,3.9406,3.9406,3.9406,3.9406,3.9388,3.9319,3.9177,3.8887,3.844,3.7434,3.6611,3.6015,3.5273,3.4738,3.4397,3.4563,3.4532,3.4397,3.4614,3.4631,3.4496,3.525,3.5558,3.5606,3.6799,3.7387,3.7575,3.8017,3.8439,3.8761,3.8778,3.9017,3.9319,3.9319,3.9337,3.9406,3.9406,3.9406,0.0,3.9406,3.9406,3.9406,3.9406,3.9406,3.9406,3.9406,3.9406,3.9406,3.9406,3.9406,3.9406,3.9406,3.9406,3.9406,3.9406,3.9406,0.0,0.0,0.0,3.9346,3.9152,0.0,3.9331,3.9152,3.8609,3.8182,3.8032,3.7582,3.6641,3.4978,3.4183,3.3691,3.3462,3.3454,3.3347,3.3124,3.3102,3.3102,3.3102,3.3102,3.3102,3.3102,3.3102,3.3102,3.3102,3.3102,3.3102,3.3128,3.3809,3.4327,3.4741,3.5443,3.5994,3.6405,3.6405,3.6405,3.6405,3.6405,3.6405,3.6405,3.6405,3.6405,3.6405,3.3259,3.4418,3.516,3.4466,3.6014,3.7798,3.9178,3.9406,3.9406,3.9406,3.9406,3.9406,3.9406,3.9406,3.9406,3.9406,3.9406,3.9319,3.9123,3.9104,3.8378,3.6752,3.7246,3.6587,3.4516,3.5072,3.5072,3.4397,3.4414,3.4414,3.4397,3.4614,3.4698,3.4681,3.4712,3.5165,3.5876,3.5795,3.6107,3.6643,3.6658,3.7178,3.8007,3.8579,3.8925,3.9104,3.9104,3.9228,3.9406,3.9406,3.9406,0.0,0.0,0.0,3.9406,3.9406,3.9406,3.9406,3.9406,3.9406,3.9406,3.9406,3.9406,3.9406,3.9406,3.9406,3.9406,3.9406,3.9406,3.9406,3.9406,3.9406,3.9182,3.8544,3.899,0.0,0.0,3.8955,3.9337,3.9337,3.8252,3.7055,3.5955,3.5655,3.5196,3.4418,3.4356,3.3992,3.3145,3.3102,3.3102,3.3102,3.3102,3.3102,3.3102,3.3102,3.3102,3.3102,3.3102,3.3102,3.314,3.4176,3.4678,3.4753,3.5891,3.6392,3.6405,3.6405,3.6405,3.6405,3.6405,3.6405,3.6405,3.6405,3.6405,3.6405,3.1442,3.2127,3.3081,3.402,3.4767,3.5874,3.7736,3.8804,3.9406,3.9406,3.9406,3.9406,3.9406,3.9283,3.9265,3.9388,3.9283,3.9228,3.9283,3.905,3.866,3.8072,3.7222,3.6401,3.5659,3.5053,3.4632,3.4397,3.4397,3.4397,3.4397,3.4465,3.4498,3.4498,3.4498,3.4648,3.4949,3.5473,3.5815,3.6032,3.6438,3.6781,3.7142,3.8198,3.8885,3.9283,3.9141,3.9228,0.0,3.9406,3.9406,3.9406,3.9406,3.9406,3.9406,3.9406,3.9406,3.9406,0.0,0.0,3.9406,3.9406,0.0,3.9406,3.9406,3.9406,3.9406,3.9406,3.9406,3.9406,3.9406,3.9406,3.9331,3.9092,3.9257,3.9316,0.0,3.9257,3.9406,3.9406,3.829,3.7242,3.6615,3.5494,3.4682,3.4418,3.3865,0.0,3.3124,3.3102,3.3102,3.3102,3.3102,3.3102,3.3102,3.3102,3.3102,3.3102,3.3102,3.3102,3.314,3.4223,3.4703,3.4753,3.5916,3.6405,3.6405,3.6405,3.6405,3.6405,3.6405,3.6405,3.6405,3.6405,3.6405,3.6455,3.0431,3.0722,3.1426,3.2731,3.3385,3.4365,3.6322,3.7729,3.8604,3.8822,3.9159,3.9406,3.9406,3.9283,3.9265,3.9388,3.9283,3.9228,3.9283,3.898,3.8675,3.8399,3.7101,3.6285,3.5999,3.502,3.4465,3.4397,3.4397,3.4397,3.4397,3.4397,3.4397,3.4397,3.4397,3.4397,3.4443,3.5001,3.5244,3.5302,3.5965,3.6298,3.6453,3.7505,3.8339,3.8922,0.0,3.9035,3.9406,3.9406,3.9406,3.9406,3.9406,3.9406,3.9406,3.9406,3.9406,3.9406,3.9406,3.9406,0.0,3.9406,3.9406,0.0,3.9092,3.9032,3.9032,3.9032,3.8853,3.8838,3.9316,3.9197,3.9107,3.9361,3.9406,3.9406,0.0,3.9406,3.9355,3.9301,3.8509,3.7748,3.7174,3.5736,3.4703,3.4418,3.359,3.3102,3.3102,3.3102,3.3102,3.3102,3.3102,3.3102,3.3102,3.3102,3.3102,3.3102,3.3102,3.3203,3.3416,3.4289,3.4803,3.5042,3.5992,3.6405,3.6405,3.6405,3.6405,3.6405,3.6405,3.6405,3.6405,3.6405,3.6405,3.6494,3.0215,3.0228,3.0209,3.0584,3.1861,3.3409,3.5096,3.632,3.7226,3.7794,3.8745,3.9388,3.9406,3.9388,3.9388,3.9406,3.9388,3.9301,3.9104,3.8907,3.8462,3.7692,3.6965,3.6234,3.5482,3.4949,3.4597,3.4397,3.4397,3.4397,3.4397,3.4397,3.4397,3.4397,3.4397,3.4397,3.4397,3.4397,3.4397,3.4472,3.5241,3.5663,3.5908,3.6492,3.7263,3.8017,3.8029,3.8585,3.9316,3.9346,3.9346,3.9361,3.9391,3.9406,3.9406,3.9406,3.9406,3.9406,3.9406,3.9406,3.9406,3.9406,3.9406,0.0,0.0,0.0,3.8454,3.8454,3.7943,3.7881,3.9122,3.8856,3.8646,3.9257,3.9376,3.9406,3.9406,3.9388,3.9301,3.9123,3.8889,3.8401,3.7639,3.6371,3.5264,3.4509,3.3611,3.3102,3.3102,3.3102,3.3102,3.3102,3.3102,3.3102,3.3102,3.3102,3.3102,3.3102,3.3102,3.3391,3.3922,3.4474,3.4981,3.552,3.6143,3.6405,3.6405,3.6405,3.6405,3.6405,3.6405,3.6405,3.6405,3.6405,3.643,3.6582,2.9908,3.003,3.0088,3.003,3.1771,3.3538,3.4637,3.6387,3.7881,3.866,3.8998,3.9228,3.9388,3.9123,3.9068,3.9355,3.9265,3.9159,3.9104,3.8907,3.8708,3.8506,3.7131,3.6349,3.6295,3.5097,3.4448,3.4397,3.4397,3.4397,3.4397,3.4397,3.4397,3.4397,3.4397,3.4397,3.4397,3.4397,3.4397,3.4428,3.4791,3.5018,3.5183,0.0,3.6153,3.696,3.725,3.7602,3.7985,3.8497,3.8661,3.8736,3.9242,3.9406,3.9406,3.9406,3.9406,3.9406,3.9406,3.9406,3.9406,3.9406,3.9406,3.9346,0.0,0.0,0.0,0.0,0.0,0.0,0.0,3.8931,3.905,3.8706,3.9062,3.9406,3.9406,3.9265,3.9159,3.9104,3.8234,3.7786,3.8206,3.6641,3.5514,3.5318,3.3945,3.3102,3.3102,0.0,3.3102,3.3102,3.3102,3.3102,3.3102,3.3102,3.3102,3.3102,3.3102,3.3391,3.3922,3.4474,3.4981,3.552,3.6143,3.6405,3.6405,3.6405,3.6405,3.6405,3.6405,3.6405,3.6405,3.6405,3.6645,3.7097,2.9741,2.9888,2.9934,2.9811,3.1669,3.3325,3.3832,3.5206,3.6777,3.8335,3.8634,3.8885,3.9337,3.9195,3.9141,3.9388,3.9228,3.9068,3.8962,3.887,3.8708,3.8557,3.7269,3.6529,3.6475,3.5241,3.4551,3.4397,3.4481,3.4481,3.4397,3.4397,3.4397,3.4397,3.4397,3.4397,3.4397,3.4397,3.4481,3.4618,3.475,3.4883,0.0,3.5261,3.563,3.6086,3.6328,3.6822,3.7464,3.7838,3.7958,3.8033,3.8404,3.8718,3.8958,3.8958,3.9167,3.9406,3.9406,3.9406,3.9406,3.9406,3.9406,3.9316,3.9017,3.8958,3.8958,0.0,3.8718,3.8584,0.0,0.0,3.8512,3.8407,3.8958,3.9406,3.9406,3.9228,3.9104,3.9104,3.8323,3.7966,3.846,3.6419,3.5087,3.5087,3.3839,3.3102,0.0,3.3102,3.3102,3.3102,3.3102,3.3102,3.3102,3.3102,3.3102,3.3102,3.3102,3.3504,3.4274,3.4552,3.513,3.5918,3.6243,3.6405,3.6405,3.6405,3.6405,3.6405,3.6405,3.6405,3.6405,3.6405,3.6733,3.7286,2.9691,2.9792,2.9792,2.9792,3.1507,3.2953,3.3176,3.403,3.5464,3.7681,3.8173,3.8594,3.9334,3.9337,3.9319,3.9355,3.9177,3.895,3.8682,3.8646,3.8469,3.8063,3.718,3.6553,3.622,3.5334,3.4719,3.4397,3.4597,3.4597,3.4397,3.4397,3.4397,3.4397,3.4397,3.4414,3.4431,3.4431,3.4618,3.4902,3.4935,3.5034,3.5213,3.5423,3.5504,3.5504,3.5504,3.6222,3.7148,3.7255,3.7268,3.73,3.7389,3.7808,3.8257,3.8257,3.8691,3.9137,3.9137,3.9137,3.9137,3.9137,3.9137,3.8987,3.8392,3.8257,3.8257,3.8257,3.7883,3.7851,0.0,0.0,3.7701,3.8267,3.8958,3.9388,3.9319,3.9159,3.905,3.9031,3.859,0.0,3.8441,3.6096,3.4551,3.4551,3.3654,3.3102,0.0,0.0,3.3102,3.3102,3.3102,3.3102,3.3102,3.3102,3.3102,3.3102,3.3102,3.3658,3.4703,3.4703,3.5328,3.6405,3.6405,3.6405,3.6405,3.6405,3.6405,3.6405,3.6405,3.6405,3.6417,3.6493,3.6846,3.7386,2.9779,2.9792,2.9792,2.9792,3.1132,3.2661,3.4111,3.5938,3.7586,3.873,3.8907,3.9068,3.9355,3.9104,3.8962,3.9141,3.8962,3.8597,3.8012,3.7871,3.76,3.714,3.6184,3.572,3.5807,3.5095,3.4616,3.4397,3.4597,3.4597,3.4397,3.4397,3.4397,3.4397,3.4397,3.4481,3.4647,3.4647,3.475,3.4918,3.5082,3.5164,3.5213,3.5423,3.5504,3.5504,3.5504,3.5654,3.5923,3.6462,3.6673,3.6731,3.724,3.7479,3.7584,3.7584,3.7659,3.7746,3.7746,3.7746,3.7746,3.7746,3.7746,3.7716,3.7599,3.7584,3.7584,3.7584,3.7913,3.8123,3.7823,0.0,0.0,3.8163,3.885,3.9283,3.8943,3.887,3.8797,3.8627,3.7758,3.7472,3.8183,3.6517,3.5386,3.5386,3.3974,3.3102,3.3102,0.0,3.3102,0.0,3.3102,0.0,0.0,0.0,3.3102,3.3102,3.3102,3.3658,3.4703,3.4703,3.5328,3.6405,3.6405,3.6405,3.6405,3.6405,3.6405,3.6405,3.6405,3.6405,3.6444,3.6896,3.7387,3.7877,2.9792,2.9792,2.9953,3.0438,3.1787,3.327,3.4596,3.6389,3.7983,3.9106,3.8797,3.8554,3.8752,3.8524,3.8232,3.7967,3.7881,3.7641,3.7225,3.721,3.7042,3.6611,3.593,3.5545,3.5545,3.4986,3.4597,3.4397,3.4597,3.4597,3.4397,3.4397,3.4397,3.4397,3.4397,3.4549,3.48,3.4731,0.0,3.5197,3.5197,3.5261,3.5359,3.5455,3.5504,3.5504,3.5504,3.5504,3.5549,3.5863,3.5983,3.6028,3.6327,3.6656,3.6926,3.6926,3.715,3.7387,3.7387,3.7387,3.7387,3.7387,3.7387,3.7387,3.7387,3.7387,3.7387,3.7387,3.7928,3.8287,3.7973,3.813,0.0,0.0,0.0,3.8661,3.8774,3.8705,3.8608,3.8516,3.7943,3.7567,3.7529,3.6366,3.5595,3.5595,3.4058,3.3102,3.3102,0.0,3.3102,0.0,0.0,0.0,3.3102,0.0,3.3102,3.3102,3.3391,3.3935,3.4703,3.4992,3.5592,3.6405,3.6405,3.6405,3.6405,3.6405,3.6405,3.6405,3.6405,3.6405,3.6444,3.6997,3.7525,3.8052,2.9869,2.9869,3.0158,3.11,3.2481,3.3804,3.4829,3.6259,3.7644,3.8823,3.8293,3.785,3.8011,3.7857,3.7511,3.698,3.6898,3.6766,3.6479,3.6567,3.6438,3.5994,3.5618,3.5341,3.5203,3.4876,3.4631,3.4465,3.4631,3.4631,3.4465,3.4414,3.4397,3.4397,3.4431,3.4633,0.0,0.0,3.5063,3.5488,3.5326,3.5359,3.5504,3.5504,3.5504,3.5504,3.5504,3.5504,3.5504,3.5504,3.5504,3.5504,3.5504,3.5863,3.6299,3.6299,3.6626,3.7,3.7,3.7,3.7,3.7,3.7,3.7,3.7,3.7,3.7,3.7,3.7629,3.8245,3.8362,3.8438,0.0,0.0,0.0,3.8273,3.8631,3.8412,3.8277,3.8422,3.8127,3.7644,3.6975,3.6108,3.5528,3.5366,3.3953,3.3102,3.3102,0.0,0.0,0.0,0.0,3.3102,3.3102,0.0,3.3102,3.3102,3.3633,3.4186,3.4715,3.5268,3.582,3.6405,3.6405,3.6405,3.6405,3.6405,3.6405,3.6405,3.6405,3.6405,3.6493,3.7135,3.7638,3.8103,3.0049,3.0056,3.0368,3.1312,3.2304,3.342,3.4789,3.5905,3.6821,3.7509,3.7513,3.7448,3.7475,3.73,3.7149,3.7089,3.6918,3.6563,3.5991,3.581,3.5458,3.4886,3.4646,3.4501,3.4501,3.4626,3.4681,3.4664,3.4681,3.4681,0.0,3.4481,3.4397,3.4414,0.0,0.0,0.0,3.5082,3.5294,3.5504,3.5488,3.5488,3.5504,3.5504,3.5504,3.5504,3.5504,3.5504,3.5504,3.5504,3.5504,3.5504,3.5504,3.5549,3.5594,3.5594,3.5639,3.5684,3.5684,3.5684,3.5684,3.5684,3.5684,3.5684,3.5684,3.5684,3.5684,3.5684,3.6656,3.7689,3.8305,3.8883,3.8963,0.0,0.0,3.8811,3.8319,3.7725,3.7558,3.8165,3.751,3.6995,3.6917,3.6108,3.5298,3.4571,3.3632,3.3102,3.3102,0.0,0.0,3.3102,3.3102,3.3102,3.3102,3.3102,3.3102,3.3102,3.3633,3.4186,3.4715,3.5268,3.582,3.6405,3.6405,3.6405,3.6405,3.6405,3.6405,3.6405,3.6405,3.6405,3.6531,3.755,3.7965,3.8165,3.0254,3.0273,3.0583,3.1534,3.2353,3.329,3.441,3.5337,3.5983,3.6237,3.6822,3.7081,3.6711,3.6497,3.6214,3.5813,3.5817,3.5682,3.5316,3.5335,3.5165,3.4729,3.4631,3.4515,3.4397,3.4597,3.4647,3.4515,3.4647,3.4647,3.4515,0.0,0.0,0.0,0.0,3.4916,3.5098,3.5164,3.5326,3.5504,3.5504,3.5504,3.5504,3.5504,3.5504,3.5504,3.5504,3.5504,3.5504,3.5504,3.5504,3.5504,3.5504,3.5504,3.5504,3.5504,3.5504,3.5504,3.5504,3.5504,3.5504,3.5504,3.5504,3.5504,3.5504,3.5504,3.5504,3.5504,3.6522,3.7734,3.8811,3.8811,3.8624,3.8439,0.0,0.0,3.82,3.7966,3.791,3.8165,3.7886,3.7285,3.6207,3.5795,3.5054,3.3717,3.3304,3.3102,0.0,0.0,0.0,3.3102,0.0,3.3102,3.3102,3.3102,3.3102,3.3102,3.3972,3.449,3.4728,3.5629,3.618,3.6405,3.6405,3.6405,3.6405,3.6405,3.6405,3.6405,3.6405,3.6405,3.6543,3.76,3.8002,3.8165,3.0206,3.0367,3.0791,3.1723,3.2331,3.2957,3.3839,3.4641,3.5149,3.5149,3.6015,3.6467,3.6039,3.5863,3.5587,3.5126,3.5197,3.5197,3.5001,3.5115,3.5049,3.4714,3.4748,3.4666,3.4481,3.4631,3.4664,3.4551,3.4664,3.4631,0.0,0.0,0.0,0.0,3.4918,3.5082,3.5197,3.5261,3.5359,3.5504,3.5504,3.5504,3.5504,3.5504,3.5504,3.5504,3.5504,3.5504,3.5504,3.5504,3.5504,3.5504,3.5504,3.5504,3.5504,3.5504,3.5504,3.5504,3.5504,3.5504,3.5504,3.5504,3.5504,3.5504,3.5504,3.5654,3.5893,3.6282,3.7075,3.803,3.9197,3.8892,3.8552,3.8763,0.0,0.0,3.8182,3.7981,3.7829,3.7829,3.7591,3.685,3.54,3.5257,3.4656,3.3219,3.3102,3.3102,0.0,0.0,0.0,0.0,0.0,0.0,3.3102,3.3102,3.3178,3.3354,3.4274,3.4778,3.4979,3.5954,3.6405,3.6405,3.6405,3.6405,3.6405,3.6405,3.6405,3.6405,3.6405,3.6505,3.6746,3.7663,3.8115,3.8404,2.9763,3.0297,3.0992,3.1924,3.2092,3.2362,3.309,3.3854,3.4312,3.4312,3.5017,3.5534,3.5519,3.5503,3.5488,3.5488,3.5488,3.5423,3.5197,3.5197,3.5049,3.4714,3.4833,3.4819,3.4698,3.4698,3.4767,3.4902,3.4767,0.0,3.4698,0.0,3.4767,3.4918,3.5115,3.5197,3.5197,3.5423,3.5504,3.5504,3.5504,3.5504,3.5504,3.5504,3.5504,3.5504,3.5504,3.5504,3.5504,3.5504,3.5504,3.5504,3.5504,3.5504,3.5504,3.5504,3.5504,3.5504,3.5504,3.5504,3.5504,3.5504,3.5504,3.5504,3.5504,3.6013,3.6853,3.811,3.838,3.8601,3.9272,3.9232,3.9035,3.8819,0.0,0.0,0.0,3.7472,3.6917,3.6917,3.6162,3.5318,3.4488,3.4418,3.4042,3.3167,3.3102,0.0,0.0,0.0,0.0,3.3102,3.3102,0.0,3.3102,3.3102,3.3379,3.3897,3.4439,3.4992,3.5508,3.613,3.6405,3.6405,3.6405,3.6405,3.6405,3.6405,3.6405,3.6405,3.6405,3.6708,3.7273,3.7801,3.8366,3.8969,2.9446,2.9603,2.9841,3.0138,3.0613,3.1019,3.1247,3.1912,3.2563,3.3004,3.3308,3.3641,3.4081,3.4951,3.5504,3.5504,3.5504,3.5472,0.0,3.5392,3.5294,3.5049,3.5082,3.5032,3.4835,3.4966,3.4999,3.4902,0.0,0.0,0.0,3.4966,3.5049,3.5115,3.531,3.5392,3.5423,3.5472,3.5504,3.5504,3.5504,3.5504,3.5504,3.5504,3.5504,3.5504,3.5504,3.5504,3.5504,3.5504,3.5504,3.5504,3.5504,3.5504,3.5504,3.5504,3.5504,3.5504,3.5504,3.5504,3.5609,3.6058,3.6178,3.6282,3.6701,3.6971,3.736,3.823,3.8409,3.8601,3.9272,3.9247,3.9017,3.8819,3.8631,0.0,3.8221,3.7453,3.6897,3.6897,3.6128,3.5264,3.4481,3.4397,3.4042,3.3167,3.3102,0.0,0.0,0.0,0.0,0.0,3.3102,0.0,3.3102,3.3102,3.3379,3.3909,3.4439,3.5215,3.613,3.6306,3.6405,3.6405,3.6405,3.6405,3.6405,3.6405,3.6405,3.6405,3.6405,3.672,3.7273,3.7801,3.8366,3.8982,2.8952,2.9135,2.9292,2.9292,2.9688,2.9992,2.9992,3.06,3.1337,3.1994,3.233,3.2772,3.3423,3.4247,0.0,3.4756,3.4756,3.4756,3.4756,3.4756,3.4766,3.4827,3.4907,3.4961,3.5017,3.5148,0.0,3.5001,3.5065,3.5098,3.5131,3.518,3.5245,3.5326,3.5439,3.5504,3.5504,3.5504,3.5504,3.5504,3.5504,3.5504,3.5504,3.5504,3.5504,3.5504,3.5504,3.5504,3.5504,3.5504,3.5504,3.5504,3.5504,3.5504,3.5504,3.5504,3.5504,3.5549,3.5804,3.5878,3.6028,3.6671,3.6836,3.7,3.7629,3.7778,3.7973,3.8631,3.8781,3.8901,3.9316,3.9159,3.8943,3.8819,3.8575,3.8221,3.7791,3.7227,3.6682,3.6036,3.5494,3.4821,0.0,3.3907,3.3696,3.3133,3.3102,0.0,0.0,0.0,0.0,3.3102,3.3102,3.3102,3.3102,3.3102,3.3479,3.4223,3.4977,3.5715,3.6405,3.6405,3.6405,3.6405,3.6405,3.6405,3.6405,3.6405,3.6405,3.6405,3.6405,3.6846,3.7538,3.7889,3.8504,3.9258,2.8338,2.8795,2.9174,0.0,2.9174,0.0,2.9174,2.9751,3.0459,3.1178,3.1865,3.2563,3.3273,3.3365,3.3365,3.3365,0.0,0.0,3.3499,3.3499,3.3722,3.4205,3.4409,3.4722,3.5198,3.5213,3.5213,3.5213,3.5017,3.5131,3.5504,3.531,3.5326,3.5504,3.5504,3.5504,3.5504,3.5504,3.5504,3.5504,3.5504,3.5504,3.5504,3.5504,3.5504,3.5504,3.5504,3.5504,3.5504,3.5504,3.5504,3.5504,3.5504,3.5504,3.5504,3.5504,3.5518,3.5714,3.6329,3.6538,3.6718,3.733,3.7492,3.7704,3.8317,3.8484,3.8646,3.9272,3.9406,3.9406,3.9406,3.9068,3.88,3.88,3.8449,3.7905,3.7014,3.6858,3.6215,3.4592,0.0,0.0,3.3188,3.3102,3.3102,0.0,3.3102,0.0,0.0,0.0,3.3102,3.3102,3.3102,3.3102,3.3102,3.3102,3.3633,3.4715,3.5866,3.6405,3.6405,3.6405,3.6405,3.6405,3.6405,3.6405,3.6405,3.6405,3.6405,3.6405,3.6405,3.706,3.8002,3.8002,3.8718,3.9697,0.0,0.0,2.7924,2.7924,2.7924,2.7924,2.7924,2.8063,2.8608,2.9795,3.0111,3.0655,3.1841,3.1974,3.1974,3.1974,3.2916,3.3499,3.3499,3.3499,3.3784,3.4395,3.4472,3.4801,3.5424,3.5439,3.5439,3.5439,3.5375,3.5423,3.5504,3.5455,3.5455,3.5504,3.5504,3.5504,3.5504,3.5504,3.5504,3.5504,3.5504,3.5504,3.5504,3.5504,3.5504,3.5504,3.5504,3.5504,3.5504,3.5504,3.5504,3.5504,3.5504,3.5504,3.5504,3.5504,3.5863,3.6314,3.6464,3.6836,3.7345,3.8003,3.8556,3.8973,3.9122,3.9152,3.9212,3.9376,3.9406,3.9406,3.9406,3.9068,3.88,3.88,3.8449,3.7905,3.7014,3.634,3.5541,0.0,3.3823,3.3326,3.3124,3.3102,3.3102,0.0,0.0,3.3102,3.3102,3.3102,3.3102,3.3102,3.3102,3.3102,3.3102,3.3102,3.3633,3.4715,3.5866,3.6405,3.6405,3.6405,3.6405,3.6405,3.6405,3.6405,3.6405,3.6405,3.6405,3.6405,3.6405,3.706,3.8002,3.8002,3.8718,3.9697,2.749,2.749,2.749,2.749,2.7756,2.7842,2.754,2.8026,2.868,2.9395,2.9781,3.0344,3.1394,3.1511,3.1511,3.1511,3.2168,3.2587,3.2587,3.2587,3.3021,3.3994,3.4039,3.4503,3.5489,3.5504,3.5504,3.5504,3.5504,3.5504,3.5504,3.5504,3.5504,3.5504,3.5504,3.5504,3.5504,3.5504,3.5504,3.5504,3.5504,3.5504,3.5504,3.5504,3.5504,3.5504,3.5504,3.5504,3.5504,3.5504,3.5504,3.5504,3.5504,3.5714,3.5953,3.5953,3.6207,3.6628,3.7212,3.7616,3.8018,3.8691,3.9122,3.9406,3.9406,3.9406,3.9406,3.9406,3.9406,3.9406,3.9406,3.9141,3.8943,3.8943,3.8594,3.7905,3.6615,3.5969,3.5142,3.3958,3.339,3.3102,3.3102,3.3102,3.3102,3.3102,3.3102,0.0,3.3102,3.3102,3.3102,3.3102,3.3102,3.3102,3.3102,3.3583,3.4123,3.4715,3.5866,3.6405,3.6405,3.6405,3.6405,3.6405,3.6405,3.6405,3.6405,3.6405,3.6405,3.643,3.6658,3.7286,3.804,3.8304,3.8944,3.9697,2.749,2.7573,2.7656,2.7656,2.8206,2.8465,2.7891,2.8762,2.9535,2.9628,3.0148,3.0762,3.1423,3.1511,3.1511,3.1511,3.1511,3.1511,3.1511,3.16,3.2198,3.344,3.3589,3.4233,3.5458,3.5504,3.5504,3.5504,3.5504,3.5504,3.5504,3.5504,3.5504,3.5504,3.5504,3.5504,3.5504,3.5504,3.5504,3.5504,3.5504,3.5504,3.5504,3.5504,3.5504,3.5504,3.5504,3.5504,3.5504,3.5504,3.5504,3.5519,3.5624,3.6028,3.6538,3.6733,3.6793,3.7032,3.811,3.8467,3.8691,3.9257,3.9406,3.9406,3.9406,3.9406,3.9406,3.9406,3.9406,3.9406,3.9406,3.9247,3.9086,3.9068,3.8738,3.7929,3.6287,0.0,3.5033,3.3484,3.3188,3.3102,3.3102,3.3102,3.3102,3.3102,3.3102,3.3102,3.3102,3.3102,3.3102,3.3102,3.3102,3.3102,3.3102,3.4173,3.4703,3.4715,3.5866,3.6405,3.6405,3.6405,3.6405,3.6405,3.6405,3.6405,3.6405,3.6405,3.6405,3.6444,3.6997,3.7525,3.8078,3.868,3.9245,3.9697,2.749,2.7957,2.8336,2.8336,2.8903,2.9315,2.9221,2.9364,2.969,3.0269,3.0434,3.0762,3.1423,3.1511,3.1511,3.1511,3.1511,3.1511,3.1511,3.2033,3.2691,3.3469,3.4039,3.4712,3.5473,3.5504,3.5504,3.5504,3.5504,3.5504,3.5504,3.5504,3.5504,3.5504,3.5504,3.5504,3.5504,3.5504,3.5504,3.5504,3.5504,3.5504,3.5504,3.5504,3.5504,3.5504,3.5504,3.5504,3.5504,3.5504,3.5504,3.5609,3.6179,3.6419,3.6718,3.7796,3.811,3.8155,3.835,3.8811,3.9272,3.9376,3.9406,3.9406,3.9406,3.9406,3.9406,3.9406,3.9406,3.9406,3.9406,3.9247,3.905,3.887,3.8649,3.8089,3.6903,0.0,3.5305,3.4314,3.356,3.3102,3.3102,3.3102,3.3102,3.3102,3.3102,3.3102,3.3102,3.3102,3.3102,3.3102,3.3102,3.3102,3.3102,3.4173,3.4703,3.4715,3.5866,3.6405,3.6405,3.6405,3.6405,3.6405,3.6405,3.6405,3.6405,3.6405,3.6405,3.6444,3.6997,3.7525,3.8078,3.868,3.9245,3.9697,2.8438,2.8532,2.8613,2.8982,2.9596,2.9919,2.9551,3.0103,3.0569,3.0509,3.0807,3.1161,3.1467,3.1511,3.1511,3.1511,3.1511,3.1511,3.1511,3.2138,3.2796,3.3469,3.4143,3.4817,3.5489,3.5504,3.5504,3.5504,3.5504,3.5504,3.5504,3.5504,3.5504,3.5504,3.5504,3.5504,3.5504,3.5504,3.5504,3.5504,3.5504,3.5504,3.5504,3.5504,3.5504,3.5504,3.5504,3.5504,3.5504,3.5504,3.5504,3.5624,3.6299,3.6716,3.7165,3.8108,3.8661,3.8945,3.8945,3.9152,3.9406,3.9406,3.9406,3.9406,3.9406,3.9406,3.9406,3.9406,3.9406,3.9406,3.9406,3.9319,3.9195,3.898,3.8797,0.0,0.0,3.6227,3.5352,3.4501,3.3632,3.3102,3.3102,3.3102,3.3102,3.3102,3.3102,3.3102,3.3102,3.3102,3.3102,3.3102,3.3102,3.3102,3.3102,3.4173,3.4703,3.4715,3.5866,3.6405,3.6405,3.6405,3.6405,3.6405,3.6405,3.6405,3.6405,3.6405,3.6405,3.6493,3.7299,3.7789,3.8115,3.8994,3.9497,3.9697,2.9301,2.9205,2.9125,2.9642,3.0299,3.0569,3.0042,3.0837,3.1322,3.0807,3.119,3.1511,3.1511,3.1511,3.1511,3.1511,3.1511,3.1511,3.1511,3.2273,3.2961,3.3469,3.4293,3.4966,3.5489,3.5504,3.5504,3.5504,3.5504,3.5504,3.5504,3.5504,3.5504,3.5504,3.5504,3.5504,3.5504,3.5504,3.5504,3.5504,3.5504,3.5504,3.5504,3.5504,3.5504,3.5504,3.5504,3.5504,3.5504,3.5504,3.5609,3.5848,3.6492,3.712,3.7764,3.8437,3.9005,3.9406,3.9406,3.9406,3.9406,3.9406,3.9406,3.9406,3.9406,3.9406,3.9406,3.9406,3.9406,3.9406,3.9406,3.9406,3.9319,3.9123,0.0,0.0,0.0,3.647,3.5447,3.4814,3.3768,3.3102,3.3102,3.3102,3.3102,3.3102,3.3102,3.3102,3.3102,3.3102,3.3102,3.3102,3.3102,3.3102,3.3102,3.4173,3.4703,3.4715,3.5866,3.6405,3.6405,3.6405,3.6405,3.6405,3.6405,3.6405,3.6405,3.6405,3.6405,3.6518,3.7575,3.8002,3.814,3.9283,3.9697,3.9697,2.9473,2.9965,3.0374,3.0419,3.0984,3.1409,3.1365,3.1438,3.1467,3.1423,3.1467,3.1511,3.1511,3.1511,3.1511,3.1511,3.1511,3.1511,3.1511,3.2706,3.344,3.3499,3.4741,3.5444,3.5504,3.5504,3.5504,3.5504,3.5504,3.5504,3.5504,3.5504,3.5504,3.5504,3.5504,3.5504,3.5504,3.5504,3.5504,3.5504,3.5504,3.5504,3.5504,3.5504,3.5504,3.5504,3.5504,3.5504,3.5504,3.5504,3.5908,3.6538,3.715,3.7793,3.8452,3.9122,3.9361,3.9406,3.9406,3.9406,3.9406,3.9406,3.9406,3.9406,3.9406,3.9406,3.9406,3.9406,3.9406,3.9406,3.9406,3.9406,3.9319,3.9123,0.0,0.0,3.8727,3.7055,3.5855,3.5795,3.4191,3.3102,3.3102,3.3102,3.3102,3.3102,3.3102,3.3102,3.3102,3.3102,3.3102,3.3102,3.3102,3.3102,3.3102,3.4173,3.4703,3.4715,3.5866,3.6405,3.6405,3.6405,3.6405,3.6405,3.6405,3.6405,3.6405,3.6405,3.6405,3.6518,3.7575,3.8002,3.814,3.9283,3.9697,3.9697,3.0584,3.0614,3.0629,3.1043,3.1336,3.1511,3.1511,3.1511,3.1511,3.1511,3.1511,3.1511,3.1511,3.1511,3.1511,3.1511,3.1511,3.1511,3.1511,3.2766,3.3873,3.4696,3.5235,3.5504,3.5504,3.5504,3.5504,3.5504,3.5504,3.5504,3.5504,3.5504,3.5504,3.5504,3.5504,3.5504,3.5504,3.5504,3.5504,3.5504,3.5504,3.5504,3.5504,3.5504,3.5504,3.5504,3.5504,3.5504,3.5504,3.5504,3.5953,3.6613,3.721,3.7853,3.8527,3.9197,3.9406,3.9406,3.9406,3.9406,3.9406,3.9406,3.9406,3.9406,3.9406,3.9406,3.9406,3.9406,3.9406,3.9406,3.9406,3.9406,3.9319,3.9123,0.0,3.9017,3.8819,3.7601,3.6509,3.5955,3.4731,3.3696,3.3154,3.3102,3.3102,3.3102,3.3102,3.3102,3.3102,3.3102,3.3102,3.3102,3.3102,3.3102,3.3102,3.4173,3.4703,3.4715,3.5866,3.6405,3.6405,3.6405,3.6405,3.6405,3.6405,3.6405,3.6405,3.6405,3.6405,3.6518,3.7575,3.8002,3.814,3.9283,3.9697,3.9697,3.1322,3.1117,3.097,3.1423,3.1511,3.1511,3.1511,3.1511,3.1511,3.1511,3.1511,3.1511,3.1511,3.1511,3.1511,3.1511,3.1511,3.1511,3.1511,3.2766,3.4098,3.5444,3.5504,3.5504,3.5504,3.5504,3.5504,3.5504,3.5504,3.5504,3.5504,3.5504,3.5504,3.5504,3.5504,3.5504,3.5504,3.5504,3.5504,3.5504,3.5504,3.5504,3.5504,3.5504,3.5504,3.5504,3.5504,3.5504,3.5518,3.5744,3.6252,3.6881,3.7524,3.8167,3.8796,3.9272,3.9406,3.9406,3.9406,3.9406,3.9406,3.9406,3.9406,3.9406,3.9406,3.9406,3.9406,3.9406,3.9406,3.9406,3.9406,3.9406,3.9337,3.9228,3.9177,3.9141,3.8998,3.7847,3.6763,3.6081,3.4849,3.3844,3.3154,3.3102,3.3102,3.3102,3.3102,3.3102,3.3102,3.3102,3.3102,3.3102,3.3102,3.3219,3.3518,3.4294,3.4703,3.4715,3.5866,3.6405,3.6405,3.6405,3.6405,3.6405,3.6405,3.6405,3.6405,3.6405,3.6405,3.6518,3.7575,3.8002,3.814,3.9283,3.9697,3.9697,3.1511,3.1511,3.1511,3.1511,3.1511,3.1511,3.1511,3.1511,3.1511,3.1511,3.1511,3.1511,3.1511,3.1511,3.1511,3.1511,3.1511,3.1511,3.1511,3.2751,3.4098,3.5444,3.5504,3.5504,3.5504,3.5504,3.5504,3.5504,3.5504,3.5504,3.5504,3.5504,3.5504,3.5504,3.5504,3.5504,3.5504,3.5504,3.5504,3.5504,3.5504,3.5504,3.5504,3.5504,3.5504,3.5504,3.5504,3.5504,3.5609,3.6267,3.6896,3.7524,3.8182,3.8871,3.9406,3.9406,3.9406,3.9406,3.9406,3.9406,3.9406,3.9406,3.9406,3.9406,3.9406,3.9406,3.9406,3.9406,3.9406,3.9406,3.9406,3.9406,3.9406,3.9406,3.9406,3.9406,3.9406,3.7791,3.6515,3.6237,3.4568,3.3356,3.3133,3.3124,3.3124,3.3102,3.3102,3.3102,3.3124,3.3124,3.3124,3.3124,3.3124,3.3505,3.4397,3.4625,3.4703,3.4715,3.5854,3.6405,3.6405,3.6405,3.6405,3.6405,3.6405,3.6405,3.6405,3.6405,3.6405,3.6518,3.7575,3.8002,3.814,3.9283,3.9697,3.9697,3.1511,3.1511,3.1511,3.1511,3.1511,3.1511,3.1511,3.1511,3.1511,3.1511,3.1511,3.1511,3.1511,3.1511,3.1511,3.1511,3.1511,3.1899,3.2841,3.3275,3.4098,3.5444,3.5504,3.5504,3.5504,3.5504,3.5504,3.5504,3.5504,3.5504,3.5504,3.5504,3.5504,3.5504,3.5504,3.5504,3.5504,3.5504,3.5504,3.5504,3.5504,3.5504,3.5504,3.5504,3.5504,3.5504,3.5504,3.5504,3.5609,3.6267,3.6896,3.7597,3.8733,3.9242,3.9406,3.9406,3.9406,3.9406,3.9406,3.9406,3.9406,3.9406,3.9406,3.9406,3.9406,3.9406,3.9406,3.9406,3.9406,3.9406,3.9406,3.9406,3.9406,3.9406,3.9406,3.9406,3.9406,3.88,3.8107,3.7401,3.6691,3.5735,3.4345,3.4212,3.3911,3.3154,3.3102,3.3441,3.417,3.3641,3.3598,3.4191,3.3776,3.381,3.4397,3.5249,3.5666,3.5635,3.6806,3.7049,3.6405,3.6405,3.6405,3.6405,3.6405,3.6405,3.6405,3.6405,3.6405,3.6518,3.7575,3.8002,3.814,3.9283,3.9697,3.9697,3.1511,3.1511,3.1511,3.1511,3.1511,3.1511,3.1511,3.1511,3.1511,3.1511,3.1511,3.1511,3.1511,3.1511,3.1511,3.1511,3.1511,3.1959,3.3036,3.335,3.3978,3.5071,3.5355,3.5504,3.5504,3.5504,3.5504,3.5504,3.5504,3.5504,3.5504,3.5504,3.5504,3.5504,3.5504,3.5504,3.5504,3.5504,3.5504,3.5504,3.5504,3.5504,3.5504,3.5504,3.5504,3.5504,3.5504,3.5504,3.5639,3.6552,3.7449,3.8329,3.9137,3.9406,3.9406,3.9406,3.9406,3.9406,3.9406,3.9406,3.9406,3.9406,3.9406,3.9406,3.9406,3.9406,3.9406,3.9406,3.9406,3.9406,3.9406,3.9406,3.9406,3.9406,3.9406,3.9406,3.9406,3.9013,3.8505,3.7881,3.7415,3.6666,3.542,3.4938,3.4296,3.3304,3.362,3.4129,3.4787,3.4304,3.4275,3.4808,3.4428,3.4629,3.553,3.6819,3.7194,3.6708,3.7449,3.7556,3.707,3.6604,3.6405,3.6405,3.6476,3.6523,3.6523,3.664,3.6617,3.6624,3.7722,3.8089,3.814,3.9283,3.9697,3.9697,3.1511,3.1511,3.1511,3.1511,3.1511,3.1511,3.1511,3.1511,3.1511,3.1511,3.1511,3.1511,3.1511,3.1511,3.1511,3.1511,3.1555,3.1869,3.2542,3.3215,3.3889,3.4563,3.5175,3.5504,3.5504,3.5504,3.5504,3.5504,3.5504,3.5504,3.5504,3.5504,3.5504,3.5504,3.5504,3.5504,3.5504,3.5504,3.5504,3.5504,3.5504,3.5504,3.5504,3.5504,3.5504,3.5504,3.5504,3.5549,3.5772,3.706,3.8329,3.9406,3.9406,3.9406,3.9406,3.9406,3.9406,3.9406,3.9406,3.9406,3.9406,3.9406,3.9406,3.9406,3.9406,3.9406,3.9406,3.9406,3.9406,3.9406,3.9406,3.9406,3.9406,3.9406,3.9406,3.9406,3.9406,3.8775,3.8225,3.7975,3.73,3.671,3.6389,3.5359,3.4428,3.3691,3.4491,3.5061,3.5244,3.5183,3.5142,3.5142,3.5163,3.5866,3.7293,3.879,3.9015,3.8019,3.7998,3.8079,3.8221,3.6977,3.6499,3.6581,3.6675,3.6709,3.6745,3.6992,3.6968,3.6859,3.7953,3.8237,3.8165,3.9283,3.9697,3.9697,3.1511,3.1511,3.1511,3.1511,3.1511,3.1511,3.1511,3.1511,3.1511,3.1511,3.1511,3.1511,3.1511,3.1511,3.1511,3.1511,3.1974,3.2572,3.3245,3.3919,3.4578,3.525,3.5429,3.5504,3.5504,3.5504,3.5504,3.5504,3.5504,3.5504,3.5504,3.5504,3.5504,3.5504,3.5504,3.5504,3.5504,3.5504,3.5504,3.5504,3.5504,3.5504,3.5504,3.5504,3.5504,3.5504,3.5504,3.5833,3.6493,3.7749,3.8736,3.9406,3.9406,3.9406,3.9406,3.9406,3.9406,3.9406,3.9406,3.9406,3.9406,3.9406,3.9406,3.9406,3.9406,3.9406,3.9406,3.9406,3.9406,3.9406,3.9406,3.9406,3.9406,3.9406,3.9406,3.9406,3.9406,3.9247,3.9119,3.9068,3.8907,3.8438,3.7548,3.5935,3.5109,3.5567,3.5231,3.5635,3.7107,3.6607,3.6253,3.6253,3.6411,3.6756,3.7293,3.8911,3.9748,3.9776,3.954,3.9461,3.9448,3.7507,3.714,3.7988,3.7093,3.6815,3.7015,3.7085,3.7062,3.7107,3.805,3.8372,3.8438,3.9359,3.9697,3.9697,3.1525,3.1511,3.1511,3.1511,3.1511,3.1511,3.1511,3.1511,3.1511,3.1511,3.1511,3.1511,3.1511,3.1511,3.163,3.1944,3.2303,3.2916,3.3919,3.4324,3.4802,3.5474,3.5504,3.5504,3.5504,3.5504,3.5504,3.5504,3.5504,3.5504,3.5504,3.5504,3.5504,3.5504,3.5504,3.5504,3.5504,3.5504,3.5504,3.5504,3.5504,3.5504,3.5504,3.5504,3.5504,3.5537,3.5829,3.6578,3.7514,3.8169,3.8856,3.9406,3.9406,3.9406,3.9406,3.9406,3.9406,3.9406,3.9406,3.9406,3.9406,3.9406,3.9406,3.9406,3.9406,3.9406,3.9406,3.9406,3.9406,3.9406,3.9406,3.9406,3.9406,3.9406,3.9406,3.9406,3.9406,3.9406,3.9406,3.9406,3.9406,3.898,3.7885,3.703,3.6503,3.6403,3.647,3.6967,3.7933,3.7577,3.7352,3.7352,3.7733,3.817,3.8632,4.0225,4.1277,4.1732,4.0942,4.0611,4.0661,3.8983,3.8338,3.8464,3.7955,3.7582,3.7307,3.7436,3.7413,3.74,3.8388,3.8642,3.8524,3.9525,3.9813,3.9697,3.1583,3.1525,3.1511,3.1511,3.1511,3.1511,3.1511,3.1511,3.1511,3.1511,3.1511,3.1511,3.1511,3.16,3.1884,3.2452,3.2706,3.3305,3.4444,3.4607,3.4922,3.5489,3.5504,3.5504,3.5504,3.5504,3.5504,3.5504,3.5504,3.5504,3.5504,3.5504,3.5504,3.5504,3.5504,3.5504,3.5504,3.5504,3.5504,3.5504,3.5504,3.5504,3.5504,3.5504,3.5554,3.5717,3.6227,3.726,3.8421,3.8531,3.8945,3.9406,3.9406,3.9406,3.9406,3.9406,3.9406,3.9406,3.9406,3.9406,3.9406,3.9406,3.9406,3.9406,3.9406,3.9406,3.9406,3.9406,3.9406,3.9406,3.9406,3.9406,3.9406,3.9406,3.9406,3.9406,3.9406,3.9406,3.9406,3.9406,3.9406,3.905,3.8163,3.8136,3.7891,3.7146,3.7777,3.8258,3.8389,3.8408,3.8333,3.8202,3.893,3.9561,4.009,4.163,4.2705,4.329,4.2161,4.172,4.185,4.0554,3.9637,3.9099,3.8948,3.8494,3.7802,3.7864,3.7785,3.7668,3.8784,3.8934,3.8671,3.9766,4.0006,3.9762,3.1756,3.1611,3.1511,3.1511,3.1511,3.1511,3.1511,3.1511,3.1511,3.1511,3.1511,3.1511,3.1511,3.2033,3.2407,3.2482,3.3559,3.4308,3.4503,3.504,3.5415,3.5504,3.5504,3.5504,3.5504,3.5504,3.5504,3.5504,3.5504,3.5504,3.5504,3.5504,3.5504,3.5504,3.5504,3.5504,3.5504,3.5504,3.5504,3.5504,3.5504,3.5504,3.5504,3.5504,3.5814,3.629,3.6368,3.726,3.8498,3.9071,3.9331,3.9406,3.9406,3.9406,3.9406,3.9406,3.9406,3.9406,3.9406,3.9406,3.9406,3.9406,3.9406,3.9406,3.9406,3.9406,3.9406,3.9406,3.9406,3.9406,3.9406,3.9406,3.9406,3.9406,3.9406,3.9406,3.9406,3.9406,3.9406,3.9406,3.9406,3.9337,3.9195,3.8594,3.8427,3.8995,3.8519,3.8501,3.9192,3.9228,3.8922,3.8221,3.952,4.0178,4.0104,4.163,4.2705,4.329,4.3115,4.3036,4.3001,4.1049,4.0661,4.1436,3.9656,3.8939,3.8912,3.8203,3.7877,3.7948,3.8856,3.9152,3.9184,4.0106,4.0287,4.0057,3.1799,3.1641,3.1539,3.1655,3.167,3.1683,3.1769,3.1712,3.167,3.167,3.1568,3.1511,3.1511,3.2093,3.2796,3.3544,3.4158,3.4652,3.5026,3.534,3.5504,3.5504,3.5504,3.5504,3.5504,3.5504,3.5504,3.5504,3.5504,3.5504,3.5504,3.5504,3.5504,3.5504,3.5504,3.5504,3.5504,3.5504,3.5504,3.5504,3.5504,3.5504,3.5537,3.5862,3.6164,3.6507,3.726,3.838,3.9503,3.942,3.9406,3.9406,3.9406,3.9406,3.9406,3.9406,3.9406,3.9406,3.9406,3.9406,3.9406,3.9406,3.9406,3.9406,3.9406,3.9406,3.9406,3.9406,3.9406,3.9406,3.9406,3.9406,3.9406,3.9406,3.9406,3.9406,3.9406,3.9406,3.9406,3.9406,3.9406,3.9406,3.9406,3.9083,3.9013,3.9355,3.9083,3.9028,3.9388,3.9406,3.941,3.9435,4.0424,4.1098,4.138,4.2375,4.3025,4.329,4.329,4.329,4.327,4.2351,4.1961,4.1929,4.0489,3.9607,3.9121,3.8249,3.79,3.7994,3.9012,3.9711,4.0172,4.0413,4.0313,4.0096]},{"header":{"parameterUnit":"m.s-1","parameterCategory":1,"la1":30.6,"la2":28.766,"lo1":-90.7593,"lo2":-88.6598,"dy":0.0162,"dx":0.0183,"nx":116,"ny":114,"refTime":"2023-08-26T00:00:00:Z","depth":0,"parameterNumber":3,"parameterNumberName":"V-component_of_WINDS"},"data":[0.0,0.0,0.0,0.0,0.0,0.0,0.0,0.0,0.0,0.0,0.0,0.0,0.0,0.0,0.0,0.0,0.0,0.0,0.0,0.0,0.0,0.0,0.0,0.0,0.0,0.0,0.0,0.0,0.0,0.0,0.0,0.0,0.0,0.0,0.0,0.0,0.0,0.0,0.0,0.0,0.0,0.0,0.0,0.0,0.0,0.0,0.0,0.0,0.0,0.0,0.0,0.0,0.0,0.0,0.0,0.0,0.0,0.0,0.0,0.0,0.0,0.0,0.0,0.0,0.0,0.0,0.0,0.0,0.0,0.0,0.0,0.0,0.0,0.0,0.0,0.0,0.0,0.0,0.0,0.0,0.0,0.0,0.0,0.0,0.0,0.0,0.0,0.0,0.0,0.0,0.0,0.0,0.0,0.0,0.0,0.0,0.0,0.0,0.0,0.0,0.0,0.0,0.0,0.0,0.0,0.0,0.0,0.0,0.0,0.0,0.0,0.0,0.0,0.0,0.0,0.0,0.0,0.0,0.0,0.0,0.0,0.0,0.0,0.0,0.0,0.0,0.0,0.0,0.0,0.0,0.0,0.0,0.0,0.0,0.0,0.0,0.0,0.0,0.0,0.0,0.0,0.0,0.0,0.0,0.0,0.0,0.0,0.0,0.0,0.0,0.0,0.0,0.0,0.0,0.0,0.0,0.0,0.0,0.0,0.0,0.0,0.0,0.0,0.0,0.0,0.0,0.0,0.0,0.0,0.0,0.0,0.0,0.0,0.0,0.0,0.0,0.0,0.0,0.0,0.0,0.0,0.0,0.0,0.0,0.0,0.0,0.0,0.0,0.0,0.0,0.0,0.0,0.0,0.0,0.0,0.0,0.0,0.0,0.0,0.0,0.0,0.0,0.0,0.0,0.0,0.0,0.0,0.0,0.0,0.0,0.0,0.0,0.0,0.0,0.0,0.0,0.0,0.0,0.0,0.0,0.0,0.0,0.0,0.0,0.0,0.0,0.0,0.0,0.0,0.0,0.0,0.0,0.0,0.0,0.0,0.0,0.0,0.0,0.0,0.0,0.0,0.0,0.0,0.0,0.0,0.0,0.0,0.0,0.0,0.0,0.0,0.0,0.0,0.0,0.0,0.0,0.0,0.0,0.0,0.0,0.0,0.0,0.0,0.0,0.0,0.0,0.0,0.0,0.0,0.0,0.0,0.0,0.0,0.0,0.0,0.0,0.0,0.0,0.0,0.0,0.0,0.0,0.0,0.0,0.0,0.0,0.0,0.0,0.0,0.0,0.0,0.0,0.0,0.0,0.0,0.0,0.0,0.0,0.0,0.0,0.0,0.0,0.0,0.0,0.0,0.0,0.0,0.0,0.0,0.0,0.0,0.0,0.0,0.0,0.0,0.0,0.0,0.0,0.0,0.0,0.0,0.0,0.0,0.0,0.0,0.0,0.0,0.0,0.0,0.0,0.0,0.0,0.0,0.0,0.0,0.0,0.0,0.0,0.0,0.0,0.0,0.0,0.0,0.0,0.0,0.0,0.0,0.0,0.0,0.0,0.0,0.0,0.0,0.0,0.0,0.0,0.0,0.0,0.0,0.0,0.0,0.0,0.0,0.0,0.0,0.0,0.0,0.0,0.0,0.0,0.0,0.0,0.0,0.0,0.0,0.0,0.0,0.0,0.0,0.0,0.0,0.0,0.0,0.0,0.0,0.0,0.0,0.0,0.0,0.0,0.0,0.0,0.0,0.0,0.0,0.0,0.0,0.0,0.0,0.0,0.0,0.0,0.0,0.0,0.0,0.0,0.0,0.0,0.0,0.0,0.0,0.0,0.0,0.0,0.0,0.0,0.0,0.0,0.0,0.0,0.0,0.0,0.0,0.0,0.0,0.0,0.0,0.0,0.0,0.0,0.0,0.0,0.0,0.0,0.0,0.0,0.0,0.0,0.0,0.0,0.0,0.0,0.0,0.0,0.0,0.0,0.0,0.0,0.0,0.0,0.0,0.0,0.0,0.0,0.0,0.0,0.0,0.0,0.0,0.0,0.0,0.0,0.0,0.0,0.0,0.0,0.0,0.0,0.0,0.0,0.0,0.0,0.0,0.0,0.0,0.0,0.0,0.0,0.0,0.0,0.0,0.0,0.0,0.0,0.0,0.0,0.0,0.0,0.0,0.0,0.0,0.0,0.0,0.0,0.0,0.0,0.0,0.0,0.0,0.0,0.0,0.0,0.0,0.0,0.0,0.0,0.0,0.0,0.0,0.0,0.0,0.0,0.0,0.0,0.0,0.0,0.0,0.0,0.0,0.0,0.0,0.0,0.0,0.0,0.0,0.0,0.0,0.0,0.0,0.0,0.0,0.0,0.0,0.0,0.0,0.0,0.0,0.0,0.0,0.0,0.0,0.0,0.0,0.0,0.0,0.0,0.0,0.0,0.0,0.0,0.0,0.0,0.0,0.0,0.0,0.0,0.0,0.0,0.0,0.0,0.0,0.0,0.0,0.0,0.0,0.0,0.0,0.0,0.0,0.0,0.0,0.0,0.0,0.0,0.0,0.0,0.0,0.0,0.0,0.0,0.0,0.0,0.0,0.0,0.0,0.0,0.0,0.0,0.0,0.0,0.0,0.0,0.0,0.0,0.0,0.0,0.0,0.0,0.0,0.0,0.0,0.0,0.0,0.0,0.0,0.0,0.0,0.0,0.0,0.0,0.0,0.0,0.0,0.0,0.0,0.0,0.0,0.0,0.0,0.0,0.0,0.0,0.0,0.0,0.0,0.0,0.0,0.0,0.0,0.0,0.0,0.0,0.0,0.0,0.0,0.0,0.0,0.0,0.0,0.0,0.0,0.0,0.0,0.0,0.0,0.0,0.0,0.0,0.0,0.0,0.0,0.0,0.0,0.0,0.0,0.0,0.0,0.0,0.0,0.0,0.0,0.0,0.0,0.0,0.0,0.0,0.0,0.0,0.0,0.0,0.0,0.0,0.0,0.0,0.0,0.0,0.0,0.0,0.0,0.0,0.0,0.0,0.0,0.0,0.0,0.0,0.0,0.0,0.0,0.0,0.0,0.0,0.0,0.0,0.0,0.0,0.0,0.0,0.0,0.0,0.0,0.0,0.0,0.0,0.0,0.0,0.0,0.0,0.0,0.0,0.0,0.0,0.0,0.0,0.0,0.0,0.0,0.0,0.0,0.0,0.0,0.0,0.0,0.0,0.0,0.0,0.0,0.0,0.0,0.0,0.0,0.0,0.0,0.0,0.0,0.0,0.0,0.0,0.0,0.0,0.0,0.0,0.0,0.0,0.0,0.0,0.0,0.0,0.0,0.0,0.0,0.0,0.0,0.0,0.0,0.0,0.0,0.0,0.0,0.0,0.0,0.0,0.0,0.0,0.0,0.0,0.0,0.0,0.0,0.0,0.0,0.0,0.0,0.0,0.0,0.0,0.0,0.0,0.0,0.0,0.0,0.0,0.0,0.0,0.0,0.0,0.0,0.0,0.0,0.0,0.0,0.0,0.0,0.0,0.0,0.0,0.0,0.0,0.0,0.0,0.0,0.0,0.0,0.0,0.0,0.0,0.0,0.0,0.0,0.0,0.0,0.0,0.0,0.0,0.0,0.0,0.0,0.0,0.0,0.0,0.0,0.0,0.0,0.0,0.0,0.0,0.0,0.0,0.0,0.0,0.0,0.0,0.0,0.0,0.0,0.0,0.0,0.0,0.0,0.0,0.0,0.0,0.0,0.0,0.0,0.0,0.0,0.0,0.0,0.0,0.0,0.0,0.0,0.0,0.0,0.0,0.0,0.0,0.0,0.0,0.0,0.0,0.0,0.0,0.0,0.0,0.0,0.0,0.0,0.0,0.0,0.0,0.0,0.0,0.0,0.0,0.0,0.0,0.0,0.0,0.0,0.0,0.0,0.0,0.0,0.0,0.0,0.0,0.0,0.0,0.0,0.0,0.0,0.0,0.0,0.0,0.0,0.0,0.0,0.0,0.0,0.0,0.0,0.0,0.0,0.0,0.0,0.0,0.0,0.0,0.0,0.0,0.0,0.0,0.0,0.0,0.0,0.0,0.0,0.0,0.0,0.0,0.0,0.0,0.0,0.0,0.0,0.0,0.0,0.0,0.0,0.0,0.0,0.0,0.0,0.0,0.0,0.0,0.0,0.0,0.0,0.0,0.0,0.0,0.0,0.0,0.0,0.0,0.0,0.0,0.0,0.0,0.0,0.0,0.0,0.0,0.0,0.0,0.0,0.0,0.0,0.0,0.0,0.0,0.0,0.0,0.0,0.0,0.0,0.0,0.0,0.0,0.0,0.0,0.0,0.0,0.0,0.0,0.0,0.0,0.0,0.0,0.0,0.0,0.0,0.0,0.0,0.0,0.0,0.0,0.0,0.0,0.0,0.0,0.0,0.0,0.0,0.0,0.0,0.0,0.0,0.0,0.0,0.0,0.0,0.0,0.0,0.0,0.0,0.0,0.0,0.0,0.0,0.0,0.0,0.0,0.0,0.0,0.0,0.0,0.0,0.0,0.0,0.0,0.0,0.0,0.0,0.0,0.0,0.0,0.0,0.0,0.0,0.0,0.0,0.0,0.0,0.0,0.0,0.0,0.0,0.0,0.0,0.0,0.0,0.0,0.0,0.0,0.0,0.0,0.0,0.0,0.0,0.0,0.0,0.0,0.0,0.0,0.0,0.0,0.0,0.0,0.0,0.0,0.0,0.0,0.0,0.0,0.0,0.0,0.0,0.0,0.0,0.0,0.0,0.0,0.0,0.0,0.0,0.0,0.0,0.0,0.0,0.0,0.0,0.0,0.0,0.0,0.0,0.0,0.0,0.0,0.0,0.0,0.0,0.0,0.0,0.0,0.0,0.0,0.0,0.0,0.0,0.0,0.0,0.0,0.0,0.0,0.0,0.0,0.0,0.0,0.0,0.0,0.0,0.0,0.0,0.0,0.0,0.0,0.0,0.0,0.0,0.0,0.0,0.0,0.0,0.0,0.0,0.0,0.0,0.0,0.0,0.0,0.0,0.0,0.0,0.0,0.0,0.0,0.0,0.0,0.0,0.0,0.0,0.0,0.0,0.0,0.0,0.0,0.0,0.0,0.0,0.0,0.0,0.0,0.0,0.0,0.0,0.0,0.0,0.0,0.0,0.0,0.0,0.0,0.0,0.0,0.0,0.0,0.0,0.0,0.0,0.0,0.0,0.0,0.0,0.0,0.0,0.0,0.0,0.0,0.0,0.0,0.0,0.0,0.0,0.0,0.0,0.0,0.0,0.0,0.0,0.0,0.0,0.0,0.0,0.0,0.0,0.0,0.0,0.0,0.0,0.0,0.0,0.0,0.0,0.0,0.0,0.0,0.0,0.0,0.0,0.0,0.0,0.0,0.0,0.0,0.0,0.0,0.0,0.0,0.0,0.0,0.0,0.0,0.0,0.0,0.0,0.0,0.0,0.0,0.0,0.0,0.0,0.0,0.0,0.0,0.0,0.0,0.0,0.0,0.0,0.0,0.0,0.0,0.0,0.0,0.0,0.0,0.0,0.0,0.0,0.0,0.0,0.0,0.0,0.0,0.0,0.0,0.0,0.0,0.0,0.0,0.0,0.0,0.0,0.0,0.0,0.0,0.0,0.0,0.0,0.0,0.0,0.0,0.0,0.0,0.0,0.0,0.0,0.0,0.0,0.0,0.0,0.0,0.0,0.0,0.0,0.0,0.0,0.0,0.0,0.0,0.0,0.0,0.0,0.0,0.0,0.0,0.0,0.0,0.0,0.0,0.0,0.0,0.0,0.0,0.0,0.0,0.0,0.0,0.0,0.0,0.0,0.0,0.0,0.0,0.0,0.0,0.0,0.0,0.0,0.0,0.0,0.0,0.0,0.0,0.0,0.0,0.0,0.0,0.0,0.0,0.0,0.0,0.0,0.0,0.0,0.0,0.0,0.0,0.0,0.0,0.0,0.0,0.0,0.0,0.0,0.0,0.0,0.0,0.0,0.0,0.0,0.0,0.0,0.0,0.0,0.0,0.0,0.0,0.0,0.0,0.0,0.0,0.0,0.0,0.0,0.0,0.0,0.0,0.0,0.0,0.0,0.0,0.0,0.0,0.0,0.0,4.0291,3.9907,0.0,0.0,0.0,0.0,0.0,0.0,0.0,0.0,0.0,0.0,0.0,0.0,0.0,0.0,0.0,0.0,0.0,0.0,0.0,0.0,0.0,0.0,0.0,0.0,0.0,0.0,0.0,0.0,0.0,0.0,0.0,0.0,0.0,0.0,0.0,0.0,0.0,3.1705,3.1805,3.1959,3.2169,3.1125,3.0677,3.0789,0.0,0.0,0.0,0.0,0.0,0.0,0.0,0.0,0.0,0.0,0.0,0.0,0.0,0.0,0.0,0.0,0.0,0.0,0.0,0.0,0.0,0.0,0.0,0.0,0.0,0.0,0.0,0.0,0.0,0.0,0.0,0.0,0.0,0.0,0.0,0.0,0.0,0.0,0.0,0.0,0.0,0.0,0.0,0.0,0.0,0.0,0.0,0.0,0.0,0.0,0.0,0.0,0.0,0.0,0.0,0.0,0.0,0.0,0.0,0.0,0.0,0.0,0.0,0.0,0.0,0.0,0.0,0.0,0.0,0.0,4.0629,4.029,0.0,0.0,0.0,0.0,0.0,0.0,0.0,0.0,0.0,0.0,0.0,0.0,0.0,0.0,0.0,0.0,0.0,0.0,0.0,0.0,0.0,0.0,0.0,0.0,3.1771,3.1913,3.1935,3.1935,0.0,0.0,0.0,0.0,0.0,0.0,0.0,3.1727,3.1761,3.1761,3.2003,3.2235,3.2453,3.268,3.2766,3.2766,3.2766,0.0,0.0,0.0,0.0,0.0,0.0,0.0,0.0,0.0,0.0,0.0,0.0,0.0,0.0,0.0,0.0,0.0,0.0,0.0,0.0,0.0,0.0,0.0,0.0,0.0,0.0,0.0,0.0,0.0,0.0,0.0,0.0,0.0,0.0,0.0,0.0,0.0,0.0,0.0,0.0,0.0,0.0,0.0,0.0,0.0,0.0,0.0,0.0,0.0,0.0,0.0,0.0,0.0,0.0,0.0,0.0,0.0,0.0,0.0,0.0,0.0,0.0,0.0,4.0612,4.0663,4.0681,4.08,4.1142,4.1641,4.1091,4.087,4.0904,4.0904,0.0,0.0,0.0,0.0,0.0,0.0,0.0,0.0,0.0,0.0,0.0,0.0,0.0,0.0,0.0,0.0,0.0,0.0,0.0,0.0,0.0,3.1705,3.2001,3.2757,3.2821,3.2821,0.0,0.0,0.0,0.0,0.0,0.0,3.1705,3.1871,3.1972,3.1972,3.2397,3.2636,3.268,3.2918,3.3059,3.3059,3.3059,3.3068,3.3102,0.0,0.0,0.0,0.0,0.0,0.0,0.0,0.0,0.0,0.0,0.0,0.0,0.0,0.0,0.0,0.0,0.0,0.0,0.0,0.0,0.0,0.0,0.0,0.0,0.0,0.0,0.0,0.0,0.0,0.0,0.0,0.0,0.0,0.0,0.0,0.0,0.0,0.0,0.0,0.0,0.0,3.9463,3.9643,0.0,0.0,0.0,0.0,0.0,0.0,0.0,0.0,0.0,0.0,0.0,0.0,0.0,4.0489,4.0489,4.0489,4.0489,4.0507,4.1091,4.1376,4.1377,4.1965,4.2284,4.2363,4.2269,0.0,4.2505,4.2505,0.0,0.0,0.0,0.0,0.0,0.0,0.0,0.0,0.0,0.0,0.0,0.0,0.0,0.0,0.0,0.0,0.0,0.0,0.0,0.0,0.0,3.2435,3.2778,3.3649,3.3733,3.3733,3.3733,3.328,0.0,0.0,0.0,3.1705,3.1705,3.2382,3.31,3.3851,3.4061,3.4207,3.4332,3.4449,3.4511,3.4511,3.4511,3.3974,3.3102,3.3102,0.0,0.0,0.0,0.0,0.0,0.0,0.0,0.0,0.0,0.0,0.0,0.0,0.0,0.0,0.0,0.0,0.0,0.0,0.0,0.0,0.0,0.0,0.0,0.0,0.0,0.0,0.0,0.0,0.0,0.0,0.0,0.0,0.0,0.0,0.0,0.0,0.0,0.0,0.0,3.9676,3.9729,3.9699,3.991,4.0069,0.0,0.0,0.0,0.0,0.0,0.0,0.0,0.0,0.0,4.0489,4.0489,4.0681,4.1057,4.1057,4.1259,4.164,4.1933,4.2062,4.2078,4.2473,4.2862,4.3243,4.3317,4.3643,4.4083,4.3166,4.3077,4.3466,0.0,0.0,0.0,0.0,4.4214,4.4488,0.0,0.0,0.0,0.0,0.0,0.0,0.0,0.0,0.0,0.0,0.0,0.0,3.2929,3.3194,3.3691,3.4575,3.4658,3.4584,3.4413,3.3598,0.0,3.2566,3.1761,3.1383,3.1588,3.268,3.3858,3.515,3.515,3.5298,3.5595,3.5595,3.5595,3.5595,3.5386,3.4607,3.342,3.342,3.3304,3.3102,0.0,0.0,0.0,0.0,0.0,0.0,0.0,0.0,0.0,0.0,0.0,0.0,0.0,0.0,0.0,0.0,0.0,0.0,0.0,0.0,0.0,0.0,0.0,0.0,0.0,0.0,0.0,0.0,0.0,0.0,0.0,0.0,0.0,0.0,0.0,0.0,0.0,3.9821,3.9907,3.9857,4.0121,4.0296,0.0,0.0,0.0,0.0,0.0,0.0,4.0489,4.0489,4.0489,4.0489,4.0489,4.0749,4.1243,4.1243,4.1591,4.2253,4.2426,4.2599,4.2769,4.3107,4.353,4.4018,4.4117,4.4527,4.5056,4.3893,4.3777,4.4311,4.4311,4.4597,4.5005,4.5046,4.5046,4.5059,0.0,0.0,0.0,0.0,0.0,0.0,0.0,0.0,0.0,0.0,0.0,3.2938,3.3002,3.3754,3.4609,3.5555,3.5615,3.5351,3.4716,3.3906,3.2856,3.1449,3.0606,3.0544,3.1313,3.2513,3.3627,3.4729,3.4729,3.504,3.5595,3.5595,3.5595,3.5568,3.4806,3.4418,3.4335,3.4335,3.3865,3.3102,3.3102,0.0,0.0,0.0,0.0,0.0,0.0,0.0,0.0,0.0,0.0,0.0,0.0,0.0,0.0,0.0,0.0,0.0,0.0,0.0,0.0,0.0,0.0,0.0,0.0,0.0,0.0,0.0,0.0,0.0,0.0,0.0,0.0,0.0,0.0,0.0,0.0,0.0,0.0,4.0242,4.0294,0.0,0.0,0.0,0.0,4.0489,4.0489,4.0489,4.0489,4.0489,4.0489,4.0489,4.0489,4.0507,4.0541,4.0558,4.0887,4.1558,4.2189,4.2831,4.3482,4.4193,4.4528,4.4556,4.457,4.4734,4.5005,4.5056,4.511,4.5136,4.5136,4.5069,4.5019,4.5136,4.519,4.522,0.0,0.0,0.0,0.0,0.0,0.0,0.0,0.0,3.1849,3.1705,3.2457,3.3216,3.3783,3.465,3.5406,3.592,3.597,3.5686,3.5062,3.4196,3.3453,3.2922,3.2223,3.2362,3.3446,3.3914,3.4676,3.573,3.573,3.5844,3.6042,3.6042,3.6287,3.6665,3.6393,3.6164,3.591,3.4259,3.339,3.3102,3.3102,3.3102,0.0,0.0,0.0,0.0,0.0,0.0,0.0,0.0,0.0,0.0,0.0,0.0,0.0,0.0,0.0,0.0,0.0,0.0,0.0,0.0,0.0,0.0,0.0,0.0,0.0,0.0,0.0,0.0,0.0,0.0,0.0,0.0,0.0,0.0,0.0,0.0,0.0,4.0279,4.0366,0.0,4.0505,4.0489,4.0489,4.0489,4.0489,4.0489,4.0489,4.0489,4.0489,4.0489,4.0489,4.0715,4.1126,4.1142,4.1476,4.2141,4.2395,4.2862,4.3512,4.3914,4.4321,4.472,4.4817,4.4913,4.5005,4.5136,4.5261,4.5331,4.5331,4.5304,4.5264,4.53,4.5331,4.5344,0.0,0.0,0.0,0.0,0.0,0.0,0.0,0.0,3.1981,3.2232,3.2963,3.3775,3.4658,3.5419,3.5905,3.6074,3.592,3.5541,3.4903,3.4032,3.3476,3.3329,3.2966,3.3173,3.4057,3.4359,3.4992,3.5996,3.5996,3.6098,3.6301,3.6301,3.6548,3.695,3.6648,3.6423,3.6132,3.4402,3.3764,3.3911,3.3654,3.3539,3.3505,0.0,0.0,0.0,0.0,0.0,0.0,0.0,0.0,0.0,0.0,0.0,0.0,0.0,0.0,0.0,0.0,0.0,0.0,0.0,0.0,0.0,0.0,0.0,0.0,0.0,0.0,0.0,0.0,0.0,0.0,0.0,0.0,0.0,0.0,4.0366,4.0418,4.0366,4.0453,4.0489,4.0489,4.0489,4.0489,4.0489,4.0489,4.0489,4.0489,4.0489,4.0489,4.0489,4.0489,4.0715,4.1159,4.1159,4.1509,4.2173,4.2395,4.2862,4.3512,4.39,4.4307,4.4751,4.4872,4.4951,4.5005,4.5136,4.5274,4.5397,4.5397,4.5397,4.5397,4.5397,4.5397,4.5397,0.0,0.0,0.0,0.0,0.0,0.0,0.0,3.1827,3.2101,3.3193,3.3885,3.4616,3.5528,3.5848,3.6032,3.6028,3.548,3.4857,3.4217,3.3431,3.285,3.2461,3.2636,3.2814,3.2932,3.3704,3.4516,3.5378,3.5378,3.5665,3.6225,3.6225,3.6239,3.6251,3.5403,3.5007,3.5022,3.4818,3.5092,3.5554,3.4772,3.4439,3.4335,0.0,0.0,0.0,0.0,0.0,0.0,0.0,0.0,0.0,0.0,0.0,0.0,0.0,0.0,0.0,0.0,0.0,0.0,0.0,0.0,0.0,0.0,0.0,0.0,0.0,0.0,0.0,0.0,0.0,0.0,0.0,0.0,0.0,4.0312,4.0312,4.0349,4.0472,4.0489,4.0489,4.0489,4.0489,4.0489,4.0489,4.0489,4.0489,4.0489,4.0489,4.0489,4.0489,4.0489,4.0489,4.0489,4.0489,4.0819,4.1476,4.2125,4.28,4.3497,4.4207,4.4556,4.4615,4.4737,4.4872,4.4991,4.514,4.5261,4.5384,4.5397,4.5397,4.5397,4.5397,4.5397,4.5397,0.0,0.0,0.0,0.0,0.0,0.0,0.0,3.1937,3.1981,3.2145,3.2855,3.3537,3.3989,3.4133,3.4349,3.4686,3.4039,3.3587,3.3553,3.3338,3.3307,3.3486,3.3632,3.3805,3.3994,3.4196,3.4433,3.4675,3.4675,3.4762,3.4919,3.4919,3.5183,3.5636,3.5394,3.5532,3.5928,3.5882,3.5962,3.6064,3.5508,3.5278,3.5176,0.0,0.0,0.0,0.0,0.0,0.0,0.0,0.0,0.0,0.0,0.0,0.0,0.0,0.0,0.0,0.0,0.0,0.0,0.0,0.0,0.0,0.0,0.0,0.0,0.0,0.0,0.0,0.0,0.0,0.0,0.0,4.0207,4.0331,4.0436,4.0453,4.047,4.0505,4.0489,4.0489,4.0489,4.0489,4.0489,4.0489,4.0489,4.0489,4.0489,4.0489,4.0489,4.0489,4.0489,4.0489,4.0489,4.0489,4.0578,4.0768,4.0956,4.1673,4.2785,4.2969,4.3634,4.4615,4.464,4.4682,4.4723,4.4858,4.4927,4.4995,4.5291,4.5397,4.5397,4.5397,4.5397,4.5397,0.0,0.0,0.0,0.0,0.0,0.0,0.0,3.1928,3.2003,3.2351,3.2548,3.2861,3.3381,3.3364,3.339,3.3675,3.3421,3.3292,3.341,3.3556,3.3747,3.3971,3.4142,3.4281,3.4397,3.4397,3.4397,3.4397,3.4397,3.4397,3.4397,3.4397,3.4617,3.4983,3.4983,3.5169,3.5514,3.5793,3.5927,3.5925,3.5906,3.5834,3.5705,3.5116,3.4682,3.4377,3.4204,3.3924,3.3738,3.4309,0.0,0.0,0.0,0.0,0.0,0.0,0.0,0.0,0.0,0.0,0.0,0.0,0.0,0.0,0.0,0.0,0.0,0.0,0.0,0.0,0.0,0.0,0.0,0.0,4.0296,4.0418,4.0489,4.0489,4.0489,4.0489,4.0489,4.0489,4.0489,4.0489,4.0489,4.0489,4.0489,4.0489,4.0489,4.0489,4.0489,4.0489,4.0489,4.0489,4.0489,4.0489,4.0629,4.0921,4.1209,4.1885,4.2938,4.3244,4.3829,4.4598,4.4654,4.4682,4.4696,4.4831,4.4886,0.0,0.0,0.0,0.0,0.0,4.5331,4.5314,0.0,0.0,0.0,0.0,0.0,0.0,0.0,3.1679,3.196,3.2998,3.2441,3.2267,3.3058,3.2813,3.263,3.2749,3.3079,3.3329,3.3417,3.3767,3.3974,3.3925,3.423,3.4397,3.4397,3.4397,3.4397,3.4397,3.4397,3.4397,3.4397,3.4397,3.4397,3.4397,3.4397,3.4397,3.4426,3.5026,3.529,3.5348,3.5938,3.6171,3.6117,3.5766,3.5244,3.4765,3.5386,3.5149,3.4696,3.5669,0.0,0.0,0.0,0.0,0.0,0.0,0.0,0.0,0.0,0.0,0.0,0.0,0.0,0.0,0.0,0.0,0.0,0.0,0.0,0.0,0.0,0.0,0.0,0.0,4.0489,4.0489,4.0489,4.0489,4.0489,4.0489,4.0489,4.0489,4.0489,4.0489,4.0489,4.0489,4.0489,4.0489,4.0489,4.0489,0.0,0.0,0.0,4.0489,4.0489,4.0489,4.0802,4.1393,4.1981,4.263,4.3302,4.4032,4.4398,4.4483,4.4679,4.4793,4.4793,4.4913,4.4951,4.4951,4.4991,4.5005,4.5032,4.5167,4.522,4.5247,0.0,0.0,0.0,0.0,0.0,0.0,0.0,3.0837,3.1132,3.1347,3.0873,3.0642,3.1044,3.0438,3.0364,3.1223,3.1389,3.1691,3.2354,3.2903,3.3146,3.2988,3.3891,3.4397,3.4397,3.4397,3.4397,3.4397,3.4397,3.4397,3.4397,3.4397,3.4397,3.4397,3.4397,3.4397,3.4412,3.4545,3.4588,3.4646,3.5302,3.6171,3.6975,3.6207,3.612,3.6334,3.5789,3.5507,3.5427,3.5856,3.6016,3.6255,3.751,3.7924,0.0,0.0,0.0,0.0,0.0,0.0,0.0,0.0,0.0,0.0,0.0,0.0,0.0,0.0,0.0,0.0,0.0,0.0,0.0,4.0329,4.0436,4.0489,4.0489,4.0489,4.0489,4.0489,4.0489,4.0489,4.0489,4.0489,4.0489,4.0489,4.0489,4.0489,4.0489,4.0489,4.0489,4.0489,4.0489,4.0489,4.0489,4.0489,4.0576,4.0698,0.0,0.0,4.1917,4.2583,4.3198,4.3735,4.4367,4.464,4.464,4.4668,4.4682,4.4696,4.4927,4.5073,4.515,4.519,4.5274,4.5357,0.0,0.0,0.0,0.0,0.0,0.0,0.0,3.0589,3.0901,3.0901,3.0203,2.9745,2.9881,2.9651,2.9724,3.0241,3.0839,3.1563,3.2434,3.2875,3.3238,3.3545,3.4094,3.4397,3.4397,3.4397,3.4397,3.4397,3.4397,3.4397,3.4397,3.4397,3.4397,3.4397,3.4397,3.4397,3.4397,3.4397,3.4397,3.4426,3.4762,3.5491,3.6367,3.6573,3.6576,3.6496,3.6776,3.6615,3.634,3.6903,3.7169,3.7381,3.8117,3.8412,3.8631,0.0,0.0,0.0,0.0,0.0,0.0,0.0,0.0,0.0,0.0,0.0,0.0,0.0,0.0,3.9925,4.0119,0.0,4.0329,4.0383,4.047,4.0489,4.0489,4.0489,4.0489,4.0489,4.0489,4.0489,4.0489,4.0489,4.0489,4.0489,4.0489,4.0489,4.0489,4.0489,4.0489,4.0489,4.0489,4.0489,4.0489,4.0168,4.0171,4.0492,4.0149,4.0353,4.102,4.1361,4.1679,4.2039,4.2699,4.3001,4.3015,4.3324,4.345,4.3464,4.3596,4.4164,4.4913,4.4981,4.5049,4.5117,0.0,0.0,0.0,0.0,0.0,0.0,0.0,3.0138,3.0482,3.0579,2.9737,2.9148,2.9148,2.9344,2.9542,2.9684,3.0475,3.1341,3.2223,3.2545,3.2981,3.3569,3.3977,3.4165,3.4165,3.4315,3.4397,3.4397,3.4397,3.4397,3.4397,3.4397,3.4397,3.4397,3.4397,3.4397,3.4397,3.4397,3.4397,3.4397,3.4397,3.4719,3.5317,3.6475,3.6653,3.641,3.7601,3.7653,3.7246,3.7962,3.8296,3.8482,3.8723,3.8907,3.9086,3.9319,3.9406,0.0,0.0,0.0,0.0,0.0,0.0,0.0,0.0,3.9445,3.9517,3.9714,3.9803,3.9927,4.0242,4.0329,4.0366,4.0472,4.0489,4.0489,4.0489,4.0489,4.0489,4.0489,4.0489,4.0489,4.0489,4.0489,4.0489,4.0489,4.0489,4.0489,4.0489,4.0489,4.0428,4.0305,4.0322,4.0245,4.0122,3.9584,3.9576,4.01,3.955,3.9596,4.0131,4.025,4.037,4.0518,4.126,4.1572,4.1613,4.2095,4.23,4.23,4.23,4.3061,4.4172,4.4293,4.4375,4.445,0.0,0.0,0.0,0.0,0.0,0.0,0.0,0.0,2.9015,2.9429,2.8967,2.8595,2.8595,2.8626,2.8922,2.9646,2.9328,2.9374,3.0018,3.0575,3.0839,3.0758,3.2402,3.3332,3.3332,3.4028,3.4397,3.4397,3.4397,3.4397,3.4397,3.4397,3.4397,3.4397,3.4397,3.4397,3.4397,3.4397,3.4397,3.4397,3.4397,3.4441,3.4603,3.5331,3.6251,3.7174,3.7338,3.7678,3.8071,3.8165,3.8202,3.8296,3.8671,3.8819,3.8907,3.9283,3.9406,3.9406,3.9406,3.9406,3.9406,3.9406,3.9406,3.946,0.0,3.9679,3.9714,3.9925,4.0119,4.0259,4.0294,4.0401,4.0472,4.0489,4.0489,4.0489,4.0489,4.0489,4.0489,4.0489,4.0489,4.0489,4.0489,4.0489,4.0489,4.0489,4.0489,4.0489,4.0489,4.0489,4.023,3.963,3.9614,3.9322,3.8722,3.8645,3.8648,3.873,3.8653,3.8656,3.8738,3.933,3.9903,4.0475,4.1683,4.2206,4.2206,4.2273,4.23,4.23,4.23,4.2418,4.2567,4.2709,4.2862,4.3107,0.0,0.0,0.0,0.0,0.0,0.0,0.0,0.0,0.0,2.8493,2.8081,2.7926,2.8451,2.849,2.8649,2.8981,2.8882,2.9113,2.9826,3.0209,3.0607,3.0975,3.2232,3.2907,3.2907,3.3698,3.4142,3.423,3.423,3.4295,3.4397,3.4397,3.4397,3.4397,3.4397,3.4397,3.4397,3.4397,3.4397,3.4397,3.4397,3.4397,3.4426,3.4704,3.5604,3.6668,3.6235,3.6995,0.0,3.7248,3.7527,3.8277,3.8671,3.88,3.8889,3.9283,3.9406,3.9406,3.9406,3.9406,3.9406,3.9406,3.9406,3.9409,3.9499,3.9535,3.9589,3.9785,3.9996,4.0154,4.0277,4.0401,4.0489,4.0489,4.0489,4.0489,4.0489,4.0489,4.0489,4.0489,4.0489,4.0489,4.0489,4.0489,4.0489,4.0489,4.0489,4.0489,4.0489,4.0137,3.9799,3.9507,3.9122,3.8784,3.8491,3.8123,3.7923,3.7923,3.7523,3.7338,3.7354,3.7623,3.827,3.9242,4.0114,4.0697,4.1014,4.1014,4.1014,4.1014,4.1014,4.1014,4.1128,4.2044,4.2436,4.2556,0.0,0.0,0.0,0.0,0.0,0.0,0.0,0.0,0.0,0.0,2.7444,2.7531,2.8411,2.849,2.849,2.849,2.8637,2.8969,2.9549,2.9781,3.0152,3.0738,3.1581,3.2137,3.2367,3.316,3.373,3.4042,3.4042,3.4125,3.4261,3.4261,3.4261,3.4261,3.4261,3.4261,3.4261,3.4295,3.4196,3.4042,3.4312,3.4162,3.3791,3.3994,3.4633,3.5385,3.5295,3.6415,3.7808,3.6759,3.7103,3.804,3.8554,3.876,3.887,3.9228,3.9355,3.9406,3.9406,3.9406,3.9406,3.9406,3.9406,3.9406,3.9406,3.9406,3.9427,3.9589,3.9818,4.0031,4.0189,4.0366,4.0489,4.0489,4.0489,4.0489,4.0489,4.0489,4.0489,4.0489,4.0489,4.0489,4.0489,4.0489,4.0489,4.0489,4.0489,4.0413,4.0228,3.9768,3.9322,3.8953,3.8492,3.8138,3.7954,3.7461,3.7215,3.7215,3.6722,3.6507,3.6507,3.6662,3.7327,3.832,3.8947,3.9536,4.0096,4.0096,4.0096,4.0096,4.0096,4.0096,4.0231,4.1301,4.169,4.1737,0.0,0.0,0.0,0.0,0.0,0.0,0.0,0.0,0.0,0.0,0.0,0.0,0.0,2.849,2.849,2.849,2.851,2.853,2.855,2.8724,2.885,2.887,2.9839,3.0733,3.1534,3.2318,3.3125,3.3914,3.3914,3.3914,3.3914,3.3914,3.3914,3.3914,3.3914,3.3914,3.3931,3.4042,3.3701,3.3129,3.4042,3.35,3.225,3.295,3.3179,3.3312,3.4849,3.6228,3.7313,3.728,3.7298,3.7484,3.8251,3.8631,3.8837,3.905,3.9247,3.9406,3.9406,3.9406,3.9406,3.9406,3.9406,3.9406,3.9406,3.9406,3.9406,3.9406,3.9729,4.0011,4.0011,4.0279,4.0489,4.0489,4.0489,4.0489,4.0489,4.0489,4.0489,4.0489,4.0489,4.0489,4.0489,4.0489,4.0489,4.0489,4.0489,4.023,3.9568,3.9507,3.8891,3.76,3.7538,3.7215,3.6569,3.6553,3.6538,3.6538,3.6507,3.6507,3.6523,3.7119,3.7709,3.832,3.8947,3.9536,4.0096,4.0096,4.0096,4.0096,4.0096,4.0096,4.0113,4.0146,4.018,4.0282,0.0,0.0,0.0,0.0,0.0,0.0,0.0,0.0,0.0,0.0,0.0,0.0,0.0,0.0,0.0,0.0,2.849,2.849,2.849,2.8558,2.8598,2.8598,2.9445,3.0031,3.0304,3.1082,3.1691,3.211,3.211,3.2443,3.3108,3.3108,3.3108,3.3108,3.3108,3.2797,3.2308,3.2349,3.2308,3.2232,3.2551,3.2448,3.2128,3.238,3.2677,3.3081,0.0,3.4553,3.5596,3.5231,3.5972,3.7215,3.82,3.8553,3.8682,3.9013,3.9247,3.9406,3.9406,3.9406,3.9406,3.9406,3.9406,3.9406,3.9406,3.9406,3.9406,3.9406,3.9607,3.9839,3.9978,4.0207,4.0401,4.0489,4.0489,4.0489,4.0489,4.0922,4.1232,4.1232,4.1614,4.1891,4.1891,4.1491,4.1232,4.1232,4.163,4.1599,4.094,4.0014,3.9091,3.82,3.7292,3.6738,3.6507,3.6507,3.6507,3.6507,3.6507,3.6507,3.6523,3.7118,3.7505,3.7738,3.8337,3.8947,3.9497,3.9497,3.9735,4.0096,4.0096,4.0096,4.0096,4.0096,4.0096,4.0146,0.0,0.0,0.0,0.0,0.0,0.0,0.0,0.0,0.0,0.0,0.0,0.0,0.0,0.0,0.0,0.0,0.0,2.849,2.849,2.849,2.849,2.849,2.9,2.9406,2.9684,3.0209,3.0689,3.1087,3.1087,3.1434,3.2064,3.2064,3.2064,3.2064,3.2064,3.1764,3.1278,3.1352,3.1479,3.1604,3.173,3.171,3.1579,3.1865,3.2016,0.0,3.2302,3.3007,3.3907,3.4163,3.5096,3.6331,3.7534,3.8225,3.8668,3.9013,3.9247,3.9406,3.9406,3.9406,3.9406,3.9406,3.9406,3.9406,3.9406,3.9406,3.9406,3.9406,3.9553,3.975,3.9872,4.0119,4.0296,4.0314,4.0436,4.0564,4.0758,4.1256,4.1694,4.1925,4.234,4.2602,4.2602,4.2432,4.2217,4.1986,4.2371,4.2309,4.1632,4.0491,3.9445,3.8522,3.743,3.6738,3.6507,3.6507,3.6507,3.6507,3.6507,3.6507,3.6507,3.6892,3.7193,3.7416,3.8039,3.8643,3.9219,3.9431,3.9747,4.0096,4.0096,4.0096,4.0096,4.0096,4.0096,4.0096,0.0,0.0,0.0,0.0,0.0,0.0,0.0,0.0,0.0,0.0,0.0,0.0,0.0,0.0,0.0,0.0,0.0,0.0,2.849,2.849,2.849,2.849,2.849,2.8863,2.9626,2.9646,3.0018,3.0782,3.0782,3.0801,3.0839,3.0839,3.0839,3.0839,3.0839,3.082,3.0801,3.0975,3.107,3.1131,3.1505,3.1249,3.0687,3.1377,3.1227,3.0701,3.1248,3.1763,3.2453,3.408,3.4683,3.5002,3.6429,3.7744,3.8782,3.9017,3.9228,3.9406,3.9406,3.9406,3.9406,3.9406,3.9406,3.9406,3.9406,3.9406,3.9406,3.9406,3.9553,3.9696,3.9699,4.0016,4.0224,4.0031,4.0279,4.0701,4.1232,4.151,4.1909,4.2571,4.2694,4.2691,4.2691,4.3282,4.339,4.2756,4.2691,4.2402,4.1694,4.0953,3.9922,3.8538,3.7861,3.7169,3.6507,3.6507,3.6507,3.6507,3.6507,3.6507,3.6507,3.6507,3.6816,3.7402,3.7982,3.8601,3.9206,3.9799,4.007,4.0096,4.0096,4.0096,4.0096,4.0096,4.0096,4.0096,0.0,0.0,0.0,0.0,0.0,0.0,0.0,0.0,0.0,0.0,0.0,0.0,0.0,0.0,0.0,0.0,0.0,0.0,2.849,2.849,2.849,2.849,2.849,2.861,2.8803,2.8816,2.8902,2.9106,2.9106,2.9426,2.9999,2.9999,2.9999,2.9999,2.9999,2.9665,2.9126,2.9184,2.9369,2.963,2.9753,3.0119,3.062,3.0813,3.1014,3.1273,3.18,3.2089,3.2348,3.3435,3.4487,3.5558,3.6588,3.7328,3.7975,3.8671,3.9123,3.9406,3.9406,3.9406,3.9406,3.9406,3.9406,3.9406,3.9406,3.9406,3.9406,3.9406,3.9442,3.9517,3.9679,3.9925,4.0101,4.0207,4.0383,4.0751,4.144,4.1996,4.2586,4.3267,4.379,4.4098,4.4098,4.4237,4.4267,4.4113,4.4098,4.3571,4.2417,4.1694,4.0462,3.8553,3.7861,3.7169,3.6507,3.6507,3.6507,3.6507,3.6507,3.6507,3.6507,3.6507,3.6569,3.677,3.7357,3.7967,3.8574,3.9176,3.9696,4.0096,4.0096,4.0096,4.0096,4.0096,4.0096,4.0096,0.0,0.0,0.0,0.0,0.0,0.0,0.0,0.0,0.0,0.0,0.0,0.0,0.0,0.0,0.0,0.0,0.0,0.0,0.0,2.849,2.849,2.849,2.849,2.849,2.849,2.849,2.849,2.849,2.849,2.8736,2.9184,2.9184,2.9184,2.9184,2.9184,2.8922,2.849,2.849,2.8894,0.0,0.0,3.0079,3.0984,3.1203,3.1499,3.1825,3.239,3.2591,3.2676,3.3168,3.4338,3.5675,3.6181,3.7063,3.8046,3.8634,3.9017,3.9283,3.9388,3.9406,3.9406,3.9406,3.9406,3.9406,3.9406,3.9406,3.9406,3.9406,3.9406,3.9427,3.9553,3.9785,4.0013,4.0033,4.0296,4.0826,4.1771,4.2317,4.2956,4.3913,4.436,4.4591,4.4591,4.4591,4.4591,4.4591,4.4591,4.4144,4.3079,4.2402,4.1232,3.943,3.843,3.7477,3.6507,3.6507,3.6507,3.6507,3.6507,3.6507,3.6507,3.6507,3.6507,3.6538,0.0,3.7738,3.8365,3.8947,3.9566,4.0096,4.0096,4.0096,4.0096,4.0096,4.0096,4.0096,0.0,0.0,0.0,0.0,0.0,0.0,0.0,0.0,0.0,0.0,0.0,0.0,0.0,0.0,0.0,0.0,0.0,0.0,0.0,0.0,2.849,2.849,2.849,2.849,2.849,2.849,2.849,2.849,2.849,2.849,2.849,2.849,2.849,2.849,2.849,2.849,2.849,2.849,2.9015,2.99,2.9962,3.0558,3.1469,0.0,3.2244,3.239,3.2914,3.3102,3.3102,3.3102,3.4079,3.5285,3.5406,3.6615,3.8075,3.849,3.8764,3.8998,3.9301,3.9406,3.9406,3.9406,3.9406,3.9406,3.9406,3.9406,3.9406,3.9406,3.9406,3.9406,3.9406,3.9711,3.9907,3.9768,4.0141,4.0911,4.2169,4.2477,4.3094,4.4437,4.4591,4.4591,4.4591,4.4591,4.4591,4.4591,4.4514,4.416,4.3498,4.291,4.1907,4.0397,3.9153,3.7908,3.663,3.663,3.66,3.6507,3.6507,3.6507,3.6507,3.6507,3.6507,3.6538,3.7223,3.7825,3.8348,3.9041,3.9631,4.0096,4.0096,4.0096,4.0096,4.0096,4.0096,4.0096,0.0,0.0,0.0,0.0,0.0,0.0,0.0,0.0,0.0,0.0,2.4155,2.5052,0.0,0.0,0.0,0.0,0.0,0.0,0.0,0.0,0.0,2.849,2.849,2.849,2.849,2.849,2.849,2.849,2.849,2.849,2.849,2.849,2.849,2.849,2.849,2.849,2.849,2.849,2.8797,2.9295,2.9794,3.0558,3.1469,3.2001,0.0,0.0,3.3065,3.3102,3.3102,3.3102,3.3304,3.3662,3.4384,3.4944,3.5655,3.7261,3.7866,3.8234,3.9141,3.9406,3.9406,3.9406,3.9406,3.9406,3.9406,3.9406,3.9406,3.9406,3.9406,3.9406,3.9406,3.9589,3.9803,3.9925,4.0172,4.0856,4.2329,4.2584,4.3094,4.4437,4.4591,4.4591,4.4591,4.4591,4.4591,4.4591,4.4083,4.3482,4.2817,4.2663,4.1691,3.9737,3.8907,3.8107,3.7338,3.7323,3.7046,3.6507,3.6507,3.6507,3.6507,3.6507,3.6507,3.6569,3.7679,0.0,3.8376,3.9497,4.0007,4.0096,4.0096,4.0096,4.0096,4.0096,4.0096,4.0096,0.0,0.0,0.0,0.0,0.0,0.0,0.0,2.3091,2.3091,2.3091,2.3495,2.4112,2.5009,2.5934,2.665,0.0,0.0,0.0,0.0,0.0,0.0,0.0,2.849,2.849,2.849,2.849,2.849,2.849,0.0,2.849,2.849,2.849,2.849,2.849,2.849,2.849,2.849,2.849,2.8906,2.9622,3.0191,3.0968,3.1876,0.0,0.0,0.0,3.3102,3.3102,3.3102,3.3102,3.3102,3.324,3.4126,3.4752,3.5453,3.6919,3.7415,3.7734,3.8925,3.9247,3.9265,3.9355,3.9406,3.9406,3.9406,3.9406,3.9406,3.9406,3.9406,3.9406,3.9406,3.9571,3.9732,3.9821,4.0086,4.0804,4.2239,4.2529,4.3094,4.4437,4.4591,4.4591,4.4591,4.4591,4.4591,4.4591,4.3994,4.3313,4.2648,4.1907,4.0891,3.9537,3.9184,3.8691,3.8031,3.8031,3.7861,3.7538,3.7538,3.7353,3.7015,3.7015,3.683,3.6538,3.7103,3.7533,3.7895,3.8808,3.9159,3.9229,3.985,3.9722,3.9242,3.9863,3.9905,3.9683,0.0,0.0,0.0,0.0,0.0,0.0,0.0,2.3144,2.3091,2.3091,2.3091,2.3375,2.4112,2.4988,2.56,0.0,0.0,0.0,0.0,0.0,0.0,0.0,0.0,0.0,2.849,0.0,0.0,2.849,2.849,0.0,0.0,0.0,0.0,0.0,2.849,2.849,2.849,2.849,2.9023,0.0,0.0,3.1299,3.2114,0.0,0.0,0.0,0.0,3.3102,3.3102,3.3102,3.3102,3.3219,3.3907,3.4558,3.5285,3.6352,3.6783,3.7204,3.842,3.8889,3.9086,3.9283,3.9337,3.9337,3.9388,3.9406,3.9406,3.9406,3.9406,3.9406,3.9406,3.9535,3.9661,3.9681,3.9963,4.0664,4.2099,4.2441,4.3057,4.4437,4.4591,4.4591,4.4591,4.4591,4.4529,4.4391,4.3621,4.2943,4.2417,4.1184,4.0259,3.9737,3.9722,3.9384,3.8722,3.8707,3.863,3.8491,3.8491,3.8214,3.7707,3.7707,3.7353,3.6723,3.6847,3.7093,3.7461,3.8053,3.8292,3.839,3.9348,3.9199,3.8615,3.9562,3.9696,3.9457,0.0,0.0,0.0,0.0,0.0,0.0,0.0,2.3254,2.3091,2.3091,2.3091,2.3135,2.3222,2.4048,2.4935,0.0,0.0,0.0,0.0,0.0,0.0,0.0,0.0,0.0,0.0,0.0,0.0,2.849,2.849,0.0,0.0,0.0,0.0,0.0,0.0,2.849,2.849,2.849,0.0,0.0,0.0,0.0,0.0,0.0,0.0,0.0,0.0,3.3102,3.3102,3.3102,3.3102,3.3124,3.3197,3.3283,3.3535,3.4622,3.5453,3.6273,3.7357,3.8234,3.8889,3.9086,3.9123,3.9177,3.9355,3.9406,3.9406,3.9406,3.9406,3.9406,3.9406,3.9424,3.9481,3.9679,3.9735,4.0346,4.2062,4.2316,4.2879,4.4418,4.4591,4.4591,4.4591,4.4591,4.4344,4.3747,4.2512,4.1755,4.1694,4.0937,4.0459,4.0397,4.0397,4.0091,3.9414,3.9414,3.9091,3.8491,3.8491,3.8477,3.8399,3.8399,3.8046,3.7431,3.7981,3.7911,0.0,3.8053,3.8292,3.8306,3.8418,3.8726,3.9122,3.9246,3.9588,4.002,0.0,0.0,0.0,0.0,0.0,0.0,2.3273,2.3166,2.3091,2.3091,2.3091,2.3091,2.3091,2.344,2.3799,2.4145,0.0,0.0,0.0,0.0,0.0,0.0,0.0,0.0,0.0,0.0,2.849,2.849,2.849,0.0,0.0,0.0,0.0,0.0,0.0,2.8007,2.8471,2.8075,0.0,0.0,0.0,0.0,0.0,0.0,0.0,0.0,0.0,0.0,3.3102,3.3102,3.3102,3.3102,3.3102,3.3102,3.3283,3.4238,3.4752,3.5339,3.6914,3.7582,3.8032,3.8889,3.9104,3.9141,3.9337,3.9406,3.9406,3.9406,3.9406,3.9406,3.9406,3.9406,3.9424,3.9499,3.9625,4.0221,4.1731,4.204,4.2691,4.4243,4.4416,4.4473,4.4587,4.4591,4.416,4.3079,4.2125,4.1417,4.0968,4.0676,4.0489,4.0489,4.0489,4.0366,4.0107,4.0107,3.9968,3.9707,3.9707,3.9491,3.9091,3.9091,3.8738,3.8124,3.8367,3.8074,0.0,3.8108,3.7914,3.7297,3.8025,3.801,3.7756,3.93,3.9533,3.9303,0.0,0.0,0.0,0.0,0.0,2.3123,2.321,2.3157,2.3091,2.3091,2.3091,2.3091,2.3091,2.3091,2.3091,2.3091,2.3712,0.0,0.0,0.0,0.0,0.0,0.0,0.0,0.0,0.0,2.849,2.849,2.849,2.849,0.0,0.0,2.849,2.8451,0.0,0.0,0.0,0.0,0.0,0.0,0.0,0.0,0.0,0.0,0.0,0.0,0.0,0.0,0.0,0.0,0.0,3.2855,3.304,3.3102,3.3219,3.3844,3.4189,3.4696,3.6009,3.6738,3.7352,3.8364,3.8819,3.9086,3.9337,3.9406,3.9406,3.9406,3.9406,3.9406,3.9406,3.9406,3.9406,3.9406,3.9517,4.0094,4.1493,4.182,4.247,4.4033,4.4205,4.4301,4.4477,4.4214,4.3636,4.2679,4.1786,4.1045,4.052,4.0489,4.0489,4.0489,4.0489,4.0489,4.0489,4.0489,4.0489,4.0489,4.0489,4.0243,3.9799,3.9799,3.943,3.8799,3.8799,3.8431,0.0,3.8263,3.7904,3.7171,3.8032,3.7956,3.7592,3.9358,3.9698,3.9531,0.0,0.0,0.0,0.0,0.0,0.0,2.346,2.3276,2.3091,2.3091,2.3091,2.3091,2.3091,2.3091,2.3091,2.3091,2.3113,0.0,0.0,0.0,0.0,0.0,0.0,0.0,0.0,0.0,2.849,2.849,2.849,2.849,2.849,2.849,2.849,2.8451,0.0,0.0,0.0,0.0,0.0,0.0,0.0,0.0,0.0,0.0,0.0,0.0,0.0,0.0,0.0,0.0,0.0,0.0,0.0,3.3102,3.3102,3.3124,3.3717,3.4397,3.4418,3.5649,3.7,3.7396,3.8163,3.8907,3.9301,3.9406,3.9406,3.9406,3.9406,3.9406,3.9406,3.9406,3.9406,3.9406,3.9406,3.9946,4.1475,4.1708,4.2282,4.3821,4.4007,4.4069,4.4281,4.3291,4.2633,4.2602,4.1307,4.0505,4.0489,4.0489,4.0489,4.0489,4.0489,4.0489,4.0489,4.0489,4.0489,4.0489,4.0489,4.0489,4.0489,4.0489,4.0105,3.9491,3.9491,3.9107,0.0,3.8508,3.8492,3.8492,3.8477,3.8852,3.9361,3.9408,4.0204,4.1269,0.0,0.0,0.0,0.0,0.0,0.0,0.0,2.3157,2.3091,2.3091,2.3091,2.3091,2.3091,2.3091,2.3091,2.3091,2.3091,0.0,0.0,0.0,0.0,0.0,0.0,0.0,0.0,0.0,2.6958,2.7623,2.6958,2.6978,2.7592,2.6958,2.6659,2.6618,2.5903,2.5945,0.0,0.0,0.0,0.0,0.0,0.0,3.0344,0.0,0.0,0.0,0.0,0.0,0.0,0.0,0.0,0.0,0.0,0.0,0.0,3.3102,3.3304,3.3768,3.4924,3.5608,3.6405,3.7994,3.8601,3.8907,3.9301,3.9406,3.9406,3.9406,3.9406,3.9406,3.9406,3.9406,3.9406,3.9406,3.9406,3.9891,4.1303,4.1483,4.2069,4.3603,4.391,4.3844,4.3446,4.2665,4.2001,4.1544,4.0675,4.0224,4.0349,4.0349,4.0401,4.0489,4.0489,4.0489,4.0489,4.0489,4.0489,4.0489,4.0489,4.0489,4.0489,4.0489,4.0382,4.0166,4.0166,3.9799,3.9184,3.9184,3.8907,3.8491,3.8491,3.8899,3.9581,4.0508,4.1081,4.1642,0.0,0.0,0.0,0.0,0.0,0.0,0.0,2.3091,2.3091,2.3091,2.3091,2.3091,2.3091,2.3091,2.3091,2.3091,2.3091,0.0,0.0,0.0,0.0,0.0,0.0,0.0,2.5305,2.5642,2.608,2.667,2.608,2.6101,2.665,2.608,2.5798,2.5756,2.5105,2.5179,0.0,0.0,0.0,0.0,0.0,0.0,2.9829,0.0,0.0,0.0,0.0,0.0,0.0,0.0,0.0,0.0,0.0,0.0,0.0,0.0,3.3102,3.3398,3.4759,3.5427,3.6134,3.7866,3.8601,3.8998,3.9319,3.9406,3.9406,3.9406,3.9406,3.9406,3.9406,3.9406,3.9406,3.9406,3.9406,3.9873,4.1209,4.1403,4.192,4.3387,4.3754,4.3613,4.2947,4.2356,4.1711,4.1043,4.0375,4.0049,4.0172,4.0189,4.0242,4.0314,4.042,4.0487,4.0436,4.0436,4.0383,4.0314,4.0383,4.0436,4.0436,4.0472,4.0489,4.0489,4.0489,4.0259,0.0,3.9876,3.963,3.9245,3.9245,3.9513,3.9987,4.08,4.1278,4.1689,0.0,0.0,0.0,0.0,0.0,0.0,0.0,2.3091,2.3091,2.3091,2.3157,2.3178,2.3123,2.3157,2.3178,2.3123,0.0,0.0,0.0,0.0,0.0,0.0,0.0,0.0,2.4413,2.52,2.5631,2.5714,2.5631,2.5631,2.5714,2.5663,2.5631,2.561,2.502,2.4946,0.0,0.0,0.0,0.0,0.0,0.0,0.0,0.0,0.0,0.0,0.0,0.0,0.0,0.0,0.0,0.0,0.0,0.0,0.0,0.0,0.0,0.0,0.0,3.5128,3.6174,3.7319,3.8345,3.9141,3.9337,3.9406,0.0,3.9406,3.9406,3.9406,3.9406,3.9406,3.9406,3.9406,3.9436,3.9915,4.1224,4.1478,4.1968,4.316,4.3492,4.3339,4.2676,4.2168,4.1613,4.0946,4.0324,3.996,3.9978,3.9978,3.9978,4.0011,4.0296,4.0401,4.0277,4.0277,4.0189,4.0013,4.0207,4.0296,4.0329,4.0453,4.0489,4.0489,4.0489,4.0489,4.0489,4.0489,4.0489,4.0489,4.0489,4.0524,4.0576,4.0576,4.099,4.1559,0.0,0.0,0.0,0.0,0.0,0.0,0.0,0.0,0.0,0.0,2.3734,2.3907,2.3178,2.3734,2.3885,0.0,0.0,0.0,0.0,0.0,0.0,0.0,0.0,0.0,2.344,2.3626,2.4091,2.4808,2.4091,2.4102,2.4787,2.4273,2.4036,2.4046,2.425,2.4829,0.0,0.0,0.0,0.0,0.0,0.0,0.0,0.0,0.0,0.0,2.9792,2.9792,0.0,0.0,0.0,0.0,0.0,0.0,0.0,0.0,3.3102,3.3283,3.4168,0.0,3.6332,3.805,3.88,3.9141,0.0,3.9406,3.9406,3.9406,3.9406,3.9406,3.9406,3.9406,3.9406,3.9406,3.9825,4.0442,4.1283,4.2237,4.2965,4.326,4.2935,4.2439,4.1779,4.1138,4.0514,3.9835,3.964,3.9622,3.9768,3.9768,3.9839,4.0011,4.0084,4.0101,4.0066,4.0066,4.0119,4.0242,4.0277,4.0349,4.0437,4.0489,4.0489,4.0489,4.0489,4.0489,4.0489,4.0489,4.0489,4.0489,4.0489,4.0802,4.1259,4.1259,4.169,4.2269,0.0,0.0,0.0,0.0,0.0,0.0,0.0,0.0,0.0,0.0,0.0,0.0,0.0,0.0,0.0,0.0,0.0,0.0,0.0,0.0,0.0,0.0,0.0,2.3091,2.3091,2.3091,2.3353,2.3864,2.3353,2.3375,2.3842,2.3484,2.3385,2.3547,2.4412,2.4956,0.0,0.0,0.0,0.0,2.928,0.0,0.0,0.0,0.0,0.0,2.9792,2.9792,0.0,2.9792,3.0168,3.0688,0.0,0.0,0.0,0.0,3.3102,3.3304,3.4272,3.5278,3.6397,3.7847,3.8727,3.9265,3.9388,3.9406,3.9406,3.9406,3.9406,3.9406,3.9406,3.9406,3.9496,3.981,4.0172,4.0726,4.1718,4.2701,4.329,4.329,4.2761,4.2141,4.1463,4.0786,4.0127,3.9451,3.9406,3.946,3.9553,3.9571,3.9607,3.9729,3.9729,3.9765,3.9872,3.9872,3.9872,3.9892,3.998,4.0104,4.0261,4.0366,4.0453,4.0489,4.0489,4.0489,4.0489,4.0489,4.0489,4.0489,4.0489,4.0715,4.104,4.104,4.1276,4.1591,0.0,0.0,0.0,0.0,0.0,0.0,0.0,0.0,0.0,0.0,0.0,0.0,0.0,0.0,0.0,0.0,0.0,0.0,0.0,0.0,0.0,0.0,2.3091,2.3091,2.3091,2.3091,2.3091,2.3091,2.3144,2.3166,2.3166,2.3232,2.3406,2.3689,2.484,2.5031,0.0,0.0,0.0,0.0,2.9072,0.0,0.0,0.0,0.0,0.0,0.0,0.0,0.0,2.9792,3.0168,3.0688,3.1223,0.0,0.0,0.0,0.0,0.0,3.4259,3.5366,3.6467,3.7338,3.8397,3.9247,3.9355,3.9406,3.9406,3.9406,3.9406,3.9406,3.9406,3.9406,3.9616,4.0292,4.0561,4.1134,4.2361,4.2985,4.326,4.3175,4.2631,4.1972,4.1313,4.0636,4.0023,3.9436,3.9406,3.9406,3.9406,3.9302,3.9242,3.9242,3.9242,3.9331,3.9495,3.96,3.9589,3.946,3.9625,3.9821,4.0049,4.0224,4.0366,4.0489,0.0,0.0,4.0489,4.0489,4.0489,4.0489,4.0489,4.0489,4.0489,4.0489,4.0489,4.0489,0.0,0.0,0.0,0.0,0.0,0.0,0.0,0.0,0.0,0.0,0.0,0.0,0.0,0.0,0.0,0.0,0.0,0.0,0.0,0.0,0.0,2.3091,2.3091,2.3091,2.3091,2.3091,2.3091,2.3091,2.3319,2.3438,2.346,2.3851,2.4131,2.4347,2.4551,2.4594,2.4615,0.0,0.0,0.0,2.9072,0.0,0.0,0.0,0.0,0.0,0.0,0.0,0.0,2.9792,3.0168,3.0688,3.1223,0.0,0.0,0.0,0.0,0.0,3.3535,3.504,3.6744,3.761,3.8113,3.8557,3.9247,3.9406,3.9406,3.9406,3.9406,3.9406,3.9406,3.9406,3.9616,4.0292,4.1343,4.2346,4.3055,4.325,4.3115,4.2601,4.1957,4.1283,4.0606,3.9963,3.9511,3.9406,3.9406,3.9406,3.9406,3.8871,3.8542,3.8542,3.8542,3.8559,3.8594,3.9161,3.9517,3.9646,3.9696,3.9892,4.0259,4.0294,4.0366,4.0489,0.0,4.0489,4.0489,4.0489,4.0489,4.0489,4.0489,4.0489,4.0489,4.0489,4.0489,4.0489,0.0,0.0,0.0,0.0,0.0,0.0,0.0,0.0,0.0,0.0,0.0,0.0,0.0,0.0,0.0,0.0,0.0,0.0,0.0,0.0,2.3091,2.3091,2.3091,2.3091,2.3091,2.3091,2.3157,2.3319,2.3438,2.3569,2.3667,2.4024,2.4249,2.439,2.5432,2.538,2.4679,2.7406,2.7991,0.0,0.0,0.0,0.0,0.0,0.0,0.0,0.0,0.0,0.0,0.0,3.0168,3.0688,3.1223,0.0,0.0,0.0,0.0,0.0,3.3717,3.4821,3.6134,3.7121,3.8117,3.894,3.9334,3.9406,3.9406,3.9406,3.969,3.9948,3.9948,4.0247,4.0696,4.1373,4.2267,4.2985,4.3245,4.301,4.272,4.2425,4.1493,4.0726,4.0427,3.978,3.9406,3.9406,3.9406,3.9242,3.8886,3.8556,3.8227,3.7868,3.7853,3.8033,3.8409,3.8706,3.9086,3.9535,3.9535,3.975,4.0137,4.0137,4.0261,4.0489,0.0,4.0489,4.0489,4.0489,4.0489,4.0489,4.0489,4.0489,4.0489,4.0489,4.0489,4.0489,0.0,0.0,0.0,0.0,0.0,0.0,0.0,0.0,0.0,0.0,0.0,0.0,0.0,0.0,0.0,0.0,0.0,0.0,0.0,0.0,2.3091,2.3091,2.3091,2.3091,2.3091,2.3091,2.3232,2.3503,2.3547,2.3721,2.397,2.4175,2.4261,2.4347,2.6038,2.6038,2.5009,2.8163,2.8692,0.0,0.0,0.0,0.0,0.0,0.0,0.0,0.0,0.0,0.0,0.0,0.0,0.0,0.0,0.0,0.0,3.3208,3.3441,3.3556,3.3992,3.4731,3.5588,3.6425,3.7881,3.9174,3.937,3.9526,3.9631,3.9631,4.0172,4.0621,4.0621,4.1194,4.1792,4.2321,4.291,4.329,4.329,4.2776,4.2336,4.2186,4.1134,4.0337,4.0187,3.969,3.9406,3.9406,3.9406,3.9167,3.8661,3.8482,3.8078,3.7417,3.7387,3.7659,3.8153,3.8317,3.8736,3.9406,3.9406,3.9622,4.0011,4.0011,4.0174,4.0489,4.0489,4.0489,4.0489,4.0489,4.0489,4.0489,4.0489,4.0489,4.0489,4.0489,4.0489,4.0489,0.0,0.0,0.0,0.0,0.0,0.0,0.0,0.0,0.0,0.0,0.0,0.0,0.0,0.0,0.0,0.0,0.0,0.0,0.0,0.0,2.3091,2.3091,2.3091,2.3091,2.3091,2.3091,2.3232,2.3503,2.3699,2.4013,2.4454,2.4475,2.4475,2.4518,2.5463,2.583,2.5819,2.7778,2.8522,2.8482,2.9417,0.0,0.0,0.0,0.0,0.0,0.0,0.0,0.0,0.0,0.0,0.0,0.0,0.0,3.3082,3.3322,3.3535,3.3734,3.4013,3.4868,3.5676,3.577,3.7053,3.8482,3.9228,3.987,4.0337,4.0337,4.0846,4.1328,4.1328,4.1886,4.2351,4.2396,4.291,4.329,4.329,4.2776,4.2171,4.1553,4.0831,4.0157,3.9526,3.9436,3.9406,3.9406,3.9406,3.9376,3.9331,3.8736,3.8078,3.7417,3.7387,3.7417,3.7462,3.8078,3.8736,3.9406,3.9406,3.9622,4.0011,4.0011,4.0174,4.0489,4.0489,4.0489,4.0489,4.0489,4.0489,4.0489,4.0489,4.0489,4.0489,4.0489,4.0489,4.0489,0.0,0.0,0.0,0.0,0.0,0.0,0.0,0.0,0.0,0.0,0.0,0.0,0.0,0.0,0.0,0.0,0.0,0.0,0.0,2.3188,2.3091,2.3091,2.3091,2.3188,2.3351,2.3351,2.345,2.3699,2.4067,2.4325,2.4497,2.4497,2.4497,2.4561,2.5987,2.6297,2.5944,2.8323,2.9,2.8581,2.9456,0.0,0.0,0.0,0.0,0.0,0.0,0.0,0.0,0.0,3.0783,3.1469,3.1788,3.2441,3.3154,3.3492,3.3641,3.3789,3.4189,3.5332,3.634,3.5816,3.6956,3.8379,3.9059,3.9413,3.9858,4.0812,4.1553,4.2137,4.2502,4.2791,4.297,4.297,4.3145,4.3175,4.2776,4.2182,4.1523,4.0846,4.0187,3.9675,3.9421,3.9406,3.9406,3.9406,3.9406,3.9212,3.8796,3.8544,3.8078,3.7417,3.7387,3.7599,3.8018,3.8257,3.8736,3.9406,3.9406,3.9622,4.0011,4.0011,4.0174,4.0489,4.0489,4.0489,4.0489,4.0489,4.0489,4.0489,4.0489,4.0489,4.0489,4.0489,4.0489,4.0584,0.0,0.0,0.0,0.0,0.0,0.0,0.0,0.0,0.0,0.0,0.0,0.0,0.0,0.0,0.0,0.0,0.0,0.0,2.359,2.3276,2.3157,2.3309,2.3254,2.3341,2.359,2.3677,2.3786,2.3937,2.4304,2.4497,2.4497,2.4497,2.4497,2.4583,2.6308,2.6771,2.6359,2.8784,2.9456,2.8961,2.9566,2.9792,0.0,0.0,0.0,0.0,0.0,0.0,0.0,0.0,3.1072,3.1725,3.2068,3.2604,3.3176,3.3577,3.389,3.4212,3.4682,3.5655,3.6444,3.6142,3.6747,3.7748,3.9107,3.9412,3.9847,4.1401,4.2226,4.2806,4.322,4.329,4.329,4.329,4.329,4.3085,4.2485,4.1807,4.1149,4.0472,3.981,3.9406,3.9406,3.9406,3.9406,3.9406,3.9406,3.9197,3.8736,3.8721,3.8407,3.7749,3.7719,3.7943,3.8409,3.8409,3.8736,3.9406,3.9406,3.9622,4.0011,4.0011,4.0174,4.0489,4.0489,4.0489,4.0489,4.0489,4.0489,4.0489,4.0489,4.0489,4.0489,4.0489,4.0489,4.0614,0.0,0.0,0.0,0.0,0.0,0.0,0.0,0.0,0.0,0.0,0.0,0.0,0.0,0.0,0.0,0.0,0.0,0.0,2.3797,2.3363,2.3309,2.3776,2.3612,2.3612,2.3797,2.4067,2.4206,2.4206,2.439,2.4497,2.4497,2.4497,2.4497,2.4583,2.6308,2.711,2.7212,2.902,2.9792,2.9792,2.9792,2.9792,2.9792,0.0,0.0,0.0,0.0,0.0,0.0,0.0,3.1315,3.2194,3.2206,3.2616,3.3176,3.3577,3.4317,3.5094,3.5555,3.5709,3.5896,3.6699,3.63,3.6478,3.9427,4.0085,4.0524,4.2087,4.288,4.329,4.329,4.329,4.329,4.329,4.329,4.307,4.2485,4.1807,4.1149,4.0472,3.9795,3.9406,3.9406,3.9406,3.9406,3.9406,3.9406,3.9406,3.9406,3.9406,3.9092,3.8422,3.8424,3.8424,3.8424,3.8424,3.8736,3.9406,3.9406,3.9622,4.0011,4.0011,4.0174,4.0489,4.0489,4.0489,4.0489,4.0489,4.0489,4.0489,4.0489,4.0489,4.0489,4.0489,4.0489,4.063,0.0,0.0,0.0,0.0,0.0,0.0,0.0,0.0,0.0,0.0,0.0,0.0,0.0,0.0,0.0,0.0,0.0,0.0,2.4088,2.3776,2.3636,2.3797,2.3732,2.3829,2.4088,2.4304,2.4411,2.4411,2.4475,2.4497,2.4497,2.4497,2.4497,2.4583,2.6308,2.711,2.7212,2.902,2.9792,2.9792,2.9792,2.9792,2.9792,0.0,0.0,0.0,0.0,0.0,0.0,0.0,0.0,0.0,3.2692,3.2964,3.3154,3.342,3.3776,3.4163,3.4488,3.5534,3.6464,3.6142,3.6766,3.792,3.9697,3.963,3.973,4.1706,4.2742,4.329,4.329,4.329,4.329,4.329,4.294,4.2436,4.1792,4.1134,4.0442,3.9765,3.9526,3.9406,3.9406,3.9406,3.9406,3.9406,3.9406,3.9406,3.9406,3.9406,3.9316,3.9107,3.9092,3.9092,3.9092,3.9092,3.9197,3.9406,3.9406,3.9622,4.0011,4.0011,4.0174,4.0489,4.0489,4.0489,4.0489,4.0489,4.0489,4.0489,4.0489,4.0489,4.0489,4.0489,4.083,4.1368,0.0,0.0,0.0,0.0,0.0,0.0,0.0,0.0,0.0,0.0,2.5263,0.0,0.0,0.0,0.0,0.0,0.0,0.0,0.0,2.4002,2.3884,2.4057,2.3992,2.4067,2.4304,2.4433,2.4497,2.4497,2.4497,2.4679,2.4999,2.4658,2.4679,2.5084,2.6474,2.711,2.7212,2.8653,2.9475,2.9772,2.9417,2.9495,2.9792,0.0,0.0,0.0,0.0,0.0,0.0,0.0,0.0,0.0,3.2989,3.3102,3.3154,3.3441,3.386,3.4296,3.4641,3.5555,3.6385,3.6221,3.6708,3.754,3.8889,3.9925,4.0952,4.2254,4.2935,4.329,4.329,4.329,4.322,4.2985,4.2646,4.2081,4.1134,4.0651,4.0157,3.9481,3.9406,3.9406,3.9406,3.9406,3.9406,3.9406,3.9406,3.9406,3.9406,3.9406,3.9406,3.9406,3.9406,3.9406,3.9406,3.9406,3.9406,3.9406,3.9406,3.9622,4.0011,4.0011,4.0174,4.0489,4.0489,4.0489,4.0489,4.0489,4.0489,4.0489,4.0489,4.0489,4.0536,4.083,4.1232,4.1724,0.0,0.0,0.0,0.0,0.0,0.0,0.0,0.0,0.0,0.0,2.5263,2.5463,0.0,0.0,0.0,0.0,0.0,0.0,0.0,0.0,2.4057,2.4475,2.4335,2.4304,2.4497,2.4497,2.454,2.4615,2.4615,2.502,2.5777,2.5062,2.5168,2.5965,2.6833,2.7232,2.7273,2.8131,2.9,2.9721,2.885,2.902,2.9792,2.9792,0.0,0.0,0.0,0.0,0.0,0.0,0.0,0.0,3.3102,3.3102,3.3176,3.3535,3.4233,3.4972,3.5393,3.5609,3.5876,3.6601,3.6401,3.6336,3.763,4.0629,4.309,4.3011,4.3071,4.3145,4.3145,4.3145,4.2951,4.2391,4.2261,4.1777,4.0561,4.0352,4.0064,3.9466,3.9406,3.9406,3.9406,3.9406,3.9406,3.9406,3.9406,3.9406,3.9406,3.9406,3.9406,3.9406,3.9406,3.9406,3.9406,3.9406,3.9406,3.9406,3.9406,3.9622,4.0011,4.0011,4.0174,4.0489,4.0489,4.0489,4.0489,4.0489,4.0489,4.0489,4.0489,4.0536,4.0691,4.1355,4.1678,4.1955,0.0,0.0,0.0,0.0,0.0,0.0,0.0,0.0,0.0,0.0,0.0,0.0,0.0,0.0,0.0,0.0,0.0,0.0,0.0,0.0,2.439,2.4497,2.4454,2.4454,2.4497,2.4497,2.4839,2.5526,2.5526,2.5621,2.5798,2.6308,2.6639,2.6853,2.779,2.8191,2.8211,2.8422,2.9,2.9721,2.885,2.902,2.9792,2.9792,2.9792,0.0,0.0,0.0,0.0,0.0,0.0,0.0,3.3102,3.3102,3.3124,3.3197,3.3598,3.3995,3.41,3.4896,3.5736,3.5916,3.7175,3.8451,3.875,4.0366,4.1601,4.0876,4.1296,4.1803,4.1803,4.1803,4.1777,4.1628,4.1179,4.0726,4.0442,3.9963,3.9556,3.9421,3.9406,3.9406,3.9406,3.9406,3.9406,3.9406,3.9406,3.9406,3.9406,3.9406,3.9406,3.9406,3.9406,3.9406,3.9406,3.9406,3.9406,3.9406,3.9406,3.9622,4.0011,4.0011,4.0174,4.0489,4.0489,4.0489,4.0489,4.0489,4.0489,4.0489,4.0489,4.0861,4.1386,4.154,4.2281,4.3205,0.0,0.0,0.0,0.0,0.0,0.0,0.0,0.0,0.0,0.0,0.0,0.0,0.0,0.0,0.0,0.0,0.0,0.0,0.0,0.0,2.4497,2.4497,2.4497,2.4497,2.4497,2.4903,2.5337,2.5798,2.6668,2.7098,2.7098,2.711,2.7334,2.779,2.8283,2.8502,2.8502,2.8502,2.9,2.9721,2.885,2.902,2.9792,2.9792,2.9955,3.0256,3.0796,0.0,0.0,0.0,0.0,0.0,0.0,0.0,3.3124,3.3219,3.3462,3.3747,3.3852,3.4468,3.5073,3.5073,3.6276,3.7465,3.7465,3.8384,3.9112,3.8613,4.0045,4.1403,4.1403,4.1403,4.1298,4.0965,4.0621,4.0292,3.9978,3.9616,3.9406,3.9406,3.9406,3.9406,3.9406,3.9406,3.9406,3.9406,3.9406,3.9406,3.9406,3.9406,3.9406,3.9406,3.9406,3.9406,3.9406,3.9406,3.9406,3.9406,3.9406,3.9622,4.0011,4.0172,4.0331,4.0489,4.0489,4.0489,4.0489,4.0489,4.0489,4.0489,4.0489,4.0953,4.1632,4.1971,4.2709,4.3655,0.0,0.0,0.0,0.0,0.0,0.0,0.0,0.0,0.0,0.0,0.0,0.0,0.0,0.0,0.0,0.0,0.0,0.0,0.0,0.0,0.0,2.4497,2.4497,2.4497,2.4497,2.5358,2.5861,2.6027,2.7698,2.8581,2.8712,2.7931,2.7971,2.8732,2.8732,2.8732,2.8712,2.8561,2.9,2.9721,2.885,2.902,2.9804,2.9892,3.0218,3.0676,3.1311,3.1825,3.2303,3.2901,0.0,0.0,0.0,0.0,3.3133,3.3292,3.3492,3.3704,3.3928,3.416,3.4356,3.4397,3.5053,3.5709,3.5709,3.632,3.69,3.69,3.9005,4.0852,4.0852,4.0965,4.0861,4.0322,4.0232,4.0019,3.9481,3.9406,3.9406,3.9406,3.9406,3.9406,3.9406,3.9406,3.9406,3.9406,3.9406,3.9406,3.9406,3.9406,3.9406,3.9406,3.9406,3.9406,3.9406,3.9406,3.9406,3.9406,3.9478,3.9676,4.0013,4.0349,4.0489,4.0489,4.0489,4.0489,4.0489,4.0489,4.0489,4.0505,4.0645,4.1122,4.1848,4.2525,4.3205,4.3855,0.0,0.0,0.0,0.0,0.0,0.0,0.0,0.0,0.0,0.0,2.4594,2.4636,0.0,0.0,0.0,0.0,0.0,0.0,2.4497,0.0,0.0,2.4497,2.4497,2.4497,2.4497,2.5358,2.6173,2.6926,2.7991,2.8902,2.9624,2.9507,2.9507,2.9624,2.9624,2.9624,2.9585,2.8811,2.9,2.9721,2.885,2.902,2.9842,3.0331,3.0538,3.0726,3.1717,3.2152,3.2303,3.2901,3.3102,0.0,0.0,0.0,3.3124,3.3133,3.3283,3.3462,3.3484,3.3802,3.4181,3.4356,3.5053,3.5709,3.5709,3.632,3.69,3.69,3.7816,3.8633,3.8633,3.9206,3.9631,3.9556,3.9526,3.9496,3.9406,3.9406,3.9406,3.9406,3.9406,3.9406,3.9406,3.9406,3.9406,3.9406,3.9406,3.9406,3.9406,3.9406,3.9406,3.9406,3.9406,3.9406,3.9406,3.9406,3.9406,3.9406,3.9747,3.9958,4.0013,4.0349,4.0489,4.0489,4.0489,4.0489,4.0489,4.0489,4.0489,4.0551,4.1199,4.1878,4.2556,4.322,4.3882,4.4468,0.0,0.0,0.0,0.0,0.0,0.0,0.0,0.0,0.0,0.0,0.0,2.4497,0.0,0.0,0.0,2.4497,2.4497,2.4497,2.4497,2.4497,2.4497,2.4497,2.4497,2.4743,2.5221,2.608,2.6976,2.7879,2.8803,2.9417,2.9792,2.9792,2.9792,2.9792,2.9792,2.9792,2.9772,2.9397,2.9456,2.9772,2.9378,2.9642,3.0281,3.05,3.0964,3.1554,3.2018,3.2416,3.2742,3.3014,3.3102,3.3102,3.3102,0.0,0.0,0.0,3.324,3.3462,3.3717,3.3949,3.416,3.4356,3.4696,3.4971,3.4971,3.5244,3.5514,3.5514,3.6195,3.6942,3.7386,3.7767,3.8159,3.8649,3.8738,3.8885,3.9352,3.9406,3.9406,3.9406,3.9406,3.9406,3.9406,3.9406,3.9406,3.9406,3.9406,3.9406,3.9406,3.9406,3.9406,3.9406,3.9406,3.9406,3.9406,3.9406,3.9406,3.9406,3.9679,3.9821,3.9839,4.0226,4.0436,4.0489,4.0489,4.0489,4.0489,4.0489,4.0753,4.1137,4.1478,4.2232,4.3205,4.3501,4.4006,4.4591,0.0,0.0,0.0,0.0,0.0,0.0,0.0,0.0,0.0,0.0,0.0,0.0,0.0,0.0,0.0,0.0,2.4497,2.4497,2.4497,2.4497,2.4497,2.4497,2.47,2.5137,2.5788,2.6894,2.7799,2.8502,2.9378,2.9792,2.9792,2.9792,2.9792,2.9792,2.9792,2.9792,2.9792,2.9792,2.9792,2.9804,2.9942,3.0244,3.0625,3.0901,3.1491,3.2206,3.2378,3.2717,3.3102,3.3102,3.3102,3.3102,3.3102,3.3102,0.0,0.0,0.0,3.3398,3.3802,3.3928,3.3992,3.4264,3.4314,3.4335,3.4397,3.4397,3.4397,3.4397,3.4909,3.5555,3.6148,3.6607,3.7107,3.7763,3.8056,3.8408,3.9013,3.9265,3.9406,3.9406,3.9406,3.9406,3.9406,3.9406,3.9406,3.9406,3.9406,3.9406,3.9406,3.9406,3.9406,3.9406,3.9406,3.9406,3.9406,3.9406,3.9406,3.9406,3.9607,3.9699,3.9699,4.0121,4.0349,4.0437,4.0489,4.0489,4.0489,4.0489,4.0937,4.1617,4.1786,4.2574,4.3624,4.3793,4.416,4.4591,0.0,0.0,0.0,0.0,0.0,0.0,0.0,0.0,0.0,0.0,0.0,0.0,2.4497,2.4497,2.4497,2.4497,2.4497,2.4497,2.4497,2.4497,2.4497,2.4497,2.5285,0.0,2.5798,2.7536,2.8462,2.8502,2.9378,2.9792,2.9792,2.9792,2.9792,2.9792,2.9792,2.9792,2.9792,2.9792,2.9792,2.9842,3.0337,3.0575,3.0701,3.1717,3.2144,3.2256,3.2851,3.3077,3.3102,3.3102,3.3102,3.3102,3.3102,3.3102,3.3102,0.0,0.0,0.0,3.3377,3.3441,3.3547,3.3992,3.4118,3.4181,3.4356,3.4397,3.4397,3.4397,3.4439,3.4481,3.4509,3.5829,3.69,3.6958,3.7668,3.8221,3.8258,3.8922,3.9406,3.9406,3.9406,3.9406,3.9406,3.9406,3.9406,3.9406,3.9406,3.9406,3.9406,3.9406,3.9406,3.9406,3.9406,3.9406,3.9406,3.9406,3.9406,3.9406,3.9607,3.9699,3.9699,4.0121,4.0296,4.0329,4.0437,4.0489,4.0489,4.0489,4.0937,4.1663,4.2309,4.2989,4.3685,4.4298,4.4575,4.4591,0.0,0.0,0.0,0.0,0.0,0.0,0.0,0.0,0.0,0.0,0.0,0.0,0.0,2.5962,2.6334,2.6291,2.6334,2.5955,2.5006,2.4941,2.5046,2.5316,2.5621,2.6338,2.7516,2.8171,2.8771,2.9326,2.9643,2.9792,2.9792,2.9792,2.9792,2.9792,2.9792,2.9993,3.0319,3.0319,3.052,3.0834,3.1035,3.1323,3.1667,3.2043,3.2441,3.2813,3.3027,3.3102,3.3102,3.3102,3.3102,3.3102,3.3102,3.3102,3.3102,3.3102,3.3102,3.3133,3.3356,3.3398,3.3471,3.3768,3.3971,3.4118,3.4202,3.4222,3.4222,3.4222,3.4063,3.4,3.4181,3.4806,3.5474,3.6042,3.6393,3.6975,3.8037,3.8445,3.8811,3.9352,3.9406,3.9406,3.9406,3.9406,3.9406,3.9406,3.9406,3.9406,3.9406,3.9406,3.9406,3.9406,3.9406,3.9406,3.9406,3.9406,3.9406,3.9406,3.9463,3.9499,3.9517,3.9925,4.0101,4.0119,4.0279,4.0366,4.0397,4.07,4.1226,4.1931,4.275,4.3446,4.4097,4.446,4.4591,4.4591,0.0,0.0,0.0,0.0,0.0,0.0,0.0,0.0,0.0,2.5897,0.0,0.0,0.0,0.0,2.7382,2.7349,2.7371,2.6767,2.5308,2.5211,2.5375,2.5778,2.6069,2.6955,2.8462,2.8791,2.9229,2.9792,2.9792,2.9792,2.9792,2.9792,2.9892,3.0068,3.0068,3.0269,3.06,3.0789,3.1072,3.1432,3.1599,3.1888,3.2206,3.2428,3.2742,3.3102,3.3102,3.3102,3.3102,3.3102,3.3102,3.3102,3.3102,3.3102,3.3102,3.3102,3.3102,3.3133,3.3261,3.3292,3.3356,3.3556,3.3725,3.3907,3.4055,3.4034,3.3992,3.4076,3.3894,3.3755,3.3915,3.4063,3.4405,3.5142,3.5507,3.6076,3.7188,3.7848,3.8389,3.8922,3.9228,3.9406,3.9406,3.9406,3.9406,3.9406,3.9406,3.9406,3.9406,3.9406,3.9406,3.9406,3.9406,3.9406,3.9406,3.9406,3.9406,3.9406,3.9406,3.9406,3.9406,3.9747,3.9907,3.9907,4.0033,4.0278,4.0628,4.089,4.1529,4.2397,4.3048,4.3666,4.4224,4.4435,4.4496,4.4496,0.0,0.0,0.0,0.0,0.0,0.0,0.0,0.0,2.5939,2.5939,0.0,0.0,0.0,0.0,0.0,2.7514,2.7514,2.6899,2.5428,2.532,2.5473,2.5884,2.67,2.7577,2.8522,2.9378,2.9792,2.9792,2.9792,2.9792,2.9792,2.9792,3.0093,3.06,3.0613,3.0625,3.0676,3.1198,3.1424,3.1486,3.2026,3.224,3.2303,3.2889,3.3102,3.3124,3.3102,3.3102,3.3102,3.3102,3.3102,3.3102,3.3102,3.3102,3.3102,3.3102,3.3102,3.3102,0.0,0.0,0.0,3.3334,3.3398,3.3526,3.3971,3.3873,3.3755,3.4034,3.3873,3.367,3.3691,3.3691,3.3839,3.4314,3.5094,3.5669,3.5676,3.7111,3.8165,3.8165,3.8885,3.9388,3.937,3.9388,3.9406,3.9406,3.9406,3.9406,3.9406,3.9406,3.9406,3.9406,3.9406,3.9406,3.9406,3.9406,3.9406,3.9406,3.9406,3.9406,3.9406,3.9607,3.9699,3.9699,3.9729,4.0288,4.1201,4.1067,4.1783,4.3005,4.3228,4.3602,4.4026,4.4224,4.4301,4.4301,0.0,0.0,0.0,0.0,0.0,2.6902,2.6902,2.6902,2.6902,0.0,0.0,0.0,2.7848,2.942,3.0434,3.0434,3.0434,2.9826,2.8386,2.794,2.79,2.8313,2.818,2.8534,2.9417,2.9675,2.9792,2.9792,2.9792,2.9792,2.9792,2.9792,3.0093,3.0613,3.1009,3.1399,3.1767,3.1926,3.2227,3.2638,3.2801,3.2936,3.3077,3.3091,3.3197,3.3292,3.3154,3.3102,3.3102,3.3102,3.3102,3.3102,3.3102,3.3102,3.3102,3.3102,3.3102,3.3102,3.3102,0.0,0.0,0.0,0.0,0.0,3.3569,3.3547,3.3492,3.359,3.342,3.3313,3.3462,3.3471,3.3577,3.3852,3.4259,3.4744,3.5318,3.6484,3.7256,3.7256,3.8527,3.9174,3.859,3.9065,3.9406,3.9406,3.9406,3.9406,3.9406,3.9406,3.9406,3.9406,3.9406,3.9406,3.9406,3.9406,3.9406,3.9406,3.9406,3.9406,3.9406,3.9607,3.9699,3.9729,4.0212,4.087,4.1544,4.1343,4.1798,4.2614,4.3324,4.368,4.3808,4.4007,4.4181,4.4281,0.0,0.0,0.0,0.0,0.0,2.7309,2.7309,2.762,2.788,0.0,0.0,0.0,2.9818,3.0924,3.1603,3.1603,3.1603,3.0988,2.959,2.9213,2.9114,2.928,2.8996,2.9141,2.9804,2.9792,2.9792,2.9792,2.9792,2.9792,2.9792,2.9792,3.0206,3.0947,3.1248,3.1838,3.2579,3.2579,3.2788,3.3124,3.3197,3.3261,3.3283,3.3334,3.3313,3.3283,3.324,3.3176,3.3102,3.3102,3.3102,3.3102,3.3102,3.3102,3.3102,3.3102,3.3102,3.3102,3.3102,3.3102,3.3102,3.3102,0.0,0.0,3.3492,3.3398,3.3313,3.3492,3.3292,3.3133,3.3261,3.3283,3.3313,3.3441,3.3725,3.4147,3.4711,3.5722,3.6405,3.6405,3.7876,3.8719,3.824,3.8922,3.9406,3.9406,3.9406,3.9406,3.9406,3.9406,3.9406,3.9406,3.9406,3.9406,3.9406,3.9406,3.9406,3.9406,3.9406,3.9406,3.9391,3.9517,3.9571,3.9601,4.028,4.0957,4.1584,4.176,4.2197,4.2845,4.3446,4.3616,4.3557,4.3793,4.3949,4.4026,0.0,0.0,2.7631,2.7631,2.7631,2.7631,2.7631,2.8328,2.8863,0.0,2.9738,3.0666,3.1514,3.1691,3.1769,3.1769,3.1769,3.1245,2.9979,2.9831,2.9746,2.9637,2.95,2.9576,2.9873,2.9829,2.9792,2.9792,2.9811,2.9811,2.9792,2.985,3.0428,3.1406,3.1447,3.2076,3.3133,3.3133,3.3154,3.3176,3.3334,3.3304,3.3176,3.3535,3.3441,3.3154,3.3313,3.3261,3.3102,3.3102,3.3102,3.3102,3.3102,3.3102,3.3102,3.3102,3.3102,3.3102,3.3102,3.3102,3.3102,3.3102,3.3102,0.0,3.3556,3.3356,3.3197,3.3556,3.3356,3.3102,3.3102,3.3102,3.3102,3.3102,3.3441,3.3789,3.4013,3.5012,3.5669,3.5568,3.7111,3.8165,3.8075,3.8867,3.9406,3.9406,3.9406,3.9406,3.9406,3.9406,3.9406,3.9406,3.9406,3.9406,3.9406,3.9406,3.9406,3.9406,3.9406,3.9406,3.9406,3.9406,3.9436,3.9556,4.0232,4.0894,4.1553,4.2226,4.2821,4.3309,4.3557,4.3518,4.3329,4.3577,4.367,4.371,0.0,2.9624,2.9624,2.9624,2.9624,2.9624,2.9624,2.9784,2.992,2.992,3.0745,3.1403,3.1581,3.2329,3.2797,3.2797,3.2797,3.2695,3.242,3.1944,3.1661,3.1639,3.0817,3.0378,3.0437,3.0018,2.9792,2.9792,2.9953,2.9953,2.9811,3.0133,3.0678,3.1419,3.1777,3.2474,3.3334,3.3334,3.3441,3.3577,3.3462,3.3377,3.3356,3.3441,3.342,3.3334,3.3197,3.3133,3.3102,3.3102,3.3102,3.3102,3.3102,3.3102,3.3102,3.3102,3.3102,3.3102,3.3102,3.3102,3.3102,3.3102,3.3102,0.0,3.3197,3.3154,3.3124,3.3197,3.3154,3.3102,3.3102,3.3102,3.3102,3.3102,3.3441,3.3725,3.3768,3.4896,3.5447,3.4737,3.6761,3.7929,3.7223,3.8509,3.9406,3.9406,3.9406,3.9406,3.9406,3.9406,3.9406,3.9406,3.9406,3.9406,3.9406,3.9406,3.9406,3.9406,3.9406,3.9406,3.9406,3.9406,3.969,4.0247,4.0905,4.1583,4.2261,4.288,4.319,4.3309,4.3364,4.3364,4.3309,4.3364,4.3518,4.367,2.961,2.9986,3.0192,3.0192,3.0192,3.0192,3.0192,3.0599,3.0902,3.0902,3.1735,3.2351,3.2351,3.2797,3.3102,3.3102,3.3102,3.3102,3.3102,3.2826,3.2516,3.2206,3.1518,3.1024,3.0747,3.0211,3.0011,3.0094,3.0094,3.0094,3.0094,3.0209,3.0623,3.1318,3.163,3.2268,3.3165,3.3327,3.3462,3.3556,3.3556,3.3556,3.3556,3.3696,3.3611,3.3398,3.3304,3.3197,3.3102,3.3102,3.3102,3.3102,3.3102,3.3102,3.3102,3.3102,3.3102,3.3102,3.3102,3.3102,3.3102,3.3102,3.3102,0.0,0.0,3.3176,3.3133,3.324,3.3176,3.3102,3.3102,3.3102,3.3102,3.3102,3.3356,3.3556,3.3556,3.4413,3.5053,3.5053,3.6517,3.7539,3.7539,3.8671,3.9406,3.9406,3.9406,3.9406,3.9406,3.9406,3.9406,3.9406,3.9406,3.9406,3.9406,3.9406,3.9406,3.9406,3.9406,3.9406,3.9406,3.9406,3.9765,4.0442,4.1119,4.1777,4.2455,4.304,4.329,4.329,4.329,4.329,4.329,4.329,4.3384,4.3483,2.9676,3.0175,3.0581,3.0581,3.0685,3.0756,3.0756,3.1392,3.1901,3.1901,3.2602,3.3102,3.3102,3.3102,3.3102,3.3102,3.3102,3.3124,3.3154,3.3124,3.286,3.2357,3.204,3.1597,3.0984,3.0527,3.035,3.0406,3.0286,3.0286,3.0406,3.0267,3.0541,3.1148,3.1336,3.196,3.2861,3.3182,3.3382,3.3535,3.3662,3.3662,3.362,3.3865,3.3717,3.3334,3.3334,3.324,3.3102,3.3102,3.3102,3.3102,3.3102,3.3102,3.3102,3.3102,3.3102,3.3102,3.3102,3.3102,3.3102,3.3102,3.3102,3.3133,0.0,0.0,0.0,3.3313,3.3219,3.3102,3.3102,3.3102,3.3065,3.2952,3.3186,3.336,3.3259,3.383,3.453,3.5223,3.6405,3.7352,3.7853,3.8668,3.9228,3.9388,3.9247,3.9228,3.9388,3.9406,3.9406,3.9406,3.9406,3.9406,3.9406,3.9406,3.9406,3.9406,3.9406,3.9406,3.9406,3.9526,3.9945,4.0621,4.1298,4.1972,4.2601,4.31,4.329,4.329,4.329,4.329,4.329,4.329,4.329,4.329,3.1067,3.1601,3.1974,3.1974,3.2418,3.2776,3.2776,3.2862,3.2939,3.2939,3.3025,3.3102,3.3102,3.3102,3.3102,3.3102,3.3102,3.3176,3.3356,3.3197,3.3021,3.282,3.2614,3.208,3.1188,3.1111,3.0849,3.0406,3.0552,3.0552,3.0406,3.0552,3.0746,3.0952,3.1324,3.192,3.2657,3.2858,3.3386,3.3992,3.3789,3.3492,3.3197,3.3398,3.3347,3.3133,3.3133,3.3124,3.3102,3.3102,3.3102,3.3102,3.3102,3.3102,3.3102,3.3102,3.3102,3.3102,3.3102,3.3102,3.3102,3.3102,3.3102,3.3124,3.3133,0.0,3.3124,3.3133,0.0,3.3102,3.3102,0.0,0.0,3.239,3.292,3.3221,3.2747,3.3321,3.3818,3.3924,3.6379,3.7706,3.6875,3.7725,3.8631,3.9352,3.8738,3.8645,3.9355,3.9406,3.9406,3.9406,3.9406,3.9406,3.9406,3.9406,3.9406,3.9406,3.9406,3.9406,3.9421,4.0023,4.0651,4.1328,4.2006,4.2646,4.3205,4.326,4.329,4.329,4.329,4.329,4.329,4.329,4.329,4.329,3.0901,3.1373,3.1838,3.2152,3.2416,3.2692,3.3052,3.3102,3.3102,3.3102,3.3102,3.3102,3.3102,3.3102,3.3102,3.3102,3.3102,3.3133,3.3219,3.3261,3.3246,3.3195,3.2744,3.2289,3.1892,3.1248,3.0861,3.0748,3.0717,3.0717,3.0748,3.0717,3.0776,3.0971,3.1216,3.1628,3.217,3.2677,3.3101,3.3415,3.3618,3.3535,3.3292,3.3492,3.3377,3.3102,3.3102,3.3102,3.3102,3.3102,3.3102,3.3102,3.3102,3.3102,3.3102,3.3102,3.3102,3.3102,3.3102,3.3102,3.3102,3.3102,3.3102,3.3102,3.3102,3.3102,3.3102,3.3102,0.0,0.0,0.0,0.0,0.0,0.0,3.3003,3.3164,3.2924,3.3685,3.4304,3.4449,3.5669,3.6777,3.7462,3.8356,3.9046,3.9355,3.9101,3.9046,3.9388,3.9406,3.9406,3.9406,3.9406,3.9406,3.9406,3.9406,3.9406,3.9406,3.9406,3.9406,3.9421,4.0079,4.0775,4.1433,4.2111,4.275,4.329,4.329,4.329,4.329,4.329,4.329,4.329,4.329,4.329,4.329,3.1055,3.1281,3.1665,3.2296,3.2464,3.2655,3.3036,3.3102,3.3102,3.3102,3.3102,3.3102,3.3102,3.3102,3.3102,3.3102,3.3102,3.3124,3.3176,3.3313,3.3322,3.3122,3.2792,3.2426,3.2039,3.1344,3.1005,3.1005,3.0849,3.0855,3.1005,3.0792,3.0773,3.0924,3.1016,3.1287,3.1675,3.2272,3.2608,3.2808,3.3193,3.3304,3.3288,3.3598,3.3471,3.3176,3.3176,3.3154,3.3102,3.3102,3.3102,0.0,3.3102,3.3102,3.3102,3.3102,3.3102,3.3102,3.3102,3.3102,3.3102,3.3102,3.3102,3.3102,3.3102,3.3102,3.3102,3.3102,3.3102,0.0,0.0,0.0,3.3052,3.2889,0.0,3.304,3.2889,3.3673,3.4304,3.447,3.4931,3.5889,3.7591,3.8341,3.88,3.905,3.9083,3.9174,3.9388,3.9406,3.9406,3.9406,3.9406,3.9406,3.9406,3.9406,3.9406,3.9406,3.9406,3.9406,3.9436,4.0292,4.0954,4.1448,4.2286,4.2895,4.329,4.329,4.329,4.329,4.329,4.329,4.329,4.329,4.329,4.329,3.2083,3.1851,3.1937,3.2742,3.3146,3.3294,3.313,3.3102,3.3102,3.3102,3.3102,3.3102,3.3102,3.3102,3.3102,3.3102,3.3102,3.3176,3.3377,3.3398,3.3105,3.2444,3.2916,3.2512,3.1078,3.151,3.151,3.1005,3.0986,3.0986,3.1005,3.0792,3.0698,3.0717,3.0711,3.0907,3.1221,3.1461,3.1875,3.2419,3.2432,3.264,3.2966,3.3499,3.3577,3.3398,3.3398,3.3283,3.3102,3.3102,3.3102,0.0,0.0,0.0,3.3102,3.3102,3.3102,3.3102,3.3102,3.3102,3.3102,3.3102,3.3102,3.3102,3.3102,3.3102,3.3102,3.3102,3.3102,3.3102,3.3102,3.3102,3.2914,3.2307,3.2717,0.0,0.0,3.2759,3.3154,3.3154,3.4254,3.5433,3.6548,3.6841,3.7333,3.8183,3.824,3.859,3.937,3.9406,3.9406,3.9406,3.9406,3.9406,3.9406,3.9406,3.9406,3.9406,3.9406,3.9406,3.9451,4.0775,4.1373,4.1463,4.2726,4.3275,4.329,4.329,4.329,4.329,4.329,4.329,4.329,4.329,4.329,4.329,3.3865,3.3487,3.3045,3.2925,3.2993,3.3125,3.3276,3.3178,3.3102,3.3102,3.3102,3.3102,3.3102,3.3219,3.324,3.3124,3.3219,3.3283,3.3219,3.3462,3.3496,3.3278,3.3003,3.2632,3.2143,3.1561,3.1182,3.1005,3.1005,3.1005,3.1005,3.093,3.0892,3.0892,3.0892,3.0959,3.1091,3.1384,3.1617,3.1843,3.2238,3.247,3.268,3.3609,3.3654,3.3219,3.3356,3.3283,0.0,3.3102,3.3102,3.3102,3.3102,3.3102,3.3102,3.3102,3.3102,3.3102,0.0,0.0,3.3102,3.3102,0.0,3.3102,3.3102,3.3102,3.3102,3.3102,3.3102,3.3102,3.3102,3.3102,3.304,3.2839,3.2977,3.3027,0.0,3.2977,3.3102,3.3102,3.4212,3.5264,3.5943,3.7078,3.7891,3.8183,3.8701,0.0,3.9388,3.9406,3.9406,3.9406,3.9406,3.9406,3.9406,3.9406,3.9406,3.9406,3.9406,3.9406,3.9451,4.0786,4.1403,4.1463,4.2756,4.329,4.329,4.329,4.329,4.329,4.329,4.329,4.329,4.329,4.329,4.3349,3.4776,3.4572,3.4146,3.3636,3.3458,3.355,3.4019,3.3638,3.3411,3.3636,3.3334,3.3102,3.3102,3.3219,3.324,3.3124,3.3219,3.3283,3.3219,3.3513,3.3657,3.3527,3.2933,3.2528,3.2378,3.1394,3.093,3.1005,3.1005,3.1005,3.1005,3.1005,3.1005,3.1005,3.1005,3.1005,3.1013,3.1239,3.1318,3.137,3.1889,3.2043,3.2074,3.3036,3.3181,3.295,0.0,3.3119,3.3102,3.3102,3.3102,3.3102,3.3102,3.3102,3.3102,3.3102,3.3102,3.3102,3.3102,3.3102,0.0,3.3102,3.3102,0.0,3.2839,3.2788,3.2788,3.2788,3.2638,3.2625,3.3027,3.2927,3.2851,3.3065,3.3102,3.3102,0.0,3.3102,3.3133,3.3197,3.3995,3.478,3.5393,3.6844,3.7872,3.8183,3.894,3.9406,3.9406,3.9406,3.9406,3.9406,3.9406,3.9406,3.9406,3.9406,3.9406,3.9406,3.9406,3.9526,3.978,4.0909,4.1523,4.1807,4.2846,4.329,4.329,4.329,4.329,4.329,4.329,4.329,4.329,4.329,4.329,4.3444,3.4835,3.5082,3.5098,3.4798,3.4542,3.4558,3.5173,3.4391,3.3962,3.4556,3.3755,3.3124,3.3102,3.3124,3.3124,3.3102,3.3124,3.3197,3.3398,3.3598,3.3545,3.3238,3.2704,3.2233,3.1843,3.1091,3.0811,3.1005,3.1005,3.1005,3.1005,3.1005,3.1005,3.1005,3.1005,3.1005,3.1005,3.1005,3.1005,3.1039,3.1351,3.1345,3.1214,3.1792,3.2214,3.2506,3.2552,3.2773,3.3027,3.3052,3.3052,3.3065,3.309,3.3102,3.3102,3.3102,3.3102,3.3102,3.3102,3.3102,3.3102,3.3102,3.3102,0.0,0.0,0.0,3.2231,3.2231,3.1838,3.1821,3.2864,3.2604,3.2428,3.2977,3.3077,3.3102,3.3102,3.3124,3.3197,3.3377,3.362,3.4087,3.4869,3.6134,3.7242,3.8075,3.8922,3.9406,3.9406,3.9406,3.9406,3.9406,3.9406,3.9406,3.9406,3.9406,3.9406,3.9406,3.9406,3.975,4.0427,4.1085,4.1782,4.2425,4.3025,4.329,4.329,4.329,4.329,4.329,4.329,4.329,4.329,4.329,4.3319,4.3549,3.5329,3.5277,3.5228,3.5277,3.5285,3.5111,3.4637,3.4492,3.4258,3.3793,3.3492,3.3283,3.3124,3.3377,3.3441,3.3133,3.324,3.3334,3.3398,3.3598,3.3649,3.3583,3.2959,3.2514,3.2252,3.1394,3.0949,3.1005,3.1005,3.1005,3.1005,3.1005,3.1005,3.1005,3.1005,3.1005,3.1005,3.1005,3.1005,3.0999,3.0916,3.0778,3.0618,0.0,3.0809,3.1186,3.178,3.1939,3.1909,3.2303,3.2441,3.2503,3.2964,3.3102,3.3102,3.3102,3.3102,3.3102,3.3102,3.3102,3.3102,3.3102,3.3102,3.3052,0.0,0.0,0.0,0.0,0.0,0.0,0.0,3.2667,3.2767,3.2478,3.2813,3.3102,3.3102,3.324,3.3334,3.3398,3.4275,3.4739,3.4364,3.5889,3.6977,3.7218,3.8579,3.9406,3.9406,0.0,3.9406,3.9406,3.9406,3.9406,3.9406,3.9406,3.9406,3.9406,3.9406,3.975,4.0427,4.1085,4.1782,4.2425,4.3025,4.329,4.329,4.329,4.329,4.329,4.329,4.329,4.329,4.329,4.3624,4.4162,3.5444,3.5423,3.5359,3.5488,3.5638,3.5581,3.5072,3.5283,3.513,3.4103,3.3882,3.3654,3.3154,3.3292,3.3356,3.3124,3.3283,3.3441,3.3535,3.3641,3.3797,3.4,3.3009,3.246,3.252,3.1351,3.0804,3.1005,3.0911,3.0911,3.1005,3.1005,3.1005,3.1005,3.1005,3.1005,3.1005,3.1005,3.0911,3.0729,3.0609,3.0457,0.0,3.0049,3.0097,3.0313,3.0754,3.1138,3.1436,3.175,3.1851,3.1913,3.2261,3.2525,3.2726,3.2726,3.2901,3.3102,3.3102,3.3102,3.3102,3.3102,3.3102,3.3027,3.2776,3.2726,3.2726,0.0,3.2525,3.2411,0.0,0.0,3.2315,3.2227,3.2726,3.3102,3.3102,3.3283,3.3398,3.3398,3.4204,3.46,3.4139,3.6142,3.7462,3.7462,3.8671,3.9406,0.0,3.9406,3.9406,3.9406,3.9406,3.9406,3.9406,3.9406,3.9406,3.9406,3.9406,3.9885,4.0846,4.1224,4.1912,4.2806,4.3145,4.329,4.329,4.329,4.329,4.329,4.329,4.329,4.329,4.329,4.3728,4.4386,3.5385,3.5504,3.5504,3.5504,3.5651,3.5766,3.5693,3.6017,3.5853,3.468,3.4371,3.3958,3.3188,3.3154,3.3176,3.3133,3.3313,3.3488,3.3589,3.3631,3.3774,3.4085,3.2785,3.2197,3.2541,3.1158,3.0615,3.1005,3.0811,3.0811,3.1005,3.1005,3.1005,3.1005,3.1005,3.0986,3.0968,3.0968,3.0729,3.0406,3.0368,3.0254,3.0075,2.9888,2.9792,2.9792,2.9792,3.0394,3.1205,3.126,3.1306,3.1298,3.1373,3.1725,3.2102,3.2102,3.2466,3.2876,3.2876,3.2876,3.2876,3.2876,3.2876,3.2751,3.2215,3.2102,3.2102,3.2102,3.1788,3.1796,0.0,0.0,3.167,3.2181,3.2726,3.3124,3.3176,3.3334,3.3462,3.3484,3.3992,0.0,3.416,3.6492,3.8037,3.8037,3.8885,3.9406,0.0,0.0,3.9406,3.9406,3.9406,3.9406,3.9406,3.9406,3.9406,3.9406,3.9406,4.0113,4.1403,4.1403,4.2102,4.329,4.329,4.329,4.329,4.329,4.329,4.329,4.329,4.329,4.3305,4.3394,4.3863,4.4506,3.5489,3.5504,3.5504,3.5504,3.5304,3.5025,3.4636,3.4819,3.4668,3.3742,3.3598,3.3441,3.3133,3.3398,3.3535,3.3356,3.3535,3.3478,3.308,3.3212,3.3047,3.2535,3.2083,3.1811,3.1714,3.1015,3.0761,3.1005,3.0811,3.0811,3.1005,3.1005,3.1005,3.1005,3.1005,3.0911,3.0755,3.0755,3.0609,3.0387,3.0228,3.0133,3.0075,2.9888,2.9792,2.9792,2.9792,2.9917,3.0143,3.0595,3.0738,3.0821,3.1248,3.1449,3.1537,3.1537,3.1599,3.1708,3.1708,3.1708,3.1708,3.1708,3.1708,3.1683,3.1549,3.1537,3.1537,3.1537,3.1813,3.1989,3.1738,0.0,0.0,3.2486,3.2853,3.3219,3.3556,3.3641,3.3725,3.3949,3.4827,3.5135,3.4418,3.6042,3.7127,3.7127,3.8527,3.9406,3.9406,0.0,3.9406,0.0,3.9406,0.0,0.0,0.0,3.9406,3.9406,3.9406,4.0113,4.1403,4.1403,4.2102,4.329,4.329,4.329,4.329,4.329,4.329,4.329,4.329,4.329,4.3384,4.3923,4.4556,4.514,3.5504,3.5504,3.5343,3.4822,3.4424,3.393,3.3228,3.3054,3.3054,3.3216,3.3725,3.3736,3.2878,3.3085,3.3125,3.2714,3.2784,3.2793,3.2645,3.2632,3.2557,3.2426,3.1928,3.1656,3.1656,3.1021,3.0811,3.1005,3.0811,3.0811,3.1005,3.1005,3.1005,3.1005,3.1005,3.0836,3.0552,3.066,0.0,3.0094,3.0094,3.0049,2.9934,2.985,2.9792,2.9792,2.9792,2.9792,2.9829,3.0093,3.0193,3.0231,3.0482,3.0758,3.0984,3.0984,3.1173,3.1406,3.1406,3.1406,3.1406,3.1406,3.1406,3.1406,3.1406,3.1406,3.1406,3.1406,3.1825,3.2127,3.1863,3.2101,0.0,0.0,0.0,3.3166,3.3632,3.3831,3.3971,3.4076,3.4654,3.5032,3.5073,3.6168,3.69,3.69,3.8453,3.9406,3.9406,0.0,3.9406,0.0,0.0,0.0,3.9406,0.0,3.9406,3.9406,3.975,4.0442,4.1403,4.1747,4.2417,4.329,4.329,4.329,4.329,4.329,4.329,4.329,4.329,4.329,4.3384,4.4042,4.4721,4.5349,3.5439,3.5439,3.5116,3.4126,3.3525,3.2895,3.2125,3.1554,3.1587,3.2612,3.3471,3.356,3.2393,3.2512,3.2465,3.2005,3.204,3.2102,3.2133,3.2033,3.2061,3.2267,3.1721,3.1474,3.1628,3.1026,3.0773,3.093,3.0773,3.0773,3.093,3.0986,3.1005,3.1005,3.0968,3.0742,0.0,0.0,3.0279,2.9811,2.9972,2.9934,2.9792,2.9792,2.9792,2.9792,2.9792,2.9792,2.9792,2.9792,2.9792,2.9792,2.9792,3.0093,3.0425,3.0425,3.0733,3.1047,3.1047,3.1047,3.1047,3.1047,3.1047,3.1047,3.1047,3.1047,3.1047,3.1047,3.1574,3.2056,3.219,3.2433,0.0,0.0,0.0,3.3197,3.3767,3.4134,3.4314,3.4181,3.4481,3.495,3.5629,3.6425,3.6991,3.7146,3.8546,3.9406,3.9406,0.0,0.0,0.0,0.0,3.9406,3.9406,0.0,3.9406,3.9406,4.0083,4.0741,4.1418,4.2077,4.2735,4.329,4.329,4.329,4.329,4.329,4.329,4.329,4.329,4.329,4.3394,4.4207,4.4855,4.5409,3.5261,3.523,3.4935,3.3985,3.3017,3.2309,3.2054,3.1246,3.0896,3.1474,3.1652,3.1667,3.1515,3.1752,3.1868,3.1818,3.1987,3.1889,3.1356,3.1474,3.1371,3.0898,3.0991,3.1065,3.1065,3.0837,3.0717,3.0736,3.0717,3.0717,0.0,3.0911,3.1005,3.0986,0.0,0.0,0.0,3.0228,3.0011,2.9792,2.9811,2.9811,2.9792,2.9792,2.9792,2.9792,2.9792,2.9792,2.9792,2.9792,2.9792,2.9792,2.9792,2.9829,2.9867,2.9867,2.9905,2.9942,2.9942,2.9942,2.9942,2.9942,2.9942,2.9942,2.9942,2.9942,2.9942,2.9942,3.0758,3.1625,3.2106,3.2663,3.3021,0.0,0.0,3.359,3.4238,3.4834,3.4985,3.4439,3.5094,3.5609,3.5689,3.6425,3.7237,3.8018,3.8903,3.9406,3.9406,0.0,0.0,3.9406,3.9406,3.9406,3.9406,3.9406,3.9406,3.9406,4.0083,4.0741,4.1418,4.2077,4.2735,4.329,4.329,4.329,4.329,4.329,4.329,4.329,4.329,4.329,4.3439,4.4751,4.5244,4.5484,3.5034,3.5017,3.4721,3.3779,3.2887,3.2078,3.1427,3.065,3.0193,3.0407,3.1138,3.1496,3.1147,3.1309,3.1308,3.0995,3.093,3.0848,3.0734,3.0682,3.0669,3.0692,3.0773,3.0874,3.1005,3.0811,3.0755,3.0874,3.0755,3.0755,3.0874,0.0,0.0,0.0,0.0,3.0419,3.0209,3.0133,2.9972,2.9792,2.9792,2.9792,2.9792,2.9792,2.9792,2.9792,2.9792,2.9792,2.9792,2.9792,2.9792,2.9792,2.9792,2.9792,2.9792,2.9792,2.9792,2.9792,2.9792,2.9792,2.9792,2.9792,2.9792,2.9792,2.9792,2.9792,2.9792,2.9792,3.0645,3.1662,3.2566,3.2747,3.2878,3.3304,0.0,0.0,3.4283,3.46,3.4662,3.4439,3.4716,3.5305,3.6326,3.6705,3.7467,3.883,3.921,3.9406,0.0,0.0,0.0,3.9406,0.0,3.9406,3.9406,3.9406,3.9406,3.9406,4.0487,4.1149,4.1433,4.2462,4.307,4.329,4.329,4.329,4.329,4.329,4.329,4.329,4.329,4.329,4.3454,4.4811,4.5289,4.5484,3.4558,3.4703,3.4536,3.3575,3.2936,3.2281,3.1384,3.0614,3.012,3.012,3.076,3.1043,3.0611,3.0698,3.063,3.0267,3.0094,3.0094,3.0292,3.019,3.0267,3.0679,3.0641,3.0704,3.0911,3.0773,3.0736,3.0804,3.0736,3.0773,0.0,0.0,0.0,0.0,3.0387,3.0228,3.0094,3.0049,2.9934,2.9792,2.9792,2.9792,2.9792,2.9792,2.9792,2.9792,2.9792,2.9792,2.9792,2.9792,2.9792,2.9792,2.9792,2.9792,2.9792,2.9792,2.9792,2.9792,2.9792,2.9792,2.9792,2.9792,2.9792,2.9792,2.9792,2.9917,3.0118,3.0444,3.111,3.1947,3.2927,3.2924,3.2963,3.3585,0.0,0.0,3.4304,3.4613,3.4778,3.4778,3.4978,3.5702,3.7141,3.7276,3.7862,3.9283,3.9406,3.9406,0.0,0.0,0.0,0.0,0.0,0.0,3.9406,3.9406,3.9496,3.9705,4.0846,4.1493,4.1733,4.2801,4.329,4.329,4.329,4.329,4.329,4.329,4.329,4.329,4.329,4.3409,4.3743,4.4885,4.5424,4.5768,3.3752,3.4244,3.4382,3.3384,3.3196,3.2932,3.22,3.1397,3.0895,3.0895,3.0273,2.9817,2.9804,2.9824,2.9811,2.9811,2.9811,2.9888,3.0094,3.0094,3.0267,3.0679,3.0514,3.0501,3.0698,3.0698,3.059,3.0406,3.059,0.0,3.0698,0.0,3.059,3.0387,3.019,3.0094,3.0094,2.9888,2.9792,2.9792,2.9792,2.9792,2.9792,2.9792,2.9792,2.9792,2.9792,2.9792,2.9792,2.9792,2.9792,2.9792,2.9792,2.9792,2.9792,2.9792,2.9792,2.9792,2.9792,2.9792,2.9792,2.9792,2.9792,2.9792,2.9792,3.0218,3.0889,3.1943,3.2169,3.239,3.2989,3.3249,3.345,3.367,0.0,0.0,0.0,3.5135,3.5689,3.5689,3.6399,3.7218,3.8094,3.8183,3.8519,3.9352,3.9406,0.0,0.0,0.0,0.0,3.9406,3.9406,0.0,3.9406,3.9406,3.9735,4.0397,4.1089,4.1747,4.241,4.301,4.329,4.329,4.329,4.329,4.329,4.329,4.329,4.329,4.329,4.3698,4.4371,4.505,4.5723,4.639,3.2883,3.3058,3.3106,3.2783,3.2259,3.1842,3.159,3.0918,3.0233,2.975,2.9468,2.9147,2.8692,2.9327,2.9792,2.9792,2.9792,2.983,0.0,2.9895,3.0011,3.0267,3.0228,3.0286,3.0482,3.0362,3.0324,3.0406,0.0,0.0,0.0,3.0362,3.0267,3.019,2.9991,2.9895,2.9888,2.983,2.9792,2.9792,2.9792,2.9792,2.9792,2.9792,2.9792,2.9792,2.9792,2.9792,2.9792,2.9792,2.9792,2.9792,2.9792,2.9792,2.9792,2.9792,2.9792,2.9792,2.9792,2.9792,2.988,3.0256,3.0357,3.0444,3.0796,3.1022,3.1348,3.2043,3.2194,3.239,3.2989,3.3261,3.3471,3.367,3.3915,0.0,3.4377,3.5155,3.5709,3.5709,3.6405,3.7242,3.8127,3.8202,3.8519,3.9352,3.9406,0.0,0.0,0.0,0.0,0.0,3.9406,0.0,3.9406,3.9406,3.9735,4.0412,4.1089,4.1968,4.301,4.322,4.329,4.329,4.329,4.329,4.329,4.329,4.329,4.329,4.329,4.3713,4.4371,4.505,4.5723,4.6405,3.2119,3.2322,3.2497,3.2497,3.2082,3.1744,3.1744,3.1104,3.0361,2.964,2.9302,2.8836,2.817,2.8737,0.0,2.9164,2.9164,2.9164,2.9164,2.9164,2.9334,2.9745,2.9682,2.9859,3.0273,3.0152,0.0,3.0292,3.0247,3.0209,3.0171,3.0113,3.0068,2.9972,2.9869,2.9792,2.9792,2.9792,2.9792,2.9792,2.9792,2.9792,2.9792,2.9792,2.9792,2.9792,2.9792,2.9792,2.9792,2.9792,2.9792,2.9792,2.9792,2.9792,2.9792,2.9792,2.9792,2.9829,3.0043,3.0105,3.0231,3.0771,3.0909,3.1047,3.1574,3.17,3.1863,3.2416,3.2541,3.2641,3.3027,3.3334,3.3556,3.367,3.3979,3.4377,3.4819,3.5366,3.593,3.6551,3.7078,3.771,0.0,3.8664,3.8848,3.9355,3.9406,0.0,0.0,0.0,0.0,3.9406,3.9406,3.9406,3.9406,3.9406,3.9855,4.0786,4.1683,4.2517,4.329,4.329,4.329,4.329,4.329,4.329,4.329,4.329,4.329,4.329,4.329,4.3863,4.4736,4.5155,4.5888,4.6734,3.1437,3.1945,3.2366,0.0,3.2366,0.0,3.2366,3.173,3.0996,3.0273,2.952,2.8778,2.8075,2.7996,2.7996,2.7996,0.0,0.0,2.8109,2.8109,2.8422,2.915,2.9001,2.9265,3.0062,3.0075,3.0075,3.0075,3.0273,3.0171,2.9792,2.9991,2.9972,2.9792,2.9792,2.9792,2.9792,2.9792,2.9792,2.9792,2.9792,2.9792,2.9792,2.9792,2.9792,2.9792,2.9792,2.9792,2.9792,2.9792,2.9792,2.9792,2.9792,2.9792,2.9792,2.9792,2.9836,2.9967,3.045,3.0625,3.0776,3.1323,3.1494,3.1637,3.2152,3.2256,3.2428,3.2989,3.3102,3.3102,3.3102,3.3441,3.3691,3.3691,3.4092,3.4696,3.5588,3.5749,3.6373,3.8,0.0,0.0,3.9334,3.9406,3.9406,0.0,3.9406,0.0,0.0,0.0,3.9406,3.9406,3.9406,3.9406,3.9406,3.9406,4.0083,4.1418,4.2696,4.329,4.329,4.329,4.329,4.329,4.329,4.329,4.329,4.329,4.329,4.329,4.329,4.4117,4.5289,4.5289,4.6142,4.7309,0.0,0.0,3.1047,3.1047,3.1047,3.1047,3.1047,3.0895,3.0311,2.9089,2.8762,2.8182,2.7015,2.6889,2.6889,2.6889,2.762,2.8109,2.8109,2.8109,2.8348,2.8957,2.8925,2.9202,2.9856,2.9869,2.9869,2.9869,2.9914,2.9888,2.9792,2.985,2.985,2.9792,2.9792,2.9792,2.9792,2.9792,2.9792,2.9792,2.9792,2.9792,2.9792,2.9792,2.9792,2.9792,2.9792,2.9792,2.9792,2.9792,2.9792,2.9792,2.9792,2.9792,2.9792,2.9792,3.0093,3.0437,3.0563,3.0909,3.1336,3.1888,3.2353,3.2738,3.2864,3.2889,3.2939,3.3077,3.3102,3.3102,3.3102,3.3441,3.3691,3.3691,3.4092,3.4696,3.5588,3.6221,3.7005,0.0,3.8738,3.9192,3.9388,3.9406,3.9406,0.0,0.0,3.9406,3.9406,3.9406,3.9406,3.9406,3.9406,3.9406,3.9406,3.9406,4.0083,4.1418,4.2696,4.329,4.329,4.329,4.329,4.329,4.329,4.329,4.329,4.329,4.329,4.329,4.329,4.4117,4.5289,4.5289,4.6142,4.7309,3.0598,3.0598,3.0598,3.0598,3.0357,3.0251,3.0553,3.0054,2.9376,2.8604,2.823,2.7653,2.6607,2.6499,2.6499,2.6499,2.7022,2.7374,2.7374,2.7374,2.7708,2.8493,2.853,2.8919,2.9779,2.9792,2.9792,2.9792,2.9792,2.9792,2.9792,2.9792,2.9792,2.9792,2.9792,2.9792,2.9792,2.9792,2.9792,2.9792,2.9792,2.9792,2.9792,2.9792,2.9792,2.9792,2.9792,2.9792,2.9792,2.9792,2.9792,2.9792,2.9792,2.9967,3.0168,3.0168,3.0382,3.0701,3.119,3.1529,3.1901,3.2466,3.2864,3.3102,3.3102,3.3102,3.3102,3.3102,3.3102,3.3102,3.3102,3.3356,3.3556,3.3556,3.3958,3.4696,3.5943,3.6562,3.7357,3.8594,3.9137,3.9406,3.9406,3.9406,3.9406,3.9406,3.9406,0.0,3.9406,3.9406,3.9406,3.9406,3.9406,3.9406,3.9406,4.0023,4.0666,4.1418,4.2696,4.329,4.329,4.329,4.329,4.329,4.329,4.329,4.329,4.329,4.329,4.3319,4.3638,4.4386,4.5334,4.5648,4.6411,4.7309,3.0598,3.0522,3.0447,3.0447,2.9885,2.9638,3.0206,2.9268,2.846,2.8363,2.7838,2.7246,2.6572,2.6499,2.6499,2.6499,2.6499,2.6499,2.6499,2.6575,2.7047,2.8059,2.8185,2.8725,2.9786,2.9792,2.9792,2.9792,2.9792,2.9792,2.9792,2.9792,2.9792,2.9792,2.9792,2.9792,2.9792,2.9792,2.9792,2.9792,2.9792,2.9792,2.9792,2.9792,2.9792,2.9792,2.9792,2.9792,2.9792,2.9792,2.9792,2.9804,2.9892,3.0231,3.0625,3.0789,3.0839,3.1039,3.1943,3.2277,3.2466,3.2977,3.3102,3.3102,3.3102,3.3102,3.3102,3.3102,3.3102,3.3102,3.3102,3.3261,3.342,3.3441,3.3823,3.4641,3.6247,0.0,3.7486,3.9031,3.9334,3.9406,3.9406,3.9406,3.9406,3.9406,3.9406,3.9406,3.9406,3.9406,3.9406,3.9406,3.9406,3.9406,3.9406,4.0726,4.1403,4.1418,4.2696,4.329,4.329,4.329,4.329,4.329,4.329,4.329,4.329,4.329,4.329,4.3384,4.4042,4.4721,4.5379,4.6046,4.6719,4.7309,3.0598,3.0145,2.9762,2.9762,2.9156,2.8714,2.881,2.8636,2.8298,2.7736,2.7554,2.7246,2.6572,2.6499,2.6499,2.6499,2.6499,2.6499,2.6499,2.6909,2.7462,2.8084,2.853,2.9095,2.9798,2.9792,2.9792,2.9792,2.9792,2.9792,2.9792,2.9792,2.9792,2.9792,2.9792,2.9792,2.9792,2.9792,2.9792,2.9792,2.9792,2.9792,2.9792,2.9792,2.9792,2.9792,2.9792,2.9792,2.9792,2.9792,2.9792,2.988,3.0324,3.0525,3.0776,3.1679,3.1943,3.198,3.2144,3.2566,3.2989,3.3077,3.3102,3.3102,3.3102,3.3102,3.3102,3.3102,3.3102,3.3102,3.3102,3.3261,3.3462,3.3641,3.3894,3.4522,3.5676,0.0,3.7285,3.8277,3.8991,3.9406,3.9406,3.9406,3.9406,3.9406,3.9406,3.9406,3.9406,3.9406,3.9406,3.9406,3.9406,3.9406,3.9406,4.0726,4.1403,4.1418,4.2696,4.329,4.329,4.329,4.329,4.329,4.329,4.329,4.329,4.329,4.329,4.3384,4.4042,4.4721,4.5379,4.6046,4.6719,4.7309,2.961,2.9546,2.9468,2.9077,2.8425,2.8084,2.8443,2.7887,2.7434,2.7501,2.7196,2.685,2.6521,2.6499,2.6499,2.6499,2.6499,2.6499,2.6499,2.6997,2.755,2.8084,2.8618,2.9183,2.9779,2.9792,2.9792,2.9792,2.9792,2.9792,2.9792,2.9792,2.9792,2.9792,2.9792,2.9792,2.9792,2.9792,2.9792,2.9792,2.9792,2.9792,2.9792,2.9792,2.9792,2.9792,2.9792,2.9792,2.9792,2.9792,2.9792,2.9892,3.0425,3.0809,3.1185,3.1976,3.2441,3.2679,3.2679,3.2889,3.3102,3.3102,3.3102,3.3102,3.3102,3.3102,3.3102,3.3102,3.3102,3.3102,3.3102,3.3176,3.3292,3.3513,3.3725,0.0,0.0,3.6306,3.7213,3.8108,3.8903,3.9406,3.9406,3.9406,3.9406,3.9406,3.9406,3.9406,3.9406,3.9406,3.9406,3.9406,3.9406,3.9406,3.9406,4.0726,4.1403,4.1418,4.2696,4.329,4.329,4.329,4.329,4.329,4.329,4.329,4.329,4.329,4.329,4.3394,4.4451,4.5035,4.5424,4.6471,4.7018,4.7309,2.87,2.8826,2.8935,2.8376,2.7703,2.7434,2.7953,2.7162,2.6692,2.7196,2.6816,2.6499,2.6499,2.6499,2.6499,2.6499,2.6499,2.6499,2.6499,2.711,2.7657,2.8084,2.8743,2.934,2.9779,2.9792,2.9792,2.9792,2.9792,2.9792,2.9792,2.9792,2.9792,2.9792,2.9792,2.9792,2.9792,2.9792,2.9792,2.9792,2.9792,2.9792,2.9792,2.9792,2.9792,2.9792,2.9792,2.9792,2.9792,2.9792,2.988,3.008,3.062,3.1148,3.1687,3.2252,3.2729,3.3102,3.3102,3.3102,3.3102,3.3102,3.3102,3.3102,3.3102,3.3102,3.3102,3.3102,3.3102,3.3102,3.3102,3.3102,3.3176,3.3377,0.0,0.0,0.0,3.6035,3.7069,3.7744,3.876,3.9406,3.9406,3.9406,3.9406,3.9406,3.9406,3.9406,3.9406,3.9406,3.9406,3.9406,3.9406,3.9406,3.9406,4.0726,4.1403,4.1418,4.2696,4.329,4.329,4.329,4.329,4.329,4.329,4.329,4.329,4.329,4.329,4.3424,4.4781,4.5289,4.5454,4.6815,4.7309,4.7309,2.8524,2.8035,2.765,2.7571,2.7023,2.6589,2.6641,2.6555,2.6521,2.6572,2.6521,2.6499,2.6499,2.6499,2.6499,2.6499,2.6499,2.6499,2.6499,2.7474,2.8059,2.8109,2.9151,2.9741,2.9792,2.9792,2.9792,2.9792,2.9792,2.9792,2.9792,2.9792,2.9792,2.9792,2.9792,2.9792,2.9792,2.9792,2.9792,2.9792,2.9792,2.9792,2.9792,2.9792,2.9792,2.9792,2.9792,2.9792,2.9792,2.9792,3.0131,3.0625,3.1173,3.1712,3.2265,3.2864,3.3065,3.3102,3.3102,3.3102,3.3102,3.3102,3.3102,3.3102,3.3102,3.3102,3.3102,3.3102,3.3102,3.3102,3.3102,3.3102,3.3176,3.3377,0.0,0.0,3.3776,3.5433,3.6646,3.6705,3.8308,3.9406,3.9406,3.9406,3.9406,3.9406,3.9406,3.9406,3.9406,3.9406,3.9406,3.9406,3.9406,3.9406,3.9406,4.0726,4.1403,4.1418,4.2696,4.329,4.329,4.329,4.329,4.329,4.329,4.329,4.329,4.329,4.329,4.3424,4.4781,4.5289,4.5454,4.6815,4.7309,4.7309,2.7417,2.7384,2.7367,2.6956,2.6675,2.6499,2.6499,2.6499,2.6499,2.6499,2.6499,2.6499,2.6499,2.6499,2.6499,2.6499,2.6499,2.6499,2.6499,2.7494,2.8423,2.9114,2.9566,2.9792,2.9792,2.9792,2.9792,2.9792,2.9792,2.9792,2.9792,2.9792,2.9792,2.9792,2.9792,2.9792,2.9792,2.9792,2.9792,2.9792,2.9792,2.9792,2.9792,2.9792,2.9792,2.9792,2.9792,2.9792,2.9792,2.9792,3.0168,3.0688,3.1223,3.1763,3.2328,3.2927,3.3102,3.3102,3.3102,3.3102,3.3102,3.3102,3.3102,3.3102,3.3102,3.3102,3.3102,3.3102,3.3102,3.3102,3.3102,3.3102,3.3176,3.3377,0.0,3.3471,3.367,3.491,3.5995,3.6548,3.782,3.8848,3.9337,3.9406,3.9406,3.9406,3.9406,3.9406,3.9406,3.9406,3.9406,3.9406,3.9406,3.9406,3.9406,4.0726,4.1403,4.1418,4.2696,4.329,4.329,4.329,4.329,4.329,4.329,4.329,4.329,4.329,4.329,4.3424,4.4781,4.5289,4.5454,4.6815,4.7309,4.7309,2.6692,2.6871,2.704,2.6572,2.6499,2.6499,2.6499,2.6499,2.6499,2.6499,2.6499,2.6499,2.6499,2.6499,2.6499,2.6499,2.6499,2.6499,2.6499,2.7494,2.8612,2.9741,2.9792,2.9792,2.9792,2.9792,2.9792,2.9792,2.9792,2.9792,2.9792,2.9792,2.9792,2.9792,2.9792,2.9792,2.9792,2.9792,2.9792,2.9792,2.9792,2.9792,2.9792,2.9792,2.9792,2.9792,2.9792,2.9792,2.9836,2.9993,3.0419,3.0947,3.1486,3.2026,3.2554,3.2989,3.3102,3.3102,3.3102,3.3102,3.3102,3.3102,3.3102,3.3102,3.3102,3.3102,3.3102,3.3102,3.3102,3.3102,3.3102,3.3102,3.3154,3.3283,3.3313,3.3356,3.3492,3.4643,3.5735,3.6397,3.7658,3.8719,3.9337,3.9406,3.9406,3.9406,3.9406,3.9406,3.9406,3.9406,3.9406,3.9406,3.9406,3.9283,3.9028,4.0599,4.1403,4.1418,4.2696,4.329,4.329,4.329,4.329,4.329,4.329,4.329,4.329,4.329,4.329,4.3424,4.4781,4.5289,4.5454,4.6815,4.7309,4.7309,2.6499,2.6499,2.6499,2.6499,2.6499,2.6499,2.6499,2.6499,2.6499,2.6499,2.6499,2.6499,2.6499,2.6499,2.6499,2.6499,2.6499,2.6499,2.6499,2.7512,2.8612,2.9741,2.9792,2.9792,2.9792,2.9792,2.9792,2.9792,2.9792,2.9792,2.9792,2.9792,2.9792,2.9792,2.9792,2.9792,2.9792,2.9792,2.9792,2.9792,2.9792,2.9792,2.9792,2.9792,2.9792,2.9792,2.9792,2.9792,2.988,3.0432,3.0959,3.1486,3.2039,3.2616,3.3102,3.3102,3.3102,3.3102,3.3102,3.3102,3.3102,3.3102,3.3102,3.3102,3.3102,3.3102,3.3102,3.3102,3.3102,3.3102,3.3102,3.3102,3.3102,3.3102,3.3102,3.3102,3.3102,3.4705,3.5961,3.6158,3.789,3.9141,3.9355,3.9388,3.9388,3.9406,3.9406,3.9406,3.9388,3.9388,3.9388,3.9388,3.9388,3.9013,3.8202,4.0317,4.1403,4.1418,4.2681,4.329,4.329,4.329,4.329,4.329,4.329,4.329,4.329,4.329,4.329,4.3424,4.4781,4.5289,4.5454,4.6815,4.7309,4.7309,2.6499,2.6499,2.6499,2.6499,2.6499,2.6499,2.6499,2.6499,2.6499,2.6499,2.6499,2.6499,2.6499,2.6499,2.6499,2.6499,2.6499,2.6826,2.7557,2.7921,2.8612,2.9741,2.9792,2.9792,2.9792,2.9792,2.9792,2.9792,2.9792,2.9792,2.9792,2.9792,2.9792,2.9792,2.9792,2.9792,2.9792,2.9792,2.9792,2.9792,2.9792,2.9792,2.9792,2.9792,2.9792,2.9792,2.9792,2.9792,2.988,3.0432,3.0959,3.1582,3.2537,3.2964,3.3102,3.3102,3.3102,3.3102,3.3102,3.3102,3.3102,3.3102,3.3102,3.3102,3.3102,3.3102,3.3102,3.3102,3.3102,3.3102,3.3102,3.3102,3.3102,3.3102,3.3102,3.3102,3.3102,3.3691,3.4387,3.5068,3.5782,3.6763,3.8144,3.829,3.8583,3.9337,3.9406,3.9068,3.8327,3.887,3.8907,3.8308,3.8727,3.8723,3.8202,3.9667,4.0446,4.05,4.1785,4.2714,4.329,4.329,4.329,4.329,4.329,4.329,4.329,4.329,4.329,4.3424,4.4781,4.5289,4.5454,4.6815,4.7309,4.7309,2.6499,2.6499,2.6499,2.6499,2.6499,2.6499,2.6499,2.6499,2.6499,2.6499,2.6499,2.6499,2.6499,2.6499,2.6499,2.6499,2.6499,2.6876,2.772,2.7984,2.8511,2.9396,2.9666,2.9792,2.9792,2.9792,2.9792,2.9792,2.9792,2.9792,2.9792,2.9792,2.9792,2.9792,2.9792,2.9792,2.9792,2.9792,2.9792,2.9792,2.9792,2.9792,2.9792,2.9792,2.9792,2.9792,2.9792,2.9792,2.9905,3.067,3.1424,3.2198,3.2876,3.3102,3.3102,3.3102,3.3102,3.3102,3.3102,3.3102,3.3102,3.3102,3.3102,3.3102,3.3102,3.3102,3.3102,3.3102,3.3102,3.3102,3.3102,3.3102,3.3102,3.3102,3.3102,3.3102,3.3102,3.3505,3.4029,3.4635,3.5081,3.5835,3.704,3.7548,3.8215,3.921,3.8889,3.8364,3.7715,3.8182,3.8234,3.7696,3.8069,3.8124,3.777,3.8378,3.8938,3.945,4.1183,4.2217,4.2644,4.3095,4.329,4.329,4.323,4.319,4.319,4.309,4.311,4.3309,4.4657,4.5242,4.5454,4.6815,4.7309,4.7309,2.6499,2.6499,2.6499,2.6499,2.6499,2.6499,2.6499,2.6499,2.6499,2.6499,2.6499,2.6499,2.6499,2.6499,2.6499,2.6499,2.6537,2.6801,2.7336,2.7871,2.8405,2.8969,2.9515,2.9792,2.9792,2.9792,2.9792,2.9792,2.9792,2.9792,2.9792,2.9792,2.9792,2.9792,2.9792,2.9792,2.9792,2.9792,2.9792,2.9792,2.9792,2.9792,2.9792,2.9792,2.9792,2.9792,2.9792,2.9829,3.005,3.1097,3.2198,3.3102,3.3102,3.3102,3.3102,3.3102,3.3102,3.3102,3.3102,3.3102,3.3102,3.3102,3.3102,3.3102,3.3102,3.3102,3.3102,3.3102,3.3102,3.3102,3.3102,3.3102,3.3102,3.3102,3.3102,3.3102,3.3102,3.3781,3.4343,3.4532,3.5203,3.5762,3.6033,3.7098,3.8069,3.88,3.8013,3.7434,3.7261,3.7319,3.7357,3.7357,3.7338,3.7262,3.7091,3.6811,3.7227,3.8353,4.0704,4.1693,4.1483,4.2725,4.321,4.3115,4.3036,4.2981,4.2975,4.2789,4.2809,4.3109,4.4487,4.5117,4.5433,4.6815,4.7309,4.7309,2.6499,2.6499,2.6499,2.6499,2.6499,2.6499,2.6499,2.6499,2.6499,2.6499,2.6499,2.6499,2.6499,2.6499,2.6499,2.6499,2.6889,2.7361,2.7896,2.843,2.8982,2.9578,2.9729,2.9792,2.9792,2.9792,2.9792,2.9792,2.9792,2.9792,2.9792,2.9792,2.9792,2.9792,2.9792,2.9792,2.9792,2.9792,2.9792,2.9792,2.9792,2.9792,2.9792,2.9792,2.9792,2.9792,2.9792,3.0068,3.0588,3.1675,3.2503,3.3102,3.3102,3.3102,3.3102,3.3102,3.3102,3.3102,3.3102,3.3102,3.3102,3.3102,3.3102,3.3102,3.3102,3.3102,3.3102,3.3102,3.3102,3.3102,3.3102,3.3102,3.3102,3.3102,3.3102,3.3102,3.3102,3.3261,3.3411,3.3441,3.3598,3.4045,3.4938,3.6568,3.7362,3.6871,3.7247,3.6861,3.5406,3.5895,3.6253,3.6253,3.6094,3.6357,3.7091,3.6684,3.6904,3.7787,3.954,4.0332,4.0318,4.2208,4.2583,4.1775,4.2624,4.2915,4.2769,4.2708,4.2729,4.2922,4.4404,4.5028,4.5254,4.6751,4.7309,4.7309,2.6482,2.6499,2.6499,2.6499,2.6499,2.6499,2.6499,2.6499,2.6499,2.6499,2.6499,2.6499,2.6499,2.6499,2.66,2.6864,2.7135,2.765,2.843,2.8737,2.917,2.9767,2.9792,2.9792,2.9792,2.9792,2.9792,2.9792,2.9792,2.9792,2.9792,2.9792,2.9792,2.9792,2.9792,2.9792,2.9792,2.9792,2.9792,2.9792,2.9792,2.9792,2.9792,2.9792,2.9792,2.9753,2.9339,2.9687,3.0548,3.178,3.2604,3.3102,3.3102,3.3102,3.3102,3.3102,3.3102,3.3102,3.3102,3.3102,3.3102,3.3102,3.3102,3.3102,3.3102,3.3102,3.3102,3.3102,3.3102,3.3102,3.3102,3.3102,3.3102,3.3102,3.3102,3.3102,3.3102,3.3102,3.3102,3.3102,3.3102,3.3513,3.4602,3.5487,3.6029,3.6047,3.6035,3.5581,3.4607,3.4965,3.5176,3.5176,3.5341,3.5789,3.658,3.6179,3.6319,3.7043,3.8515,3.9174,3.9094,4.0767,4.1428,4.1338,4.1831,4.2246,4.2541,4.2453,4.2474,4.2693,4.4112,4.4796,4.5155,4.6586,4.7186,4.7309,2.6413,2.6482,2.6499,2.6499,2.6499,2.6499,2.6499,2.6499,2.6499,2.6499,2.6499,2.6499,2.6499,2.6575,2.6813,2.7261,2.7474,2.7946,2.8838,2.9007,2.927,2.9779,2.9792,2.9792,2.9792,2.9792,2.9792,2.9792,2.9792,2.9792,2.9792,2.9792,2.9792,2.9792,2.9792,2.9792,2.9792,2.9792,2.9792,2.9792,2.9792,2.9792,2.9792,2.9792,2.9702,2.9475,2.8752,2.9176,3.0323,3.1833,3.2679,3.3102,3.3102,3.3102,3.3102,3.3102,3.3102,3.3102,3.3102,3.3102,3.3102,3.3102,3.3102,3.3102,3.3102,3.3102,3.3102,3.3102,3.3102,3.3102,3.3102,3.3102,3.3102,3.3102,3.3102,3.3102,3.3102,3.3102,3.3102,3.3102,3.3102,3.3462,3.4324,3.4413,3.4682,3.5366,3.4806,3.4335,3.4189,3.4168,3.4251,3.4397,3.4785,3.531,3.5979,3.5674,3.5794,3.6405,3.7589,3.802,3.7848,3.9205,4.0159,4.071,4.0909,4.1416,4.2075,4.2098,4.2195,4.2483,4.379,4.4543,4.5029,4.6354,4.6997,4.7229,2.6236,2.6379,2.6499,2.6499,2.6499,2.6499,2.6499,2.6499,2.6499,2.6499,2.6499,2.6499,2.6499,2.6909,2.7223,2.7286,2.816,2.8756,2.8888,2.9402,2.9716,2.9792,2.9792,2.9792,2.9792,2.9792,2.9792,2.9792,2.9792,2.9792,2.9792,2.9792,2.9792,2.9792,2.9792,2.9792,2.9792,2.9792,2.9792,2.9792,2.9792,2.9792,2.9792,2.9792,2.9326,2.8673,2.8542,2.9176,3.0383,3.2315,3.304,3.3102,3.3102,3.3102,3.3102,3.3102,3.3102,3.3102,3.3102,3.3102,3.3102,3.3102,3.3102,3.3102,3.3102,3.3102,3.3102,3.3102,3.3102,3.3102,3.3102,3.3102,3.3102,3.3102,3.3102,3.3102,3.3102,3.3102,3.3102,3.3102,3.3102,3.3154,3.3292,3.3958,3.4147,3.3526,3.4042,3.4063,3.3326,3.3283,3.3611,3.4377,3.4203,3.4696,3.5992,3.5674,3.5794,3.6405,3.6581,3.6675,3.6686,3.8658,3.9094,3.8387,4.0223,4.0944,4.0916,4.1737,4.2113,4.2285,4.3726,4.4351,4.4583,4.6086,4.6756,4.6953,2.6184,2.6374,2.6465,2.6357,2.6339,2.6292,2.6188,2.6258,2.6339,2.6339,2.643,2.6499,2.6499,2.6989,2.755,2.8147,2.8631,2.9045,2.939,2.9654,2.9792,2.9792,2.9792,2.9792,2.9792,2.9792,2.9792,2.9792,2.9792,2.9792,2.9792,2.9792,2.9792,2.9792,2.9792,2.9792,2.9792,2.9792,2.9792,2.9792,2.9792,2.9792,2.9753,2.9268,2.8831,2.8586,2.9176,2.955,3.0107,3.2352,3.3102,3.3102,3.3102,3.3102,3.3102,3.3102,3.3102,3.3102,3.3102,3.3102,3.3102,3.3102,3.3102,3.3102,3.3102,3.3102,3.3102,3.3102,3.3102,3.3102,3.3102,3.3102,3.3102,3.3102,3.3102,3.3102,3.3102,3.3102,3.3102,3.3102,3.3102,3.3102,3.3102,3.3454,3.3505,3.3133,3.3454,3.3518,3.3124,3.3102,3.34,3.4092,3.4259,3.4792,3.5695,3.5913,3.6143,3.6405,3.6405,3.6405,3.6428,3.7345,3.7782,3.7877,3.9356,4.0216,4.0689,4.1696,4.2092,4.2243,4.3613,4.4639,4.5457,4.6285,4.6734,4.6894]}]]